[[{"header":{"parameterUnit":"m.s-1","parameterCategory":1,"la1":30.6,"la2":28.766,"lo1":-90.7593,"lo2":-88.6598,"dy":0.0162,"dx":0.0183,"nx":116,"ny":114,"refTime":"2024-05-04T06:00:00:Z","depth":0,"parameterNumber":2,"parameterNumberName":"U-component_of_WINDS"},"data":[0.0,0.0,0.0,0.0,0.0,0.0,0.0,0.0,0.0,0.0,0.0,0.0,0.0,0.0,0.0,0.0,0.0,0.0,0.0,0.0,0.0,0.0,0.0,0.0,0.0,0.0,0.0,0.0,0.0,0.0,0.0,0.0,0.0,0.0,0.0,0.0,0.0,0.0,0.0,0.0,0.0,0.0,0.0,0.0,0.0,0.0,0.0,0.0,0.0,0.0,0.0,0.0,0.0,0.0,0.0,0.0,0.0,0.0,0.0,0.0,0.0,0.0,0.0,0.0,0.0,0.0,0.0,0.0,0.0,0.0,0.0,0.0,0.0,0.0,0.0,0.0,0.0,0.0,0.0,0.0,0.0,0.0,0.0,0.0,0.0,0.0,0.0,0.0,0.0,0.0,0.0,0.0,0.0,0.0,0.0,0.0,0.0,0.0,0.0,0.0,0.0,0.0,0.0,0.0,0.0,0.0,0.0,0.0,0.0,0.0,0.0,0.0,0.0,0.0,0.0,0.0,0.0,0.0,0.0,0.0,0.0,0.0,0.0,0.0,0.0,0.0,0.0,0.0,0.0,0.0,0.0,0.0,0.0,0.0,0.0,0.0,0.0,0.0,0.0,0.0,0.0,0.0,0.0,0.0,0.0,0.0,0.0,0.0,0.0,0.0,0.0,0.0,0.0,0.0,0.0,0.0,0.0,0.0,0.0,0.0,0.0,0.0,0.0,0.0,0.0,0.0,0.0,0.0,0.0,0.0,0.0,0.0,0.0,0.0,0.0,0.0,0.0,0.0,0.0,0.0,0.0,0.0,0.0,0.0,0.0,0.0,0.0,0.0,0.0,0.0,0.0,0.0,0.0,0.0,0.0,0.0,0.0,0.0,0.0,0.0,0.0,0.0,0.0,0.0,0.0,0.0,0.0,0.0,0.0,0.0,0.0,0.0,0.0,0.0,0.0,0.0,0.0,0.0,0.0,0.0,0.0,0.0,0.0,0.0,0.0,0.0,0.0,0.0,0.0,0.0,0.0,0.0,0.0,0.0,0.0,0.0,0.0,0.0,0.0,0.0,0.0,0.0,0.0,0.0,0.0,0.0,0.0,0.0,0.0,0.0,0.0,0.0,0.0,0.0,0.0,0.0,0.0,0.0,0.0,0.0,0.0,0.0,0.0,0.0,0.0,0.0,0.0,0.0,0.0,0.0,0.0,0.0,0.0,0.0,0.0,0.0,0.0,0.0,0.0,0.0,0.0,0.0,0.0,0.0,0.0,0.0,0.0,0.0,0.0,0.0,0.0,0.0,0.0,0.0,0.0,0.0,0.0,0.0,0.0,0.0,0.0,0.0,0.0,0.0,0.0,0.0,0.0,0.0,0.0,0.0,0.0,0.0,0.0,0.0,0.0,0.0,0.0,0.0,0.0,0.0,0.0,0.0,0.0,0.0,0.0,0.0,0.0,0.0,0.0,0.0,0.0,0.0,0.0,0.0,0.0,0.0,0.0,0.0,0.0,0.0,0.0,0.0,0.0,0.0,0.0,0.0,0.0,0.0,0.0,0.0,0.0,0.0,0.0,0.0,0.0,0.0,0.0,0.0,0.0,0.0,0.0,0.0,0.0,0.0,0.0,0.0,0.0,0.0,0.0,0.0,0.0,0.0,0.0,0.0,0.0,0.0,0.0,0.0,0.0,0.0,0.0,0.0,0.0,0.0,0.0,0.0,0.0,0.0,0.0,0.0,0.0,0.0,0.0,0.0,0.0,0.0,0.0,0.0,0.0,0.0,0.0,0.0,0.0,0.0,0.0,0.0,0.0,0.0,0.0,0.0,0.0,0.0,0.0,0.0,0.0,0.0,0.0,0.0,0.0,0.0,0.0,0.0,0.0,0.0,0.0,0.0,0.0,0.0,0.0,0.0,0.0,0.0,0.0,0.0,0.0,0.0,0.0,0.0,0.0,0.0,0.0,0.0,0.0,0.0,0.0,0.0,0.0,0.0,0.0,0.0,0.0,0.0,0.0,0.0,0.0,0.0,0.0,0.0,0.0,0.0,0.0,0.0,0.0,0.0,0.0,0.0,0.0,0.0,0.0,0.0,0.0,0.0,0.0,0.0,0.0,0.0,0.0,0.0,0.0,0.0,0.0,0.0,0.0,0.0,0.0,0.0,0.0,0.0,0.0,0.0,0.0,0.0,0.0,0.0,0.0,0.0,0.0,0.0,0.0,0.0,0.0,0.0,0.0,0.0,0.0,0.0,0.0,0.0,0.0,0.0,0.0,0.0,0.0,0.0,0.0,0.0,0.0,0.0,0.0,0.0,0.0,0.0,0.0,0.0,0.0,0.0,0.0,0.0,0.0,0.0,0.0,0.0,0.0,0.0,0.0,0.0,0.0,0.0,0.0,0.0,0.0,0.0,0.0,0.0,0.0,0.0,0.0,0.0,0.0,0.0,0.0,0.0,0.0,0.0,0.0,0.0,0.0,0.0,0.0,0.0,0.0,0.0,0.0,0.0,0.0,0.0,0.0,0.0,0.0,0.0,0.0,0.0,0.0,0.0,0.0,0.0,0.0,0.0,0.0,0.0,0.0,0.0,0.0,0.0,0.0,0.0,0.0,0.0,0.0,0.0,0.0,0.0,0.0,0.0,0.0,0.0,0.0,0.0,0.0,0.0,0.0,0.0,0.0,0.0,0.0,0.0,0.0,0.0,0.0,0.0,0.0,0.0,0.0,0.0,0.0,0.0,0.0,0.0,0.0,0.0,0.0,0.0,0.0,0.0,0.0,0.0,0.0,0.0,0.0,0.0,0.0,0.0,0.0,0.0,0.0,0.0,0.0,0.0,0.0,0.0,0.0,0.0,0.0,0.0,0.0,0.0,0.0,0.0,0.0,0.0,0.0,0.0,0.0,0.0,0.0,0.0,0.0,0.0,0.0,0.0,0.0,0.0,0.0,0.0,0.0,0.0,0.0,0.0,0.0,0.0,0.0,0.0,0.0,0.0,0.0,0.0,0.0,0.0,0.0,0.0,0.0,0.0,0.0,0.0,0.0,0.0,0.0,0.0,0.0,0.0,0.0,0.0,0.0,0.0,0.0,0.0,0.0,0.0,0.0,0.0,0.0,0.0,0.0,0.0,0.0,0.0,0.0,0.0,0.0,0.0,0.0,0.0,0.0,0.0,0.0,0.0,0.0,0.0,0.0,0.0,0.0,0.0,0.0,0.0,0.0,0.0,0.0,0.0,0.0,0.0,0.0,0.0,0.0,0.0,0.0,0.0,0.0,0.0,0.0,0.0,0.0,0.0,0.0,0.0,0.0,0.0,0.0,0.0,0.0,0.0,0.0,0.0,0.0,0.0,0.0,0.0,0.0,0.0,0.0,0.0,0.0,0.0,0.0,0.0,0.0,0.0,0.0,0.0,0.0,0.0,0.0,0.0,0.0,0.0,0.0,0.0,0.0,0.0,0.0,0.0,0.0,0.0,0.0,0.0,0.0,0.0,0.0,0.0,0.0,0.0,0.0,0.0,0.0,0.0,0.0,0.0,0.0,0.0,0.0,0.0,0.0,0.0,0.0,0.0,0.0,0.0,0.0,0.0,0.0,0.0,0.0,0.0,0.0,0.0,0.0,0.0,0.0,0.0,0.0,0.0,0.0,0.0,0.0,0.0,0.0,0.0,0.0,0.0,0.0,0.0,0.0,0.0,0.0,0.0,0.0,0.0,0.0,0.0,0.0,0.0,0.0,0.0,0.0,0.0,0.0,0.0,0.0,0.0,0.0,0.0,0.0,0.0,0.0,0.0,0.0,0.0,0.0,0.0,0.0,0.0,0.0,0.0,0.0,0.0,0.0,0.0,0.0,0.0,0.0,0.0,0.0,0.0,0.0,0.0,0.0,0.0,0.0,0.0,0.0,0.0,0.0,0.0,0.0,0.0,0.0,0.0,0.0,0.0,0.0,0.0,0.0,0.0,0.0,0.0,0.0,0.0,0.0,0.0,0.0,0.0,0.0,0.0,0.0,0.0,0.0,0.0,0.0,0.0,0.0,0.0,0.0,0.0,0.0,0.0,0.0,0.0,0.0,0.0,0.0,0.0,0.0,0.0,0.0,0.0,0.0,0.0,0.0,0.0,0.0,0.0,0.0,0.0,0.0,0.0,0.0,0.0,0.0,0.0,0.0,0.0,0.0,0.0,0.0,0.0,0.0,0.0,0.0,0.0,0.0,0.0,0.0,0.0,0.0,0.0,0.0,0.0,0.0,0.0,0.0,0.0,0.0,0.0,0.0,0.0,0.0,0.0,0.0,0.0,0.0,0.0,0.0,0.0,0.0,0.0,0.0,0.0,0.0,0.0,0.0,0.0,0.0,0.0,0.0,0.0,0.0,0.0,0.0,0.0,0.0,0.0,0.0,0.0,0.0,0.0,0.0,0.0,0.0,0.0,0.0,0.0,0.0,0.0,0.0,0.0,0.0,0.0,0.0,0.0,0.0,0.0,0.0,0.0,0.0,0.0,0.0,0.0,0.0,0.0,0.0,0.0,0.0,0.0,0.0,0.0,0.0,0.0,0.0,0.0,0.0,0.0,0.0,0.0,0.0,0.0,0.0,0.0,0.0,0.0,0.0,0.0,0.0,0.0,0.0,0.0,0.0,0.0,0.0,0.0,0.0,0.0,0.0,0.0,0.0,0.0,0.0,0.0,0.0,0.0,0.0,0.0,0.0,0.0,0.0,0.0,0.0,0.0,0.0,0.0,0.0,0.0,0.0,0.0,0.0,0.0,0.0,0.0,0.0,0.0,0.0,0.0,0.0,0.0,0.0,0.0,0.0,0.0,0.0,0.0,0.0,0.0,0.0,0.0,0.0,0.0,0.0,0.0,0.0,0.0,0.0,0.0,0.0,0.0,0.0,0.0,0.0,0.0,0.0,0.0,0.0,0.0,0.0,0.0,0.0,0.0,0.0,0.0,0.0,0.0,0.0,0.0,0.0,0.0,0.0,0.0,0.0,0.0,0.0,0.0,0.0,0.0,0.0,0.0,0.0,0.0,0.0,0.0,0.0,0.0,0.0,0.0,0.0,0.0,0.0,0.0,0.0,0.0,0.0,0.0,0.0,0.0,0.0,0.0,0.0,0.0,0.0,0.0,0.0,0.0,0.0,0.0,0.0,0.0,0.0,0.0,0.0,0.0,0.0,0.0,0.0,0.0,0.0,0.0,0.0,0.0,0.0,0.0,0.0,0.0,0.0,0.0,0.0,0.0,0.0,0.0,0.0,0.0,0.0,0.0,0.0,0.0,0.0,0.0,0.0,0.0,0.0,0.0,0.0,0.0,0.0,0.0,0.0,0.0,0.0,0.0,0.0,0.0,0.0,0.0,0.0,0.0,0.0,0.0,0.0,0.0,0.0,0.0,0.0,0.0,0.0,0.0,0.0,0.0,0.0,0.0,0.0,0.0,0.0,0.0,0.0,0.0,0.0,0.0,0.0,0.0,0.0,0.0,0.0,0.0,0.0,0.0,0.0,0.0,0.0,0.0,0.0,0.0,0.0,0.0,0.0,0.0,0.0,0.0,0.0,0.0,0.0,0.0,0.0,0.0,0.0,0.0,0.0,0.0,0.0,0.0,0.0,0.0,0.0,0.0,0.0,0.0,0.0,0.0,0.0,0.0,0.0,0.0,0.0,0.0,0.0,0.0,0.0,0.0,0.0,0.0,0.0,0.0,0.0,0.0,0.0,0.0,0.0,0.0,0.0,0.0,0.0,0.0,0.0,0.0,0.0,0.0,0.0,0.0,0.0,0.0,0.0,0.0,0.0,0.0,0.0,0.0,0.0,0.0,0.0,0.0,0.0,0.0,0.0,0.0,0.0,0.0,0.0,0.0,0.0,0.0,0.0,0.0,0.0,0.0,0.0,0.0,0.0,0.0,0.0,0.0,0.0,0.0,0.0,0.0,0.0,0.0,0.0,0.0,0.0,0.0,0.0,0.0,0.0,0.0,0.0,0.0,0.0,0.0,0.0,0.0,0.0,0.0,0.0,0.0,0.0,0.0,0.0,0.0,0.0,0.0,0.0,0.0,0.0,0.0,0.0,0.0,0.0,0.0,0.0,0.0,0.0,0.0,0.0,0.0,0.0,0.0,-6.6716,0.0,0.0,0.0,0.0,0.0,0.0,0.0,0.0,0.0,0.0,0.0,0.0,0.0,0.0,0.0,0.0,0.0,0.0,0.0,0.0,0.0,0.0,0.0,0.0,-5.6855,-5.6933,-5.7773,-5.7871,-5.8437,-5.9687,0.0,0.0,0.0,0.0,0.0,-6.1699,-6.1699,-6.1699,-6.1699,-6.2129,-6.2773,-6.3613,-6.3164,-6.2733,-6.2315,0.0,0.0,0.0,0.0,0.0,0.0,0.0,0.0,0.0,0.0,0.0,0.0,0.0,0.0,0.0,0.0,0.0,0.0,0.0,0.0,0.0,0.0,0.0,0.0,0.0,0.0,0.0,0.0,0.0,0.0,0.0,0.0,0.0,0.0,0.0,0.0,0.0,0.0,0.0,0.0,0.0,0.0,0.0,0.0,0.0,0.0,0.0,0.0,0.0,0.0,0.0,0.0,0.0,0.0,0.0,0.0,0.0,0.0,0.0,0.0,0.0,0.0,0.0,0.0,0.0,0.0,0.0,0.0,0.0,0.0,0.0,-6.5455,0.0,0.0,0.0,0.0,0.0,0.0,0.0,0.0,0.0,0.0,0.0,0.0,0.0,0.0,0.0,0.0,0.0,0.0,0.0,0.0,0.0,-5.6855,-5.7598,-5.7168,-5.7402,-5.8848,-5.8574,-5.8926,-6.0312,-6.0547,0.0,0.0,-6.1699,-6.1699,-6.1699,-6.1699,-6.1777,-6.1933,-6.2949,-6.3828,-6.4531,-6.4531,-6.414,-6.3411,-6.2533,0.0,0.0,0.0,0.0,0.0,0.0,0.0,0.0,0.0,0.0,0.0,0.0,0.0,0.0,0.0,0.0,0.0,0.0,0.0,0.0,0.0,0.0,0.0,0.0,0.0,0.0,0.0,0.0,0.0,0.0,0.0,0.0,0.0,0.0,0.0,0.0,0.0,0.0,0.0,0.0,0.0,0.0,0.0,0.0,0.0,0.0,0.0,0.0,0.0,0.0,0.0,0.0,0.0,0.0,0.0,0.0,0.0,0.0,0.0,0.0,0.0,0.0,0.0,-6.4297,-6.4433,-6.5781,-6.4336,-6.4473,-6.582,-6.582,-6.6383,-6.7115,-6.5071,0.0,0.0,0.0,0.0,0.0,0.0,0.0,0.0,0.0,0.0,0.0,0.0,0.0,0.0,0.0,0.0,0.0,0.0,0.0,-5.6587,-5.6758,-5.7344,-5.7812,-5.8047,-5.9297,-6.0156,-6.039,-6.1113,-6.1582,-6.1699,-6.1699,-6.1699,-6.1699,-6.1699,-6.207,-6.2832,-6.4453,-6.5312,-6.543,-6.543,-6.5371,-6.5215,-6.4355,-6.3535,-6.2831,0.0,0.0,0.0,0.0,0.0,0.0,0.0,0.0,0.0,0.0,0.0,0.0,0.0,0.0,0.0,0.0,0.0,0.0,0.0,0.0,0.0,0.0,0.0,0.0,0.0,0.0,0.0,0.0,0.0,0.0,0.0,0.0,0.0,0.0,0.0,0.0,0.0,0.0,0.0,0.0,0.0,-6.4297,-6.4297,0.0,0.0,0.0,0.0,0.0,0.0,0.0,0.0,0.0,0.0,0.0,0.0,0.0,-6.4355,-6.4473,-6.5215,-6.5605,-6.5605,-6.6133,-6.6504,-6.6719,-6.6484,-6.6504,-6.6738,-6.6738,0.0,-6.48,-6.5038,0.0,0.0,0.0,0.0,0.0,0.0,0.0,0.0,0.0,0.0,0.0,0.0,0.0,0.0,0.0,0.0,0.0,0.0,0.0,0.0,0.0,-5.8105,-5.9004,-5.9941,-6.1152,-6.1855,-6.1855,-6.2226,-6.2207,-6.1719,-6.1699,-6.1699,-6.1699,-6.2187,-6.3105,-6.4453,-6.5234,-6.5859,-6.6328,-6.6328,-6.6328,-6.6308,-6.5937,-6.5019,-6.373,-6.3729,0.0,0.0,0.0,0.0,0.0,0.0,0.0,0.0,0.0,0.0,0.0,0.0,0.0,0.0,0.0,0.0,0.0,0.0,0.0,0.0,0.0,0.0,0.0,0.0,0.0,0.0,0.0,0.0,0.0,0.0,0.0,0.0,0.0,0.0,0.0,0.0,0.0,0.0,0.0,-6.3027,-6.3574,-6.3572,-6.2792,-6.1933,0.0,0.0,0.0,0.0,0.0,0.0,0.0,0.0,0.0,-6.498,-6.5039,-6.5273,-6.5762,-6.6133,-6.6328,-6.6348,-6.6719,-6.6894,-6.6894,-6.6894,-6.6894,-6.6894,-6.6894,-6.6465,-6.5741,-6.5516,-6.4477,-6.2994,0.0,0.0,0.0,0.0,-6.0641,-6.0055,0.0,0.0,0.0,0.0,0.0,0.0,0.0,0.0,0.0,0.0,0.0,0.0,-5.8144,-5.9199,-6.043,-6.1894,-6.2832,-6.332,-6.332,-6.332,-6.3047,-6.2383,-6.2148,-6.2148,-6.2363,-6.3223,-6.4297,-6.5605,-6.582,-6.6249,-6.6853,-6.6853,-6.6853,-6.6853,-6.6853,-6.6014,-6.4629,-6.4629,-6.4121,-6.3301,0.0,0.0,0.0,0.0,0.0,0.0,0.0,0.0,0.0,0.0,0.0,0.0,0.0,0.0,0.0,0.0,0.0,0.0,0.0,0.0,0.0,0.0,0.0,0.0,0.0,0.0,0.0,0.0,0.0,0.0,0.0,0.0,0.0,0.0,0.0,0.0,0.0,-6.2498,-6.3163,-6.273,-6.2694,-6.2187,0.0,0.0,0.0,0.0,0.0,0.0,-6.4238,-6.4297,-6.4805,-6.5898,-6.5937,-6.623,-6.6894,-6.6894,-6.6894,-6.6894,-6.6894,-6.6894,-6.6894,-6.6894,-6.6894,-6.6894,-6.6894,-6.6894,-6.6855,-6.6148,-6.5535,-6.494,-6.4281,-6.3327,-6.234,-6.2765,-6.2391,-6.1943,0.0,0.0,0.0,0.0,0.0,0.0,0.0,0.0,0.0,0.0,0.0,-5.8101,-5.9023,-6.0586,-6.1933,-6.2851,-6.373,-6.4238,-6.4238,-6.4238,-6.4219,-6.418,-6.3379,-6.332,-6.414,-6.5019,-6.5508,-6.5605,-6.6426,-6.6793,-6.6702,-6.6702,-6.6702,-6.6702,-6.6702,-6.6275,-6.5527,-6.5527,-6.5039,-6.416,-6.332,0.0,0.0,0.0,0.0,0.0,0.0,0.0,0.0,0.0,0.0,0.0,0.0,0.0,0.0,0.0,0.0,0.0,0.0,0.0,0.0,0.0,0.0,0.0,0.0,0.0,0.0,0.0,0.0,0.0,0.0,0.0,0.0,0.0,0.0,0.0,0.0,0.0,0.0,-6.1953,-6.3926,0.0,0.0,0.0,0.0,-6.1758,-6.1738,-6.2519,-6.4219,-6.4297,-6.5078,-6.6777,-6.6836,-6.6855,-6.6894,-6.6894,-6.6894,-6.6894,-6.6894,-6.6894,-6.6894,-6.6894,-6.6894,-6.6894,-6.6894,-6.6894,-6.6894,-6.6854,-6.582,-6.4241,-6.4143,-6.3025,-6.1658,-6.3174,-6.3679,-6.3804,0.0,0.0,0.0,0.0,0.0,-5.65,-5.6498,-5.65,-5.6701,-5.7294,-5.8141,-5.9238,-6.0644,-6.2344,-6.3711,-6.4609,-6.5469,-6.5742,-6.5176,-6.5137,-6.4648,-6.3515,-6.3691,-6.4238,-6.5117,-6.5449,-6.5838,-6.6312,-6.6625,-6.6719,-6.6646,-6.6646,-6.6658,-6.6697,-6.6697,-6.6605,-6.6445,-6.6445,-6.5937,-6.5117,-6.4805,-6.4004,0.0,0.0,0.0,0.0,0.0,0.0,0.0,0.0,0.0,0.0,0.0,0.0,0.0,0.0,0.0,0.0,0.0,0.0,0.0,0.0,0.0,0.0,0.0,0.0,0.0,0.0,0.0,0.0,0.0,0.0,0.0,0.0,0.0,0.0,0.0,0.0,0.0,-6.3512,-6.4198,0.0,-6.2676,-6.332,-6.3711,-6.3398,-6.4414,-6.5312,-6.5937,-6.5976,-6.6269,-6.6875,-6.6894,-6.6894,-6.6894,-6.6894,-6.6894,-6.6894,-6.6894,-6.6894,-6.6894,-6.6894,-6.6894,-6.6894,-6.6894,-6.6894,-6.6894,-6.6894,-6.6523,-6.5937,-6.5918,-6.5488,-6.4941,-6.5527,-6.5629,-6.5582,0.0,0.0,0.0,-5.6507,-5.6507,-5.6504,-5.6494,-5.6497,-5.6928,-5.812,-5.9042,-6.0351,-6.2363,-6.3867,-6.5098,-6.5957,-6.6562,-6.664,-6.6074,-6.5762,-6.5078,-6.3926,-6.4433,-6.5019,-6.5586,-6.5838,-6.6218,-6.6697,-6.6697,-6.6631,-6.6534,-6.6574,-6.659,-6.6607,-6.6654,-6.6739,-6.6832,-6.6874,-6.6562,-6.6015,-6.5723,-6.4902,-6.3808,0.0,0.0,0.0,0.0,0.0,0.0,0.0,0.0,0.0,0.0,0.0,0.0,0.0,0.0,0.0,0.0,0.0,0.0,0.0,0.0,0.0,0.0,0.0,0.0,0.0,0.0,0.0,0.0,0.0,0.0,0.0,0.0,0.0,0.0,-6.3309,-6.47,-6.3557,-6.4444,-6.4683,-6.3511,-6.4451,-6.5135,-6.5135,-6.623,-6.6894,-6.6894,-6.7187,-6.7344,-6.7344,-6.7617,-6.7773,-6.7773,-6.7773,-6.7773,-6.7773,-6.7754,-6.7754,-6.7773,-6.7754,-6.7598,-6.7344,-6.7344,-6.7168,-6.6894,-6.6894,-6.6894,-6.6893,-6.6892,-6.6868,-6.682,-6.6815,-6.6522,-6.6081,0.0,-5.7072,-5.6526,-5.6507,-5.6507,-5.6496,-5.6499,-5.6506,-5.7168,-5.9003,-5.9941,-6.1445,-6.4062,-6.5117,-6.5976,-6.6836,-6.6894,-6.6894,-6.6855,-6.6074,-6.5605,-6.5605,-6.5605,-6.5605,-6.5625,-6.633,-6.67,-6.6695,-6.6697,-6.6607,-6.64,-6.654,-6.6534,-6.6414,-6.6546,-6.6635,-6.6705,-6.6833,-6.6894,-6.6836,-6.5976,-6.5625,-6.543,0.0,0.0,0.0,0.0,0.0,0.0,0.0,0.0,0.0,0.0,0.0,0.0,0.0,0.0,0.0,0.0,0.0,0.0,0.0,0.0,0.0,0.0,0.0,0.0,0.0,0.0,0.0,0.0,0.0,0.0,0.0,0.0,0.0,-6.2019,-6.3217,-6.3672,-6.2047,-6.4782,-6.6131,-6.445,-6.5819,-6.6805,-6.6845,-6.6892,-6.6953,-6.6972,-6.7773,-6.8242,-6.8242,-6.9062,-6.9492,-6.9492,-6.9492,-6.9492,-6.9492,-6.9433,-6.9433,-6.9492,-6.9433,-6.8984,-6.8242,-6.8203,-6.7715,-6.6933,-6.6914,-6.6894,-6.6894,-6.6893,-6.6892,-6.6891,-6.6781,-6.6152,-6.5207,-5.7902,-5.752,-5.7189,-5.6604,-5.6507,-5.6504,-5.6491,-5.6497,-5.7358,-5.9759,-6.0819,-6.2344,-6.4961,-6.6015,-6.664,-6.6875,-6.6894,-6.6621,-6.5996,-6.5723,-6.5605,-6.5605,-6.5605,-6.5857,-6.6385,-6.6691,-6.6774,-6.6633,-6.6678,-6.6654,-6.6546,-6.6579,-6.6619,-6.6623,-6.6665,-6.6744,-6.6853,-6.6875,-6.6894,-6.6875,-6.664,-6.6152,-6.5547,0.0,0.0,0.0,0.0,0.0,0.0,0.0,0.0,0.0,0.0,0.0,0.0,0.0,0.0,0.0,0.0,0.0,0.0,0.0,0.0,0.0,0.0,0.0,0.0,0.0,0.0,0.0,0.0,0.0,0.0,0.0,-6.4325,-6.4776,-6.3662,-6.5004,-6.5917,-6.5448,-6.6229,-6.66,-6.6131,-6.6529,-6.7067,-6.7703,-6.7766,-6.8044,-6.8672,-6.8945,-6.9062,-6.9062,-6.9297,-6.9433,-6.9433,-6.9472,-6.9472,-6.9433,-6.9414,-6.9433,-6.9492,-6.9472,-6.9336,-6.9043,-6.8457,-6.8066,-6.7793,-6.7168,-6.6894,-6.6894,-6.6894,-6.6893,-6.6814,-6.6054,-6.5197,-6.4349,-5.8958,-5.849,-5.7988,-5.715,-5.7306,-5.7435,-5.7102,-5.7348,-5.8527,-6.1142,-6.1932,-6.3242,-6.5859,-6.6601,-6.6894,-6.6894,-6.6562,-6.5996,-6.5117,-6.4707,-6.4844,-6.5566,-6.5605,-6.5975,-6.6764,-6.6807,-6.6741,-6.659,-6.6631,-6.6609,-6.6516,-6.6569,-6.6624,-6.6658,-6.6687,-6.6733,-6.6829,-6.6874,-6.6894,-6.6894,-6.6894,-6.6601,-6.6094,-6.5742,-6.5293,-6.4805,-6.4433,-6.3965,-6.3535,-6.3535,0.0,0.0,0.0,0.0,0.0,0.0,0.0,0.0,0.0,0.0,0.0,0.0,0.0,0.0,0.0,0.0,0.0,0.0,0.0,0.0,0.0,0.0,0.0,0.0,-6.5276,-6.5875,-6.5354,-6.6154,-6.6792,-6.6755,-6.6755,-6.6755,-6.6755,-6.7101,-6.7512,-6.8064,-6.8442,-6.8861,-6.9375,-6.9746,-6.9941,-6.9941,-7.0293,-7.0488,-7.0488,-7.0527,-7.0527,-7.0488,-7.0488,-7.0508,-7.0547,-7.0547,-7.0332,0.0,-6.9453,-6.8847,-6.8164,-6.7656,-6.7226,0.0,0.0,0.0,0.0,0.0,-6.4759,-6.392,-6.0283,-5.9678,-5.886,-5.8007,-5.849,-5.8756,-5.8031,-5.8596,-6.0048,-6.2643,-6.3006,-6.4004,-6.6601,-6.6894,-6.6855,-6.6758,-6.6055,-6.5234,-6.4355,-6.3672,-6.3984,-6.5527,-6.5683,-6.6094,-6.6855,-6.6758,-6.6668,-6.659,-6.659,-6.654,-6.6441,-6.6558,-6.661,-6.6615,-6.6681,-6.6727,-6.6729,-6.6853,-6.6894,-6.6894,-6.6894,-6.6894,-6.6816,-6.6035,-6.5742,-6.5644,-6.4863,-6.4531,-6.4453,-6.4453,0.0,0.0,0.0,0.0,0.0,0.0,0.0,0.0,0.0,0.0,0.0,0.0,0.0,0.0,0.0,0.0,0.0,0.0,0.0,0.0,0.0,0.0,0.0,0.0,-6.5776,-6.6807,-6.681,-6.6799,-6.6763,-6.6717,-6.679,-6.6848,-6.6848,-6.7647,-6.8218,-6.8376,-6.9119,-6.9583,-6.9687,0.0,0.0,0.0,0.0,-7.1992,-7.1992,-7.1992,-7.1992,-7.1992,-7.1992,-7.1992,-7.1992,-7.1992,-7.1582,-7.084,-7.0742,-6.9863,-6.8476,-6.8281,-6.7695,-6.6894,-6.6894,-6.6835,-6.6597,-6.565,-6.469,0.0,-6.0434,-6.0165,-5.9776,-5.8899,-5.888,-5.8942,-5.8795,-5.8952,-6.0024,-6.2588,-6.2963,-6.4004,-6.6601,-6.6894,-6.6621,-6.5918,-6.5703,-6.5234,-6.4355,-6.4805,-6.5254,-6.5586,-6.6269,-6.6677,-6.6733,-6.6705,-6.6668,-6.659,-6.659,-6.6579,-6.6563,-6.6647,-6.6681,-6.6684,-6.6806,-6.6854,-6.6854,-6.6894,-6.6894,-6.6894,-6.6894,-6.6894,-6.6875,-6.6719,-6.664,-6.6621,-6.6465,-6.5957,-6.5351,-6.5351,-6.4883,-6.4277,-6.4101,-6.4043,0.0,0.0,0.0,0.0,0.0,0.0,0.0,0.0,0.0,0.0,0.0,0.0,0.0,0.0,0.0,0.0,0.0,0.0,0.0,-6.5341,-6.6167,-6.6807,-6.681,-6.675,-6.6702,-6.6692,-6.7311,-6.7739,-6.7739,-6.8534,-6.938,-7.013,-7.0355,-7.0764,-7.1465,-7.166,-7.1758,-7.1758,-7.1914,-7.1992,-7.1992,-7.1992,-7.1992,-7.1992,0.0,0.0,-7.1992,-7.1992,-7.1914,-7.1719,-7.1015,-7.0527,-7.0117,-6.8769,-6.7695,-6.6894,-6.6894,-6.6369,-6.5582,-6.5375,-6.4642,-6.3624,-6.1042,-6.0945,-6.0672,-5.9795,-6.001,-6.0146,-5.9717,-6.008,-6.0998,-6.2679,-6.2962,-6.3652,-6.541,-6.5215,-6.4765,-6.4336,-6.3906,-6.3828,-6.4277,-6.4707,-6.5332,-6.6211,-6.668,-6.6874,-6.6806,-6.6731,-6.6668,-6.659,-6.6534,-6.6504,-6.6504,-6.6605,-6.6668,-6.67,-6.6833,-6.6894,-6.6894,-6.6894,-6.6894,-6.6894,-6.6894,-6.6894,-6.6894,-6.6894,-6.6894,-6.6894,-6.6894,-6.6621,-6.625,-6.625,-6.5957,-6.5527,-6.5098,-6.4941,-6.4609,0.0,0.0,0.0,0.0,0.0,0.0,0.0,0.0,0.0,0.0,0.0,0.0,0.0,0.0,-6.443,-6.4877,0.0,-6.5738,-6.6145,-6.6546,-6.6781,-6.6759,-6.7097,-6.735,-6.735,-6.772,-6.8173,-6.8602,-6.944,-7.0171,-7.0657,-7.1072,-7.1503,-7.1972,-7.1992,-7.1992,-7.1992,-7.1992,-7.1992,-7.1992,-7.1992,-7.1992,-7.1992,-7.1992,-7.1992,-7.1992,-7.1992,-7.1992,-7.1972,-7.1543,-7.1094,-7.0566,-6.8887,-6.7949,-6.75,-6.7006,-6.6455,-6.5947,-6.5884,-6.5207,-6.43,-6.1607,-6.1607,-6.1373,-6.0672,-6.112,-6.1354,-6.0653,-6.1185,-6.1966,-6.2794,-6.296,-6.334,-6.4199,-6.3672,-6.3183,-6.3008,-6.2519,-6.2793,-6.4219,-6.4629,-6.543,-6.6836,-6.6894,-6.6894,-6.6894,-6.6752,-6.665,-6.659,-6.6436,-6.638,-6.6392,-6.6522,-6.6618,-6.67,-6.683,-6.6894,-6.6894,-6.6894,-6.6894,-6.6894,-6.6894,-6.6894,-6.6894,-6.6894,-6.6894,-6.6894,-6.6894,-6.6894,-6.6894,-6.6894,-6.6894,-6.6777,-6.6074,-6.5742,-6.5156,-6.2871,-6.2969,0.0,0.0,0.0,0.0,0.0,0.0,0.0,0.0,-6.3629,-6.3744,-6.4616,-6.4796,-6.4993,-6.5712,-6.5836,-6.6049,-6.6697,-6.6809,-6.6831,-6.6931,-6.7555,-6.8129,-6.8465,-6.8504,-6.8777,-6.9484,-7.0336,-7.0849,-7.093,-7.1538,-7.193,-7.1992,-7.1992,-7.1992,-7.1992,-7.1991,-7.199,-7.1992,-7.199,-7.199,-7.1992,-7.1992,-7.1992,-7.1992,-7.1992,-7.1992,-7.1992,-7.1992,-7.1504,-7.0586,-6.9062,-6.834,-6.8105,-6.7061,-6.6647,-6.6579,-6.645,-6.5898,-6.519,-6.1607,-6.1607,-6.1568,-6.1471,-6.1549,-6.1568,-6.1471,-6.1534,-6.1924,-6.2791,-6.295,-6.3335,-6.4199,-6.4219,-6.3848,-6.3066,-6.3613,-6.4082,-6.4297,-6.5742,-6.6699,-6.6894,-6.6894,-6.6894,-6.6894,-6.6714,-6.6605,-6.659,-6.634,-6.6272,-6.6392,-6.6478,-6.659,-6.67,-6.6781,-6.6833,-6.6894,-6.6894,-6.6894,-6.6894,-6.6894,-6.6894,-6.6894,-6.6894,-6.6894,-6.6894,-6.6894,-6.6894,-6.6894,-6.6894,-6.6894,-6.6875,-6.6797,-6.6211,-6.539,-6.4316,-6.3047,-6.1758,-6.0683,-6.1172,-6.2344,-6.3789,-6.4159,-6.4568,0.0,-6.5854,-6.5535,-6.6346,-6.6522,-6.6563,-6.6727,-6.6704,-6.6701,-6.6782,-6.68,-6.7039,-6.7755,-6.7945,-6.8563,-7.0122,-7.0316,-7.0355,-7.0453,-7.1193,-7.1687,-7.177,-7.1851,-7.193,-7.1992,-7.1991,-7.2009,-7.2009,-7.2009,-7.2009,-7.2009,-7.2009,-7.2009,-7.2009,-7.2005,-7.2005,-7.2009,-7.2005,-7.2008,-7.1992,-7.1992,-7.1504,-7.0625,-6.9667,-6.8847,-6.8085,-6.697,-6.6546,-6.6579,-6.645,-6.6258,-6.5857,-6.1607,-6.1607,-6.1607,-6.1607,-6.1607,-6.1607,-6.1607,-6.1608,-6.1745,-6.2145,-6.2226,-6.2377,-6.2754,-6.2324,-6.1875,-6.1523,-6.2754,-6.3769,-6.4277,-6.5937,-6.6894,-6.6894,-6.6894,-6.6894,-6.6894,-6.6707,-6.6535,-6.6423,-6.6195,-6.6126,-6.6242,-6.6326,-6.647,-6.6658,-6.6753,-6.6821,-6.6832,-6.6832,-6.6854,-6.6894,-6.6894,-6.6894,-6.6894,-6.6894,-6.6582,-6.6133,-6.6133,-6.6133,0.0,-6.6133,-6.6133,-6.6133,-6.6133,-6.5898,-6.5234,-6.334,-6.2988,-6.3242,-6.3398,-6.332,-6.3515,-6.4745,-6.5058,-6.5252,-6.5986,-6.5867,-6.5826,-6.6631,-6.6832,-6.6857,-6.683,-6.6844,-6.6846,-6.6805,-6.6805,-6.7085,-6.7883,-6.8436,-6.9221,-7.0458,-7.0998,-7.1291,-7.1291,-7.1602,-7.1823,-7.1887,-7.1909,-7.1928,-7.1991,-7.199,-7.2008,-7.2004,-7.2001,-7.2001,-7.2004,-7.2001,-7.2001,-7.2004,-7.2002,-7.2002,-7.2004,-7.2002,-7.2005,-7.1991,-7.1991,-7.1796,-7.1347,-6.9979,-6.9197,-6.875,-6.7205,-6.6583,-6.6459,-6.5809,-6.5548,-6.5334,-6.1607,-6.1607,-6.1607,-6.1607,-6.1607,-6.1607,-6.1607,-6.1599,-6.1615,-6.1666,-6.1692,-6.169,-6.1699,-6.1133,-6.0762,-6.0762,-6.2129,-6.3379,-6.4238,-6.5703,-6.664,-6.6855,-6.6874,-6.6852,-6.6785,-6.6603,-6.6444,-6.6296,-6.6109,-6.6107,-6.6239,-6.6338,-6.6471,-6.6657,-6.6766,-6.68,-6.6799,-6.6799,-6.6828,-6.6874,-6.6874,-6.6874,-6.6875,-6.6621,-6.6152,-6.5605,-6.5605,-6.5449,-6.5234,-6.5234,-6.5234,-6.5234,-6.5234,-6.5078,-6.4512,-6.2617,-6.2617,-6.3418,-6.4297,-6.4238,-6.4218,-6.531,-6.5779,-6.5933,-6.5941,-6.5938,-6.6094,-6.6692,-6.6852,-6.6856,-6.683,-6.6845,-6.6868,-6.6826,-6.6813,-6.7178,-6.8245,-6.8913,-6.9712,-7.0834,-7.1457,-7.1797,-7.1797,-7.1797,-7.1823,-7.1901,-7.1906,-7.1926,-7.2006,-7.2007,-7.2004,-7.1998,-7.1991,-7.201,-7.1996,-7.1991,-7.1991,-7.1996,-7.1994,-7.1994,-7.1996,-7.1999,-7.2004,-7.2009,-7.2009,-7.1991,-7.1855,-7.0115,-6.9391,-6.9217,-6.7419,-6.6648,-6.6393,-6.5145,-6.4802,-6.4831,-6.1607,-6.1607,-6.1607,-6.1607,-6.1607,-6.1607,-6.1607,-6.1607,-6.161,-6.1591,-6.1666,-6.1697,-6.1699,-6.168,-6.166,-6.166,-6.248,-6.3379,-6.4238,-6.5137,-6.5995,-6.6767,-6.6806,-6.6702,-6.6512,-6.638,-6.6314,-6.6295,-6.6167,-6.6265,-6.6579,-6.6587,-6.6659,-6.6792,-6.6801,-6.6808,-6.6798,-6.6798,-6.6791,-6.6806,-6.6806,-6.6832,-6.6816,-6.5957,-6.5625,-6.5605,-6.5605,-6.5058,-6.4336,-6.4336,-6.4336,-6.4336,-6.4336,-6.3769,-6.3066,-6.2988,-6.1797,-6.0703,-6.1582,-6.2421,-6.3454,-6.5173,-6.6181,-6.6776,-6.6842,-6.6813,-6.6785,-6.688,-6.6852,-6.6826,-6.6889,-6.6857,-6.6813,-6.6894,-6.6842,-6.739,-6.9124,-6.9321,-6.9939,-7.1655,-7.1809,-7.1797,-7.1797,-7.1797,-7.1833,-7.1881,-7.1901,-7.1922,-7.1999,-7.2001,-7.1996,-7.2006,-7.2006,-7.2006,-7.2006,-7.2006,-7.2006,-7.2006,-7.1995,-7.1995,-7.2006,-7.1996,-7.2004,-7.2009,-7.2009,-7.1991,-7.1855,-7.0112,-6.9407,-6.9217,-6.7402,-6.669,-6.6451,-6.4532,-6.4322,-6.4754,-6.1607,-6.1607,-6.1607,-6.1607,-6.1607,-6.1607,-6.1607,-6.1607,-6.1606,-6.1591,-6.1659,0.0,0.0,0.0,0.0,0.0,-6.25,-6.3125,-6.3418,-6.4783,-6.5716,-6.5985,-6.6522,-6.67,-6.6503,-6.6374,-6.6187,-6.5973,-6.5827,-6.5939,-6.6265,-6.6278,-6.6429,-6.672,-6.6726,-6.6763,-6.6805,-6.6805,-6.6795,-6.6806,-6.6806,-6.648,-6.6015,-6.5703,-6.4883,-6.3867,0.0,-6.3691,-6.3437,-6.3437,-6.3437,-6.3437,-6.3437,-6.3242,-6.289,-6.2305,-6.1719,-6.1582,-6.3026,-6.406,-6.4996,-6.612,-6.6626,-6.6859,-6.685,-6.6826,-6.6809,-6.6834,-6.5934,-6.5151,-6.516,-6.5164,-6.5146,-6.5166,-6.6123,-6.7469,-6.9161,-6.9382,-7.0004,-7.1702,-7.1881,-7.1867,-7.1867,-7.1867,-7.1874,-7.1901,-7.1934,-7.1987,-7.1999,-7.1994,-7.2006,-7.1995,-7.1995,-7.1995,-7.1995,-7.1995,-7.1995,-7.1995,-7.2009,-7.199,-7.1995,-7.2,-7.1991,-7.2003,-7.2003,-7.2009,-7.1855,-7.0112,-6.9405,-6.9211,-6.7469,-6.6737,-6.6551,-6.5262,-6.4907,-6.4726,0.0,-6.1607,-6.1607,-6.1607,-6.1607,0.0,0.0,0.0,0.0,0.0,0.0,0.0,0.0,0.0,0.0,0.0,0.0,-6.2538,-6.2538,-6.3857,-6.4646,-6.464,-6.5426,-6.5765,-6.5542,-6.5382,-6.5188,-6.4979,-6.5128,-6.5351,-6.5644,-6.5953,-6.6286,-6.6587,-6.6587,-6.6652,-6.672,-6.6096,-6.604,-6.628,-6.5663,-6.5304,-6.5097,-6.4785,-6.3984,0.0,-6.2656,-6.2539,-6.2539,-6.2539,-6.2539,-6.2539,-6.2539,-6.2539,-6.2422,-6.1855,-6.1699,-6.207,-6.3826,-6.4703,-6.5402,-6.6522,-6.6834,-6.6854,-6.6805,-6.6807,-6.6813,-6.682,-6.5473,-6.4301,-6.4306,-6.429,-6.4096,-6.3468,-6.5093,-6.6929,-6.8311,-6.8755,-6.9679,-7.1702,-7.1904,-7.1893,-7.1905,-7.1916,-7.193,-7.1948,-7.1976,-7.2004,-7.1991,-7.2008,-7.2,-7.2007,-7.1993,-7.1993,-7.2007,-7.1993,-7.1995,-7.1995,-7.2,-7.2004,-7.2008,-7.2004,-7.1993,-7.2006,-7.2004,-7.2009,-7.1855,-7.0112,-6.9403,-6.9226,-6.749,-6.6761,-6.6621,-6.5682,-6.5273,-6.4908,0.0,0.0,-6.1607,0.0,0.0,0.0,0.0,0.0,0.0,0.0,0.0,0.0,0.0,0.0,0.0,0.0,0.0,0.0,-6.1631,-6.2336,-6.2781,-6.2831,-6.3666,-6.4028,-6.3801,-6.3608,-6.3507,-6.3497,-6.4135,-6.4563,-6.4764,-6.5606,-6.6097,-6.6283,-6.6283,-6.6368,-6.64,-6.4783,-6.4562,-6.5172,-6.3603,-6.3453,-6.4074,-6.33,-6.2969,-6.2832,-6.1992,-6.1699,-6.1699,-6.1699,-6.1738,-6.1777,-6.1816,-6.1797,-6.1777,-6.1816,-6.1836,-6.2207,-6.3904,-6.4407,-6.4812,-6.6403,-6.6805,-6.68,-6.6809,-6.6791,-6.6797,-6.6772,-6.5384,-6.4133,-6.4043,-6.4118,-6.3626,-6.1972,-6.3925,-6.5995,-6.6894,-6.7691,-6.9129,-7.1687,-7.1946,-7.1906,-7.1911,-7.1953,-7.2002,-7.199,0.0,-7.2009,-7.2009,-7.2,-7.2002,-7.199,-7.2,-7.2002,-7.2009,-7.2002,-7.2006,-7.2006,-7.1996,-7.2003,-7.2009,-7.2003,-7.2006,-7.1992,-7.199,-7.1991,-7.1855,-7.0112,-6.9403,-6.9226,-6.749,-6.6802,-6.6698,-6.58,-6.5462,-6.5312,0.0,0.0,0.0,0.0,0.0,0.0,0.0,0.0,0.0,0.0,0.0,0.0,0.0,0.0,0.0,0.0,0.0,0.0,-6.0735,-6.0888,-6.1257,-6.1891,-6.2777,-6.3417,-6.3782,-6.3744,-6.3654,-6.3497,-6.3678,-6.3855,-6.405,-6.4283,-6.4484,-6.4697,-6.4697,-6.4382,-6.3887,-6.4023,-6.3542,-6.2744,-6.3533,-6.3264,-6.2402,-6.2832,-6.2598,-6.1992,-6.1777,-6.1699,-6.1699,-6.1699,-6.2129,-6.2773,-6.3437,-6.3183,-6.2793,-6.3457,-6.3633,-6.3886,-6.4975,-6.5732,-6.6333,-6.6707,-6.6798,-6.68,-6.6809,-6.6807,-6.6457,-6.523,-6.3584,-6.1977,-6.072,-6.1521,-6.2223,-6.1772,-6.4449,-6.7087,-6.8553,-6.8943,-6.9799,-7.1766,-7.1977,-7.1971,-7.1978,-7.1995,-7.2,-7.1993,-7.1994,-7.1994,-7.1994,-7.2008,-7.2008,-7.1993,-7.2008,-7.2008,-7.1994,-7.1996,-7.1998,-7.1998,-7.1999,-7.2001,-7.2003,-7.2001,-7.2004,-7.199,-7.2009,-7.1991,-7.1855,-7.0112,-6.9403,-6.9226,-6.749,-6.6798,-6.677,-6.6484,-6.6376,-6.6325,0.0,0.0,0.0,0.0,0.0,0.0,0.0,0.0,0.0,0.0,0.0,0.0,0.0,0.0,0.0,0.0,0.0,0.0,0.0,-6.0675,-6.0925,-6.1023,-6.1855,-6.2493,-6.2827,-6.2749,-6.2649,-6.2532,-6.281,-6.2983,-6.3109,-6.3488,-6.3779,-6.3961,-6.3961,-6.3781,-6.338,-6.2718,-6.2126,0.0,0.0,-6.1639,-6.1224,-6.2109,-6.2129,-6.1699,-6.1699,-6.1953,-6.2324,-6.2715,-6.3164,-6.3652,-6.414,-6.3965,-6.373,-6.4609,-6.4863,-6.5058,-6.593,-6.6531,-6.688,-6.6822,-6.6795,-6.6702,-6.6346,-6.5975,-6.5333,-6.4001,-6.2066,-6.0327,-5.9374,-6.0566,-6.1464,-6.072,-6.3825,-6.6795,-6.8124,-6.8631,-6.9646,-7.1754,-7.2008,-7.2006,-7.2001,-7.1994,-7.1994,-7.1999,-7.1996,-7.1996,-7.1999,-7.1996,-7.1994,-7.1999,-7.1999,-7.2001,-7.2004,-7.2004,-7.2004,-7.2004,-7.2007,-7.2008,-7.2008,-7.2008,-7.2009,-7.1991,0.0,-7.1776,-7.1327,-6.9955,-6.9168,-6.8694,-6.7332,-6.6795,-6.6802,-6.6754,-6.6758,-6.6776,0.0,0.0,0.0,0.0,0.0,0.0,0.0,0.0,0.0,0.0,-6.1939,-6.1875,-6.1875,-6.1777,0.0,0.0,0.0,0.0,0.0,0.0,-6.0964,-6.0321,-6.1023,-6.1471,-6.1607,-6.1433,-6.1337,-6.1337,-6.1868,-6.212,-6.2139,-6.2886,-6.3333,-6.3519,-6.3519,-6.3534,-6.3458,-6.1354,-6.0774,-6.1158,-5.9943,-5.9829,-6.0499,0.0,-6.1621,-6.1504,-6.1406,-6.1992,-6.2949,-6.3691,-6.4199,-6.4492,-6.4609,-6.4648,-6.4785,-6.5547,-6.5762,-6.5937,-6.6692,-6.6904,-6.688,-6.6824,-6.6798,-6.6588,-6.5786,-6.4929,-6.3995,-6.2871,-6.0801,-5.9121,-5.8906,-6.0234,-6.0976,-5.9726,-6.285,-6.5819,-6.6914,-6.7811,-6.9237,-7.1543,-7.1933,-7.1992,-7.2009,-7.2009,-7.2007,-7.2002,-7.1996,-7.1994,-7.2001,-7.2002,-7.2002,-7.2002,-7.2007,-7.199,-7.199,-7.199,-7.199,-7.199,-7.1992,-7.1992,-7.1992,-7.1992,-7.1992,-7.1992,0.0,0.0,-7.0622,-6.9757,-6.8891,-6.8002,-6.7132,-6.6798,-6.68,-6.6811,-6.6859,-6.6889,0.0,0.0,0.0,0.0,0.0,0.0,0.0,0.0,0.0,0.0,-6.3228,-6.2766,0.0,0.0,0.0,0.0,0.0,0.0,0.0,0.0,0.0,-6.0282,-6.0438,-6.0867,-6.1588,-6.1573,-6.1544,-6.1544,-6.1659,-6.1707,-6.1707,-6.1857,-6.1946,-6.1987,-6.1987,-6.1607,-6.0984,-6.1257,-6.0655,-5.9638,-6.079,-6.0911,-6.0496,-6.1366,0.0,0.0,-5.9863,-6.0625,-6.1953,-6.2109,-6.3594,-6.5508,-6.6211,-6.6445,-6.6484,-6.6621,-6.668,-6.6719,-6.6853,-6.6907,-6.6881,-6.6813,-6.6802,-6.6588,-6.5786,-6.4921,-6.363,-6.1327,-5.994,-5.8687,-5.7304,-5.8476,-5.998,-6.1092,-6.3105,-6.5332,-6.7655,-6.871,-6.9687,-7.0781,-7.1562,-7.1992,-7.2009,-7.2009,-7.2009,-7.2008,-7.2007,-7.2007,-7.2008,-7.2008,-7.2008,-7.2008,-7.1991,-7.1992,-7.1992,-7.1992,-7.1992,-7.1992,-7.1992,-7.1992,-7.1992,-7.1992,-7.1992,-7.1992,-7.1992,0.0,-7.0622,-6.9757,-6.8891,-6.8002,-6.7132,-6.6802,-6.6811,-6.6859,-6.6887,-6.6892,0.0,0.0,0.0,0.0,0.0,0.0,-6.2769,-6.3316,-6.3941,-6.486,-6.4216,-6.367,-6.3672,-6.289,-6.2382,0.0,0.0,0.0,0.0,0.0,0.0,-6.0964,-6.0536,-6.0497,-6.0906,-6.0477,-6.0243,-6.0243,0.0,-6.0925,-6.0925,-6.1393,-6.1607,-6.1607,-6.1607,-6.1373,-6.0964,-6.0945,-6.0465,-5.9804,-6.0676,-6.0503,-5.9816,0.0,0.0,0.0,-5.9961,-6.0625,-6.1699,-6.1699,-6.2832,-6.4394,-6.5273,-6.5547,-6.5547,-6.5547,-6.5879,-6.6211,-6.6228,-6.6558,-6.6887,-6.6815,-6.6809,-6.6358,-6.4649,-6.3574,-6.221,-5.9627,-5.8417,-5.7557,-5.6758,-5.8027,-5.9453,-6.0273,-6.2597,-6.4902,-6.6601,-6.7987,-6.9296,-7.0547,-7.1074,-7.1504,-7.1953,-7.1991,-7.1991,-7.1991,-7.1991,-7.1991,-7.1991,-7.1991,-7.1991,-7.1991,-7.1992,-7.1992,-7.1992,-7.1992,-7.1992,-7.1992,-7.1992,-7.1992,-7.1992,-7.1992,-7.1992,-7.1972,-7.1523,0.0,-6.9955,-6.9088,-6.8201,-6.7371,-6.6961,-6.6807,-6.6813,-6.6885,-6.691,-6.6892,0.0,0.0,0.0,0.0,0.0,0.0,-6.2769,-6.3691,-6.4545,-6.5234,-6.5058,-6.4785,-6.4609,-6.3633,-6.3085,0.0,0.0,0.0,0.0,0.0,0.0,0.0,0.0,0.0,-6.001,0.0,0.0,-5.8996,-5.9698,0.0,0.0,0.0,0.0,0.0,-6.151,-6.1607,-6.1529,-6.0666,-6.0301,0.0,0.0,-5.9706,-5.9152,0.0,0.0,0.0,0.0,-6.0547,-6.1406,-6.1211,-6.1738,-6.2539,-6.3047,-6.3574,-6.4023,-6.4023,-6.4512,-6.5078,-6.5272,-6.5818,-6.6324,-6.6275,-6.6268,-6.5641,-6.3263,-6.2055,-6.0751,-5.8396,-5.7206,-5.6601,-5.6601,-5.7715,-5.8769,-5.914,-6.1444,-6.3709,-6.5117,-6.6659,-6.8338,-7.0215,-7.0605,-7.1035,-7.1914,-7.1992,-7.1992,-7.1992,-7.1992,-7.1992,-7.1992,-7.1992,-7.1992,-7.1992,-7.1992,-7.1992,-7.1992,-7.1992,-7.1992,-7.1992,-7.1992,-7.1992,-7.1992,-7.1992,-7.1992,-7.1953,-7.1073,0.0,0.0,-6.8457,-6.7588,-6.6798,-6.6809,-6.6813,-6.6836,-6.6889,-6.6892,-6.6893,0.0,0.0,0.0,0.0,0.0,0.0,-6.2769,-6.3691,-6.433,-6.4414,-6.5723,-6.6367,-6.5566,-6.4004,-6.332,0.0,0.0,0.0,0.0,0.0,0.0,0.0,0.0,0.0,0.0,0.0,0.0,-5.8996,-5.9074,0.0,0.0,0.0,0.0,0.0,0.0,-6.1607,-6.1534,-6.0676,0.0,0.0,0.0,0.0,0.0,0.0,0.0,0.0,0.0,-5.916,-6.041,-5.9687,-5.9961,-6.0527,-5.9863,-6.1269,-6.3125,-6.3125,-6.3183,-6.3418,-6.4199,-6.4472,-6.4548,-6.4527,-6.454,-6.4044,-6.222,-6.1142,-6.0026,-5.8261,-5.7206,-5.66,-5.6601,-5.6738,-5.7363,-5.8945,-5.9452,-6.078,-6.3965,-6.5234,-6.6776,-6.9316,-7.0254,-7.1035,-7.1914,-7.1992,-7.1992,-7.1992,-7.1992,-7.1992,-7.1992,-7.1992,-7.1992,-7.1992,-7.1992,-7.1992,-7.1992,-7.1992,-7.1992,-7.1992,-7.1992,-7.1992,-7.1992,-7.1992,-7.1992,-7.1953,-7.1073,0.0,0.0,-6.8457,-6.7588,-6.6798,-6.6809,-6.6836,-6.6884,-6.691,-6.6893,-6.6894,0.0,0.0,0.0,0.0,0.0,0.0,-6.3535,-6.4056,-6.4686,-6.5722,-6.6015,-6.6191,-6.6367,-6.5293,-6.4707,-6.5058,-6.3736,0.0,0.0,0.0,0.0,0.0,0.0,0.0,0.0,0.0,-5.7501,-5.7501,-5.7988,0.0,0.0,0.0,0.0,0.0,0.0,-6.0066,-6.0071,-5.9716,0.0,0.0,0.0,0.0,0.0,0.0,0.0,0.0,0.0,0.0,-5.9551,-5.8691,-5.8633,-5.875,-5.789,-5.8691,-6.0137,-6.1133,-6.1816,-6.2402,-6.3281,-6.3906,-6.4296,-6.4294,-6.3508,-6.2273,-6.0535,-5.9481,-5.8408,-5.6696,-5.6483,-5.6601,-5.6601,-5.6172,-5.6211,-5.7441,-5.8085,-5.9081,-6.0957,-6.33,-6.539,-6.6972,-6.8789,-7.0254,-7.1133,-7.1699,-7.1992,-7.1992,-7.1992,0.0,-7.1992,-7.1992,-7.1992,-7.1992,-7.1992,-7.1992,-7.1992,-7.1992,-7.1992,-7.1992,-7.1992,-7.1992,-7.1992,-7.1992,-7.1718,-7.1171,-7.0308,0.0,0.0,-6.7687,-6.7117,-6.6807,-6.6836,-6.6884,-6.6909,-6.6893,-6.6894,-6.6894,0.0,0.0,0.0,0.0,0.0,-6.2197,-6.3682,-6.4139,-6.4746,-6.5976,-6.6055,-6.6113,-6.6484,-6.6191,-6.5976,-6.5976,-6.4322,0.0,0.0,0.0,0.0,0.0,0.0,0.0,0.0,0.0,-5.6507,-5.6507,-5.7072,-5.7345,0.0,0.0,-5.8635,-5.8667,0.0,0.0,0.0,0.0,0.0,0.0,0.0,0.0,0.0,0.0,0.0,0.0,0.0,0.0,0.0,0.0,0.0,-5.7754,-5.6875,-5.7012,-5.7793,-5.9238,-6.0273,-6.1152,-6.1992,-6.2871,-6.3535,-6.3534,-6.2222,-6.0557,-5.9071,-5.7918,-5.6709,-5.5227,-5.5407,-5.5839,-5.5839,-5.533,-5.5193,-5.6074,-5.6737,-5.7615,-5.9004,-6.1269,-6.33,-6.4668,-6.664,-6.8437,-6.9824,-7.1191,-7.1992,-7.1992,-7.1992,0.0,-7.1992,-7.1992,-7.1992,-7.1992,-7.1992,-7.1992,-7.1992,-7.1992,-7.1992,-7.1992,-7.1992,-7.1855,-7.1621,-7.1621,-7.1132,-7.0269,0.0,0.0,0.0,-6.7158,-6.6807,-6.6836,-6.6884,-6.6908,-6.6892,-6.6894,-6.6894,-6.6894,0.0,0.0,0.0,0.0,0.0,-6.2002,-6.2881,-6.3748,-6.4316,-6.4316,-6.582,-6.6562,-6.5703,-6.6387,-6.6894,-6.6894,-6.522,0.0,0.0,0.0,0.0,0.0,0.0,0.0,-5.6507,-5.6507,-5.6507,-5.6507,-5.6507,-5.6507,-5.6526,-5.7345,-5.7755,-5.7847,0.0,0.0,0.0,0.0,0.0,0.0,0.0,0.0,-5.6601,0.0,0.0,0.0,0.0,0.0,0.0,0.0,0.0,0.0,0.0,-5.6601,-5.6797,-5.7676,-5.8535,-5.9394,-6.0215,-6.1055,-6.1738,-6.1738,-6.0427,-5.8919,-5.8103,-5.6574,-5.5082,-5.4191,-5.4016,-5.4036,-5.4036,-5.4016,-5.4291,-5.5174,-5.5328,-5.6226,-5.8828,-5.9238,-6.0194,-6.2734,-6.3808,-6.5371,-6.7969,-7.0508,-7.1992,-7.1992,-7.1992,0.0,-7.1992,-7.1992,-7.1992,-7.1992,-7.1992,-7.1992,-7.1992,-7.1992,-7.1992,-7.1992,-7.1992,-7.1542,-7.07,-7.07,-7.0249,0.0,0.0,0.0,0.0,-6.7168,-6.6836,-6.6904,-6.691,-6.6892,-6.6892,-6.6894,-6.6894,-6.6894,0.0,0.0,0.0,0.0,0.0,0.0,-6.3761,-6.4622,-6.5405,-6.5991,-6.6558,-6.6578,-6.5702,-6.6385,-6.6659,-6.6055,-6.4908,0.0,0.0,0.0,0.0,0.0,0.0,0.0,-5.6507,-5.6507,-5.6507,-5.6507,-5.6507,-5.6507,-5.6507,-5.676,-5.6898,-5.6911,-5.7203,-5.735,0.0,-5.7098,0.0,0.0,0.0,-5.6601,-5.6601,0.0,0.0,0.0,0.0,0.0,0.0,0.0,0.0,0.0,0.0,0.0,0.0,-5.6035,-5.7168,-5.8242,-5.7909,-5.8437,-5.8965,-5.8357,-5.6909,-5.5558,-5.5283,-5.4342,-5.3442,-5.317,-5.3583,-5.3997,-5.3997,-5.3505,-5.3406,-5.4272,-5.4408,-5.4916,-5.6327,-5.9062,-6.1211,-6.2012,-6.498,-6.7734,-6.9726,-7.0644,-7.1367,-7.1953,0.0,0.0,-7.1992,-7.1992,-7.1992,-7.1992,-7.1992,-7.1992,-7.1992,-7.1992,-7.1992,-7.1992,-7.1405,-7.0975,-7.0681,-7.0072,0.0,0.0,0.0,0.0,0.0,-6.6979,-6.6884,-6.6909,-6.6891,-6.6893,-6.6894,-6.6894,-6.6894,-6.6816,0.0,0.0,0.0,0.0,0.0,0.0,-6.4171,-6.5049,-6.5906,-6.6787,-6.6904,-6.6574,-6.57,-6.6072,-6.6053,-6.5195,-6.4267,0.0,0.0,0.0,0.0,0.0,0.0,0.0,-5.6507,-5.6507,-5.6351,-5.6015,-5.6015,-5.6004,-5.6001,-5.6001,-5.6205,-5.6538,-5.6538,-5.6557,0.0,-5.6598,0.0,0.0,-5.6601,-5.6601,-5.6601,0.0,0.0,0.0,0.0,0.0,0.0,0.0,0.0,0.0,0.0,0.0,0.0,0.0,-5.5586,-5.6387,-5.6171,-5.6757,-5.7284,-5.6735,-5.5285,-5.3992,-5.4009,-5.3068,-5.2205,-5.2205,-5.2638,-5.3013,-5.3013,-5.258,-5.2482,-5.3367,-5.3781,-5.4526,-5.6072,-5.8867,-6.1113,-6.207,-6.5176,-6.7754,-6.9121,-6.9844,-7.0429,-7.0976,0.0,0.0,-7.1014,-7.1014,-7.1014,-7.1014,-7.166,-7.1836,-7.1503,-7.1503,-7.1347,-7.1014,-7.0465,-7.0034,-6.9702,-6.9152,0.0,0.0,0.0,0.0,0.0,-6.6907,-6.689,-6.6893,-6.6893,-6.6894,-6.6894,-6.6894,-6.6699,-6.6328,0.0,0.0,0.0,0.0,0.0,0.0,0.0,-6.5125,-6.5983,-6.6784,-6.6881,-6.6553,-6.5699,-6.5661,-6.531,-6.4375,-6.3551,0.0,0.0,0.0,0.0,0.0,0.0,-5.6507,-5.6507,-5.6507,-5.6093,-5.529,-5.5236,-5.5241,-5.5295,-5.524,-5.5699,-5.6593,-5.6593,-5.6598,-5.6601,-5.6601,-5.6601,-5.6601,-5.6601,-5.6601,0.0,0.0,0.0,0.0,0.0,0.0,0.0,0.0,0.0,0.0,0.0,0.0,0.0,0.0,0.0,0.0,0.0,-5.5664,-5.6307,-5.6248,-5.5012,-5.3813,-5.3811,-5.2555,0.0,-5.1394,-5.1394,-5.1394,-5.1394,-5.1394,-5.1671,-5.2482,-5.3389,-5.4879,-5.7421,-5.8808,-6.0429,-6.2793,-6.4629,-6.5976,-6.6738,-6.832,-6.9336,0.0,0.0,0.0,-6.9405,-6.9403,-6.9403,-6.9405,-7.0975,-7.1425,-7.0622,-7.0603,-7.019,-6.9405,-6.9345,-6.8896,-6.8114,-6.8036,0.0,0.0,0.0,0.0,0.0,-6.6892,-6.6893,-6.6894,-6.6894,-6.6894,-6.6894,-6.6894,-6.6347,-6.5584,0.0,0.0,0.0,0.0,0.0,0.0,0.0,0.0,0.0,0.0,-6.6824,-6.6518,-6.5693,-6.6202,-6.5972,0.0,0.0,0.0,0.0,0.0,0.0,0.0,-5.6838,-5.6507,-5.6507,-5.6507,-5.6409,-5.6191,-5.5537,-5.5535,-5.6173,-5.5513,-5.5695,-5.6593,-5.6593,-5.6598,-5.6601,-5.6601,-5.6601,-5.6601,-5.6601,-5.6601,0.0,0.0,0.0,0.0,-5.6601,-5.6601,0.0,0.0,0.0,0.0,0.0,0.0,0.0,0.0,-5.2539,-5.2051,-5.2266,0.0,-5.3454,-5.2784,-5.231,-5.2013,0.0,-5.1689,-5.1394,-5.1394,-5.1394,-5.1394,-5.1394,-5.1394,-5.1472,-5.1671,-5.2948,-5.4585,-5.6496,-6.0334,-6.3199,-6.3849,-6.5504,-6.6385,-6.5883,-6.7439,-6.8769,0.0,0.0,-6.9392,-6.939,-6.9406,-6.9406,-6.939,-6.9802,-6.9918,-6.9718,-6.9718,-6.9602,-6.939,-6.8722,-6.8332,-6.814,-6.7492,0.0,0.0,0.0,0.0,-6.6894,-6.6894,-6.6894,-6.6894,-6.6894,-6.6894,-6.6894,-6.6894,-6.6347,-6.5505,0.0,0.0,0.0,0.0,0.0,0.0,0.0,0.0,0.0,0.0,-6.6795,-6.649,-6.5686,-6.6022,-6.5599,0.0,0.0,0.0,0.0,0.0,0.0,-5.7792,-5.695,-5.6494,-5.6496,-5.6492,-5.6301,-5.5892,-5.5422,-5.5463,-5.594,-5.5462,-5.573,-5.6599,-5.6599,-5.66,-5.6601,-5.6601,-5.6601,-5.6601,-5.6601,0.0,0.0,0.0,0.0,0.0,-5.6601,-5.6601,0.0,-5.6601,-5.6601,-5.6445,0.0,0.0,0.0,0.0,-5.207,-5.1406,-5.1406,-5.1738,-5.199,-5.1513,-5.1391,-5.1407,-5.1396,-5.1394,-5.1394,-5.1394,-5.1394,-5.1394,-5.1394,-5.2058,-5.2337,-5.1532,-5.412,-5.6839,-5.8549,-6.1158,-6.3249,-6.4148,-6.507,-6.5794,0.0,-6.703,0.0,0.0,0.0,-6.8258,-6.8256,-6.8252,-6.8252,-6.8256,-6.8256,-6.8431,-6.8842,-6.8842,-6.8646,-6.8256,-6.7764,-6.7571,-6.7595,-6.7124,-6.689,0.0,0.0,0.0,-6.6894,-6.6894,-6.6894,-6.6894,-6.6894,-6.6894,-6.6855,-6.6445,-6.5741,-6.4877,0.0,0.0,0.0,0.0,0.0,0.0,0.0,0.0,0.0,0.0,0.0,0.0,0.0,0.0,0.0,0.0,0.0,0.0,0.0,0.0,0.0,-5.8043,-5.704,-5.6497,-5.6491,-5.6491,-5.614,-5.5399,-5.5132,-5.5177,-5.5481,-5.5229,-5.5642,-5.6601,-5.6601,-5.6601,-5.6601,-5.6601,-5.6601,-5.6601,-5.6601,0.0,0.0,0.0,0.0,0.0,0.0,0.0,0.0,-5.6601,-5.6504,-5.625,-5.5371,0.0,0.0,0.0,0.0,0.0,-5.1406,-5.1582,-5.1736,-5.1478,-5.1394,-5.1407,-5.1396,-5.1394,-5.1394,-5.1394,-5.1394,-5.1472,-5.1746,-5.2784,-5.3207,-5.1972,-5.5829,-5.9673,-6.1718,-6.2161,-6.2776,-6.4118,-6.4482,0.0,-6.6366,0.0,0.0,0.0,0.0,-6.689,-6.6905,-6.6904,-6.6904,-6.6905,-6.6905,-6.726,-6.7986,-6.8005,-6.7632,-6.6905,-6.6905,-6.6908,-6.6892,-6.6892,-6.6894,0.0,0.0,0.0,-6.6894,-6.6894,-6.6894,-6.6894,-6.6758,-6.6699,-6.6601,-6.5721,-6.4858,-6.3972,0.0,0.0,0.0,0.0,0.0,0.0,0.0,0.0,0.0,0.0,0.0,0.0,0.0,0.0,0.0,0.0,0.0,0.0,0.0,0.0,0.0,-5.8983,-5.7386,-5.6506,-5.6502,-5.6502,-5.6424,-5.6306,-5.488,-5.4948,-5.6378,-5.4881,-5.5058,-5.6601,-5.6601,-5.6601,-5.6601,-5.6601,-5.6601,-5.6601,-5.6601,0.0,0.0,0.0,0.0,0.0,0.0,0.0,0.0,-5.6601,-5.6113,-5.5351,-5.4473,0.0,0.0,0.0,0.0,0.0,-5.1406,-5.248,-5.3242,-5.1772,-5.1394,-5.1407,-5.1396,-5.1394,-5.1394,-5.1394,-5.1394,-5.1843,-5.3327,-5.2607,-5.2187,-5.334,-5.6517,-5.9985,-6.3335,-6.4966,-6.5414,-6.4347,0.0,-6.5993,0.0,0.0,0.0,0.0,0.0,-6.6891,-6.6891,-6.6906,-6.6906,-6.689,-6.6891,-6.6951,-6.7109,-6.7105,-6.7024,-6.6891,-6.6891,-6.6892,-6.6894,-6.6894,-6.6894,0.0,0.0,-6.6894,-6.6894,-6.6894,-6.6894,-6.6836,-6.6093,-6.5799,-6.5682,-6.4819,-6.3952,-6.3066,0.0,0.0,0.0,0.0,0.0,0.0,0.0,0.0,0.0,0.0,0.0,0.0,0.0,0.0,0.0,0.0,0.0,0.0,0.0,-6.0137,-5.9199,-5.9199,-5.7497,-5.6551,-5.6543,-5.6543,-5.6328,-5.584,-5.5554,-5.5326,-5.5193,-5.4863,-5.5371,-5.6601,-5.6601,-5.6601,-5.6601,-5.6601,-5.6601,-5.6601,0.0,0.0,0.0,0.0,0.0,0.0,0.0,0.0,0.0,0.0,-5.5625,-5.5078,-5.3711,0.0,0.0,0.0,0.0,0.0,-5.1406,-5.1973,-5.2636,-5.2771,-5.3511,-5.4211,-5.4204,-5.4203,-5.3948,-5.3006,-5.2789,-5.3042,-5.3854,-5.4101,-5.5347,-5.8846,-5.9104,-6.0087,-6.3647,-6.3975,-6.3951,0.0,0.0,0.0,0.0,0.0,0.0,0.0,0.0,0.0,-6.6894,-6.6893,-6.6893,-6.6894,-6.6851,-6.685,-6.6852,-6.6848,-6.6869,-6.6894,-6.6894,-6.6894,-6.6894,-6.6894,-6.6894,-6.6894,0.0,-6.6894,-6.6894,-6.6894,-6.6621,-6.6152,-6.576,-6.5309,-6.4799,-6.3913,-6.3046,-6.2234,0.0,0.0,0.0,0.0,0.0,0.0,0.0,0.0,0.0,0.0,0.0,0.0,0.0,0.0,0.0,0.0,0.0,0.0,0.0,-6.0019,-5.9101,-5.8906,-5.7422,-5.6601,-5.6597,-5.6597,-5.6265,-5.56,-5.6068,-5.5603,-5.4316,-5.5195,-5.5957,-5.6601,-5.6601,-5.6601,-5.6601,-5.6601,-5.6601,-5.6601,0.0,0.0,0.0,0.0,0.0,0.0,0.0,0.0,0.0,0.0,0.0,0.0,0.0,0.0,0.0,-5.1601,-5.1406,-5.1406,-5.1406,-5.1699,-5.2324,-5.3671,-5.4705,-5.5602,-5.6419,-5.6281,-5.5732,-5.4792,-5.4614,-5.4594,-5.4592,-5.5669,-5.7886,-6.1968,-6.0863,-6.0668,-6.3999,-6.3458,-6.3266,-6.4726,-6.4857,0.0,0.0,0.0,0.0,0.0,0.0,0.0,-6.6894,-6.6894,-6.6894,-6.6894,-6.6831,-6.6806,-6.6806,-6.6802,-6.6827,-6.6874,-6.6894,-6.6894,-6.6894,-6.6894,-6.6894,-6.6894,-6.6894,-6.6777,-6.6601,-6.6601,-6.6073,-6.529,-6.5074,-6.4465,-6.3618,-6.2947,-6.2275,-6.1698,0.0,0.0,0.0,0.0,0.0,0.0,0.0,0.0,0.0,0.0,0.0,0.0,0.0,0.0,0.0,0.0,0.0,0.0,0.0,-5.9687,-5.8848,-5.8027,-5.7109,-5.6601,-5.6601,-5.6601,-5.6562,-5.6504,-5.5762,-5.5332,-5.5234,-5.6094,-5.6543,-5.6601,-5.6601,-5.6601,-5.6601,-5.6601,-5.6601,-5.6601,-5.6601,0.0,0.0,0.0,0.0,0.0,0.0,0.0,0.0,0.0,0.0,0.0,0.0,0.0,-5.1484,-5.1426,-5.1406,-5.1406,-5.1406,-5.2578,-5.3848,-5.3965,-5.2888,-5.263,-5.5852,-5.5341,-5.4616,-5.6105,-5.6414,-5.6396,-5.6328,-5.636,-5.6824,-5.8044,-5.9968,-6.2281,-6.5098,0.0,-6.642,-6.6679,0.0,0.0,0.0,0.0,0.0,0.0,0.0,0.0,-6.6894,0.0,0.0,-6.6894,-6.6831,-6.6806,-6.6806,-6.6809,-6.6791,-6.6807,-6.6874,-6.6894,-6.6894,-6.6894,-6.6894,-6.6894,-6.6894,-6.6445,-6.5682,-6.5682,-6.5172,-6.4306,-6.35,-6.265,-6.1879,-6.1818,-6.1759,-6.1698,0.0,0.0,0.0,0.0,0.0,0.0,0.0,0.0,0.0,0.0,0.0,0.0,0.0,0.0,0.0,0.0,0.0,0.0,-6.1348,-5.9941,-5.8808,-5.7949,-5.707,-5.6601,-5.6601,-5.6601,-5.6074,-5.498,-5.4648,-5.4765,-5.5312,-5.5644,-5.6074,-5.6601,-5.6601,-5.6601,-5.6601,-5.6601,-5.6601,-5.6601,-5.6601,-5.6601,0.0,0.0,0.0,0.0,0.0,0.0,0.0,0.0,-5.3242,-5.2617,-5.2051,-5.168,-5.1406,-5.1406,-5.1406,-5.1406,-5.1406,-5.2676,-5.4004,-5.4004,-5.3495,-5.3923,-5.7421,-5.7713,-5.7263,-5.738,-5.7847,-5.7868,-5.6718,-5.8241,-5.9626,-5.9453,-6.1112,-6.3163,-6.5291,-6.5839,-6.6247,0.0,0.0,0.0,0.0,0.0,0.0,0.0,0.0,0.0,0.0,0.0,0.0,-6.6832,-6.682,-6.6802,-6.6804,-6.6265,-6.5995,-6.6004,-6.6577,-6.6845,-6.6832,-6.6832,-6.656,-6.6093,-6.6093,-6.5603,-6.4799,-6.4799,-6.4288,-6.3401,-6.2531,-6.1996,-6.1698,-6.1698,-6.1698,-6.1698,0.0,0.0,0.0,0.0,0.0,0.0,0.0,0.0,0.0,0.0,0.0,0.0,0.0,0.0,0.0,0.0,0.0,0.0,-6.1406,-5.9726,-5.8398,-5.7539,-5.6914,-5.6465,-5.6191,-5.6465,-5.6015,-5.4824,-5.4824,-5.5137,-5.5703,-5.5703,-5.6035,-5.6601,-5.6601,-5.6601,-5.6601,-5.6601,-5.6601,-5.6601,-5.6601,-5.6445,0.0,0.0,0.0,0.0,0.0,0.0,0.0,0.0,-5.2519,-5.2187,-5.1582,-5.1406,-5.1406,-5.1406,-5.1797,-5.2226,-5.2226,-5.3086,-5.4121,-5.4687,-5.4414,-5.4902,-5.8418,-5.8769,-5.8515,-5.9003,-5.912,-5.8767,-5.7558,-5.9256,-6.066,-6.0077,-6.1675,-6.3429,-6.4605,-6.5018,0.0,0.0,0.0,0.0,0.0,0.0,0.0,0.0,0.0,0.0,0.0,0.0,0.0,0.0,-6.5989,-6.5981,-6.5984,-6.5395,-6.5098,-6.5098,-6.5696,-6.598,-6.6005,-6.6003,-6.5715,-6.5193,-6.5192,-6.47,-6.3894,-6.3894,-6.3382,-6.2531,-6.1937,-6.1698,-6.1698,-6.1698,-6.1698,-6.1698,0.0,0.0,0.0,0.0,0.0,0.0,0.0,0.0,-6.5878,-6.6697,-6.6795,0.0,0.0,0.0,0.0,0.0,0.0,0.0,-6.0508,-5.8828,-5.7519,-5.664,-5.6601,-5.6191,-5.5332,-5.6152,-5.6601,-5.6582,-5.6601,-5.6601,-5.6582,-5.6601,-5.6601,-5.6601,-5.6601,-5.6601,-5.6601,-5.6601,-5.6601,-5.6582,-5.6582,-5.6074,-5.5293,0.0,0.0,0.0,0.0,0.0,0.0,0.0,-5.2109,-5.1406,-5.1406,-5.1406,-5.1406,-5.1406,-5.2617,-5.3984,-5.3984,-5.4004,-5.4433,-5.6152,-5.5293,-5.4941,-5.8418,-5.7851,-5.7597,-6.0996,-6.0272,-5.9024,-5.9099,-5.9056,-5.9042,-5.9092,-6.1295,-6.2998,-6.2998,0.0,0.0,0.0,0.0,0.0,0.0,0.0,0.0,0.0,0.0,0.0,0.0,0.0,0.0,0.0,-6.4232,-6.4205,-6.4193,-6.4189,-6.4196,-6.4196,-6.4178,-6.4225,-6.4306,-6.4299,-6.4286,-6.4294,-6.429,-6.3795,-6.2988,-6.2988,-6.2473,-6.1698,-6.1698,-6.1698,-6.1698,-6.1698,-6.1698,-6.1698,0.0,0.0,0.0,0.0,0.0,0.0,0.0,0.0,-6.5194,-6.66,-6.6307,0.0,0.0,0.0,0.0,0.0,0.0,0.0,-6.0508,-5.8828,-5.7519,-5.664,-5.6601,-5.6484,-5.6211,-5.6465,-5.6308,-5.5683,-5.6308,-5.6289,-5.5703,-5.6308,-5.6601,-5.6601,-5.6601,-5.6601,-5.6601,-5.6601,-5.625,-5.5683,-5.5683,-5.5156,-5.4394,0.0,0.0,0.0,0.0,0.0,0.0,0.0,0.0,0.0,-5.1406,-5.1406,-5.1406,-5.1406,-5.1777,-5.2168,-5.2168,-5.3965,-5.5664,-5.4941,-5.623,-5.793,-5.8965,-5.8808,-5.9043,-6.125,-6.0781,-5.9802,-5.9216,-6.0097,-6.0508,-5.9297,-6.078,-6.2301,-6.2906,0.0,0.0,0.0,0.0,0.0,0.0,0.0,0.0,0.0,0.0,0.0,0.0,0.0,0.0,0.0,-6.4204,-6.4177,-6.4125,-6.357,-6.3297,-6.3277,-6.2658,-6.3011,-6.4238,-6.4237,-6.3928,-6.3396,-6.3391,-6.2899,-6.2095,-6.2095,-6.1937,-6.1698,-6.1698,-6.1698,-6.1698,-6.1698,-6.1698,-6.1698,0.0,0.0,0.0,0.0,0.0,0.0,0.0,0.0,-6.4277,-6.5626,-6.5375,-6.5262,0.0,0.0,0.0,0.0,0.0,0.0,-6.0469,-5.8515,-5.7148,-5.6621,-5.6601,-5.6601,-5.6601,-5.6601,-5.6348,-5.582,-5.6348,-5.6328,-5.582,-5.6348,-5.6601,-5.6601,-5.6601,-5.6601,-5.6582,-5.623,-5.5781,-5.5273,-5.4922,-5.4258,-5.3476,0.0,0.0,0.0,0.0,0.0,0.0,0.0,0.0,0.0,-5.1504,-5.1641,-5.1973,-5.2324,-5.2676,-5.3183,-5.4219,-5.5781,-5.7109,-5.707,-5.8144,-5.9375,-6.0039,-6.0195,-6.0488,-6.1484,-6.1269,-6.0721,-6.021,-6.0976,-6.1328,-6.0292,-6.1015,-6.1873,-6.24,0.0,0.0,0.0,0.0,0.0,0.0,0.0,0.0,0.0,0.0,0.0,0.0,0.0,0.0,0.0,-6.3215,-6.3171,-6.3102,-6.2624,-6.237,-6.2381,-6.1872,-6.2173,-6.3172,-6.3167,-6.292,-6.2481,-6.2482,-6.2187,-6.1698,-6.1698,-6.1698,-6.1698,-6.1698,-6.1698,-6.1698,-6.1698,-6.1703,-6.1707,0.0,0.0,-6.1737,-6.1796,0.0,0.0,0.0,0.0,-6.3223,-6.4182,-6.4228,-6.4214,0.0,0.0,0.0,0.0,0.0,0.0,0.0,-5.7969,-5.6601,-5.6601,-5.6601,-5.6601,-5.6601,-5.6601,-5.6601,-5.6601,-5.6601,-5.6601,-5.6601,-5.6601,-5.6601,-5.6601,-5.6601,-5.6562,-5.6426,-5.5644,-5.5215,-5.498,-5.4199,-5.3359,-5.2578,-5.2578,0.0,0.0,0.0,0.0,0.0,0.0,0.0,0.0,-5.1777,-5.2012,-5.2734,-5.3535,-5.4433,-5.5703,-5.8086,-5.8379,-5.8574,-6.0898,-6.0449,-5.9824,-6.1348,-6.1699,-6.1699,-6.1699,-6.1655,-6.163,-6.1699,-6.1655,-6.1632,-6.1698,-6.1697,-6.1697,-6.1697,0.0,0.0,0.0,0.0,0.0,0.0,0.0,0.0,0.0,0.0,0.0,0.0,0.0,0.0,-6.1699,-6.1705,-6.1668,-6.1608,-6.1607,-6.1607,0.0,-6.166,-6.1651,-6.1598,-6.1618,-6.1632,-6.1701,-6.1701,-6.1698,-6.1698,-6.1698,-6.1698,-6.1698,-6.1698,-6.1701,-6.1701,-6.1701,-6.1709,-6.1699,0.0,0.0,-6.1913,-6.2598,0.0,0.0,0.0,0.0,0.0,-6.4104,-6.3694,0.0,0.0,0.0,0.0,0.0,0.0,0.0,0.0,-5.7656,-5.6601,-5.6601,-5.6601,-5.6601,-5.6601,-5.6601,-5.6601,-5.6601,-5.6601,-5.6601,-5.6601,-5.6601,-5.6601,-5.6601,-5.6601,-5.6211,-5.5566,-5.5371,-5.4512,-5.3242,-5.3066,-5.2461,-5.168,-5.168,-5.1992,0.0,0.0,0.0,0.0,0.0,0.0,0.0,-5.248,-5.207,-5.1719,-5.1894,-5.3066,-5.4394,-5.4961,-5.6973,-5.9043,-5.9609,-6.0469,-6.1269,-6.1621,-6.1699,-6.1699,-6.1699,-6.1699,-6.1679,-6.1699,-6.1699,-6.1679,-6.1699,-6.1699,-6.1699,-6.1699,0.0,0.0,0.0,0.0,0.0,0.0,0.0,0.0,0.0,0.0,0.0,0.0,0.0,0.0,-6.1699,-6.1705,-6.1672,-6.1591,-6.1595,-6.1595,0.0,-6.1618,-6.1618,-6.1598,-6.1659,-6.1692,-6.1694,-6.1703,-6.1698,-6.1698,-6.1698,-6.1698,-6.1698,-6.1698,-6.1705,-6.1694,-6.1694,-6.1701,-6.1707,0.0,0.0,0.0,0.0,0.0,0.0,0.0,0.0,0.0,0.0,0.0,0.0,0.0,0.0,0.0,0.0,0.0,0.0,0.0,-5.7969,-5.7031,-5.6621,-5.6601,-5.6601,-5.6601,-5.6601,-5.6601,-5.6601,-5.6601,-5.6601,-5.6601,-5.6601,-5.6601,-5.6582,-5.6152,-5.5723,-5.5254,-5.4414,-5.3535,-5.2656,-5.2246,-5.1816,-5.1445,-5.1855,-5.2305,-5.2695,-5.2656,0.0,0.0,0.0,0.0,0.0,0.0,0.0,-5.2109,-5.2519,-5.2988,-5.3828,-5.5918,-5.7519,-5.8867,-6.0098,-6.1055,-6.1699,-6.1699,-6.1699,-6.1699,-6.1699,-6.1699,-6.1699,-6.1699,-6.1699,-6.1699,-6.1699,-6.1699,-6.1699,-6.1699,0.0,0.0,0.0,0.0,0.0,0.0,0.0,0.0,0.0,0.0,0.0,0.0,-6.1699,-6.1698,-6.1704,-6.1707,-6.1676,-6.1648,-6.1648,-6.1625,-6.1595,-6.1625,-6.1648,-6.1648,-6.1686,-6.1701,-6.1704,-6.1704,-6.1701,-6.1696,-6.1696,-6.1696,-6.1696,-6.1696,-6.1699,-6.1704,-6.1704,-6.1708,-6.1694,0.0,0.0,0.0,0.0,0.0,0.0,0.0,0.0,0.0,0.0,0.0,0.0,0.0,0.0,0.0,0.0,0.0,0.0,0.0,0.0,0.0,-5.6621,-5.6601,-5.6601,-5.6601,-5.6601,-5.6601,-5.6601,-5.6601,-5.6523,-5.6387,-5.6523,-5.6523,-5.6348,-5.5625,-5.5137,-5.4765,-5.3301,-5.2617,-5.2402,-5.1699,-5.1406,-5.1484,-5.2207,-5.2578,-5.2773,-5.3359,-5.3281,-5.2891,-5.2754,0.0,0.0,0.0,0.0,-5.2617,-5.334,-5.3242,-5.3711,-5.7324,-5.8223,-5.8691,-6.1094,-6.1699,-6.1699,-6.1699,-6.1699,-6.1699,-6.1699,-6.1699,-6.1699,-6.1699,-6.1699,-6.1699,-6.1699,-6.1699,-6.1699,0.0,0.0,0.0,0.0,0.0,0.0,0.0,0.0,0.0,0.0,0.0,0.0,-6.1699,-6.1699,-6.1698,-6.1709,-6.1709,-6.1697,-6.1702,-6.1702,-6.1676,-6.1625,-6.1676,-6.1702,-6.1705,-6.1692,-6.1702,-6.1705,-6.1695,-6.1695,-6.1709,-6.1709,-6.1709,-6.1709,-6.1709,-6.1709,-6.1691,-6.1691,-6.1695,-6.1698,0.0,0.0,0.0,0.0,0.0,0.0,0.0,0.0,0.0,0.0,-6.1132,-6.1639,0.0,0.0,-6.0562,-6.0566,-5.914,-5.7871,-5.6992,0.0,0.0,-5.6562,-5.6601,-5.6601,-5.6601,-5.6601,-5.6601,-5.6601,-5.6601,-5.6211,-5.5488,-5.625,-5.6191,-5.5469,-5.5351,-5.4453,-5.3027,-5.2793,-5.2266,-5.1562,-5.1445,-5.1406,-5.1406,-5.1523,-5.2031,-5.2617,-5.1973,-5.2637,-5.3711,-5.2949,-5.2695,0.0,0.0,0.0,-5.1601,-5.1719,-5.2734,-5.3945,-5.4531,-5.6816,-5.9453,-6.125,-6.1699,-6.1699,-6.1699,-6.1699,-6.1699,-6.1699,-6.1699,-6.1699,-6.1699,-6.1699,-6.1699,-6.1699,-6.1699,0.0,0.0,0.0,0.0,0.0,0.0,0.0,0.0,0.0,0.0,0.0,0.0,0.0,-6.1699,-6.1699,-6.1698,-6.1709,-6.1709,-6.1701,-6.1696,-6.1696,-6.1696,-6.1693,-6.1696,-6.1696,-6.1698,-6.1701,-6.1701,-6.1705,-6.1692,-6.1695,-6.1709,-6.1709,-6.1709,-6.1709,-6.1709,-6.1693,-6.1696,-6.1696,-6.1698,-6.1699,0.0,0.0,0.0,0.0,0.0,0.0,0.0,0.0,0.0,0.0,0.0,-6.1445,-6.1015,-6.0622,-6.0229,-5.9765,-5.9043,-5.8047,-5.6699,-5.5332,-5.4746,-5.5137,-5.5137,-5.5137,-5.5137,-5.5137,-5.5371,-5.5879,-5.5879,-5.5683,-5.5312,-5.5683,-5.541,-5.4551,-5.4062,-5.3418,-5.2676,-5.2187,-5.1758,-5.1406,-5.1406,-5.1992,-5.2793,-5.2305,-5.2969,-5.4043,-5.3164,-5.3047,-5.3281,-5.3398,-5.3105,-5.2695,-5.2695,0.0,0.0,0.0,-5.1933,-5.2969,-5.4922,-5.7285,-5.9609,-6.1289,-6.1699,-6.1699,-6.1699,-6.1699,-6.1699,-6.1699,-6.1699,-6.1699,-6.1699,-6.1699,-6.1699,-6.1699,-6.1699,0.0,0.0,0.0,0.0,0.0,0.0,0.0,0.0,0.0,0.0,0.0,0.0,-6.1699,-6.1699,-6.1698,-6.1695,-6.1709,-6.1701,-6.169,-6.1698,-6.1698,-6.1698,-6.1698,-6.1698,-6.1698,-6.1701,-6.1702,-6.1705,-6.1699,-6.1696,-6.1698,-6.1697,-6.1697,-6.1697,-6.1697,-6.1697,-6.1698,-6.1699,-6.1699,-6.1699,-6.1699,0.0,0.0,0.0,0.0,0.0,0.0,0.0,0.0,0.0,0.0,0.0,-6.1023,-6.0411,0.0,0.0,0.0,-5.8437,-5.7558,-5.6035,-5.4512,-5.3769,-5.3984,-5.4004,-5.4004,-5.4004,-5.4004,-5.4316,-5.4961,-5.4961,-5.4863,-5.4648,-5.4648,-5.418,-5.332,-5.2891,-5.2578,-5.2324,-5.168,-5.1406,-5.1445,-5.1875,-5.2832,-5.3984,-5.3769,-5.4492,-5.5488,-5.4394,-5.3711,-5.3398,-5.3594,-5.3379,-5.3027,-5.3027,-5.3027,0.0,0.0,0.0,-5.2109,-5.5371,-5.7226,-5.8711,-6.084,-6.1367,-6.1426,-6.164,-6.1699,-6.1699,-6.1699,-6.1699,-6.1699,-6.1699,-6.1699,-6.1699,-6.1699,0.0,0.0,0.0,0.0,0.0,0.0,0.0,0.0,0.0,0.0,0.0,0.0,0.0,-6.1699,-6.1699,-6.1695,-6.1709,-6.1709,-6.1692,-6.1698,-6.1698,-6.1698,-6.1698,-6.1698,-6.1698,-6.1698,-6.1701,-6.1697,-6.1707,-6.1692,-6.1698,-6.1699,-6.1699,-6.1699,-6.1699,-6.1699,-6.1699,-6.1699,-6.1699,-6.1699,-6.1699,-6.168,0.0,0.0,0.0,0.0,0.0,0.0,0.0,0.0,0.0,0.0,0.0,-6.0258,-6.022,-5.9583,-5.8796,-5.7862,-5.6382,-5.5117,-5.4199,-5.3281,-5.3144,-5.3965,-5.4004,0.0,-5.4004,-5.4004,-5.4023,-5.4062,-5.4062,-5.3633,-5.2832,-5.2832,-5.2363,-5.1562,-5.2344,-5.2246,-5.1465,-5.1426,-5.1406,-5.1543,-5.3203,-5.3926,-5.418,-5.5781,-5.6445,-5.6308,-5.4609,-5.4492,-5.4922,-5.3301,-5.3281,-5.3926,-5.3926,-5.3926,-5.3769,0.0,0.0,0.0,-5.4648,-5.543,-5.6308,-5.9648,-6.0469,-6.0683,-6.1504,-6.1699,-6.1699,-6.1699,-6.1699,-6.1699,-6.1699,-6.1699,-6.1699,-6.1699,0.0,0.0,0.0,0.0,0.0,0.0,0.0,0.0,0.0,0.0,0.0,0.0,0.0,-6.1699,-6.1699,-6.1695,-6.1709,-6.1709,-6.1692,-6.1698,-6.1698,-6.1698,-6.1698,-6.1698,-6.1698,-6.1698,-6.1698,-6.1701,-6.1699,-6.1697,-6.1699,-6.1699,-6.1699,-6.1699,-6.1699,-6.1699,-6.1699,-6.1699,-6.1699,-6.1699,-6.1699,-6.1582,0.0,0.0,0.0,0.0,0.0,0.0,0.0,0.0,0.0,0.0,0.0,0.0,0.0,-5.8322,-5.7841,-5.694,-5.5357,-5.4029,-5.3151,-5.2322,-5.1992,-5.2324,-5.2324,-5.2324,-5.2324,-5.2324,-5.2617,-5.3164,-5.3164,-5.3008,-5.2695,-5.2695,-5.2226,-5.1406,-5.1738,-5.1699,-5.1406,-5.1406,-5.1405,-5.1542,-5.3295,-5.4664,-5.5605,-5.5114,-5.6326,-5.789,-5.5039,-5.4551,-5.5293,-5.5234,-5.5039,-5.4824,-5.4824,-5.4824,-5.4551,-5.3125,-5.248,-5.2676,-5.4746,-5.5703,-5.6699,-5.9043,-6.0019,-6.0488,-6.0781,-6.1308,-6.1699,-6.1699,-6.1699,-6.1699,-6.1699,-6.1699,-6.1699,-6.1699,0.0,0.0,0.0,0.0,0.0,0.0,0.0,0.0,0.0,0.0,0.0,0.0,0.0,0.0,-6.1699,-6.1695,-6.1709,-6.1709,-6.1692,-6.1698,-6.1698,-6.1698,-6.1698,-6.1698,-6.1698,-6.1698,-6.1698,-6.1698,-6.1699,-6.1697,-6.1695,-6.1698,-6.1698,-6.1699,-6.1699,-6.1699,-6.1699,-6.1699,-6.1621,-6.1074,-6.0879,-6.0742,0.0,0.0,0.0,0.0,0.0,-5.8175,-5.8217,-5.7973,-5.7707,-5.7535,0.0,0.0,0.0,0.0,-5.6952,-5.5232,-5.4066,-5.3066,-5.2191,-5.1644,-5.1363,-5.1363,-5.1386,-5.1406,-5.1406,-5.1406,-5.168,-5.2266,-5.2266,-5.2266,-5.2266,-5.2266,-5.1953,-5.1406,-5.1406,-5.1406,-5.1406,-5.1405,-5.1404,-5.1598,-5.3934,-5.5225,-5.5739,-5.5713,-5.6792,-5.8027,-5.5702,-5.5429,-5.6269,-5.6836,-5.6855,-5.6562,-5.6269,-5.5762,-5.5078,-5.3906,-5.3379,-5.3457,-5.4902,-5.5723,-5.6582,-5.832,-5.918,-5.9707,-6.0273,-6.0859,-6.1348,-6.164,-6.1699,-6.1699,-6.1699,-6.1699,-6.1699,0.0,0.0,0.0,0.0,0.0,0.0,0.0,0.0,0.0,0.0,0.0,0.0,0.0,0.0,0.0,-6.1699,-6.1696,-6.1707,-6.1701,-6.1707,-6.1698,-6.1698,-6.1698,-6.1698,-6.1698,-6.1698,-6.1698,-6.1698,-6.1698,-6.1699,-6.1698,-6.1693,-6.1697,-6.1697,-6.1699,-6.1699,-6.1699,-6.1699,-6.1523,-6.1191,-6.0605,-6.0234,-5.9883,0.0,0.0,-5.8535,-5.8574,-5.7849,-5.7269,-5.7288,-5.6553,-5.6302,-5.7123,0.0,0.0,0.0,0.0,0.0,-5.2762,-5.2481,-5.2119,-5.1257,-5.1266,-5.1295,-5.1295,-5.1363,-5.1406,-5.1406,-5.1406,-5.1406,-5.1406,-5.1406,-5.1406,-5.1406,-5.1406,-5.1406,-5.1406,-5.1405,-5.1405,-5.1405,-5.1404,-5.1402,-5.1691,-5.5186,-5.5577,-5.4445,-5.7817,-5.8116,-5.6736,-5.6693,-5.7204,-5.789,-5.7969,-5.8476,-5.8945,-5.8125,-5.668,-5.5293,-5.5293,-5.4707,-5.4219,0.0,0.0,0.0,-5.7441,-5.7871,-5.832,-5.9961,-6.0351,-6.0644,-6.1484,-6.168,-6.1699,-6.1699,-6.1699,-6.1699,0.0,0.0,0.0,0.0,0.0,0.0,0.0,0.0,0.0,0.0,0.0,0.0,0.0,0.0,-6.1699,-6.1697,-6.1697,-6.1702,-6.1701,-6.1698,-6.1698,-6.1698,-6.1698,-6.1698,-6.1698,-6.1698,-6.1698,-6.1698,-6.1698,-6.1702,-6.1699,-6.1694,-6.1697,-6.1697,-6.1699,-6.1699,-6.1699,-6.1699,-6.1172,-6.039,-6.0371,-5.9844,-5.9043,0.0,-5.7304,-5.7014,-5.8188,-5.7145,-5.6367,-5.7053,-5.6473,-5.5806,0.0,0.0,0.0,-5.494,-5.4672,-5.3902,-5.2349,-5.2305,-5.1997,-5.1103,-5.1163,-5.1236,-5.1236,-5.1291,-5.1331,-5.1331,-5.1385,-5.1406,-5.1406,-5.1406,-5.1406,-5.1406,-5.1406,-5.1406,-5.1406,-5.1405,-5.1403,-5.14,-5.1397,-5.1394,-5.1704,-5.5144,-5.6261,-5.6118,-5.8273,-5.9585,-6.0122,-5.8852,-5.8167,-5.801,-5.9289,-5.8237,-5.6442,-5.6836,-5.6191,-5.5293,-5.5293,-5.5137,-5.498,-5.5234,0.0,0.0,0.0,0.0,0.0,-5.8496,-5.9531,-6.0469,-6.0703,-6.1269,-6.1699,-6.1699,-6.1699,-6.1699,0.0,0.0,0.0,0.0,0.0,0.0,0.0,0.0,0.0,0.0,0.0,0.0,0.0,-6.1699,-6.1699,-6.1699,-6.1695,-6.1702,-6.1701,-6.1698,-6.1698,-6.1698,-6.1698,-6.1698,-6.1698,-6.1698,-6.1698,-6.1698,-6.1698,-6.1696,-6.1694,-6.1691,-6.1696,-6.1699,-6.1699,-6.1699,-6.1699,-6.1699,-6.1172,-6.0332,-5.9746,-5.8984,-5.8144,-5.7079,-5.6481,-5.6018,-5.6618,-5.5876,-5.5263,-5.544,-5.5065,-5.4612,0.0,0.0,0.0,-5.3505,-5.3384,-5.2884,-5.1696,-5.166,-5.147,-5.0947,-5.1027,-5.1128,-5.1167,-5.1247,-5.1304,-5.1337,-5.1386,-5.1406,-5.1406,-5.1406,-5.1406,-5.1406,-5.1406,-5.1406,-5.1406,-5.1404,-5.14,-5.1395,-5.1407,-5.1403,-5.1695,-5.5155,-5.6135,-5.5776,-5.8182,-5.9302,-5.953,-5.9212,-5.8787,-5.8656,-6.0357,-5.8895,-5.6439,-5.6972,-5.6035,-5.4765,-5.4765,-5.4765,-5.4765,-5.4765,-5.5137,-5.5527,-5.5527,0.0,0.0,-5.7656,-5.8652,-5.9668,0.0,-6.1348,-6.1699,-6.1699,-6.1699,0.0,0.0,0.0,0.0,0.0,0.0,0.0,0.0,0.0,0.0,0.0,0.0,0.0,-6.1699,-6.1699,-6.1699,-6.1699,-6.1697,-6.1708,-6.1694,-6.1705,-6.1698,-6.1698,-6.1698,-6.1698,-6.1698,-6.1698,-6.1698,-6.1698,-6.1698,-6.1692,-6.1709,-6.1709,-6.1695,-6.1699,-6.1699,-6.1699,-6.166,-6.1308,-6.0644,-5.9805,-5.8965,-5.8105,-5.7285,0.0,-5.5415,-5.5203,-5.4472,-5.4357,-5.4087,-5.3318,-5.3203,-5.3164,0.0,-5.3645,-5.382,-5.3099,-5.3013,-5.2463,-5.1117,-5.0868,-5.0831,-5.0928,-5.0952,-5.1004,-5.105,-5.1197,-5.1281,-5.1345,-5.1386,-5.1386,-5.1406,-5.1406,-5.1406,-5.1406,-5.1406,-5.1406,-5.1405,-5.14,-5.1395,-5.1408,-5.1398,-5.1511,-5.196,-5.5064,-5.5493,-5.4632,-5.7863,-5.8302,-5.7358,-5.8853,-5.9296,-5.9407,-6.0801,-5.9844,-5.8056,-5.7831,-5.6289,-5.4492,-5.4101,-5.4141,-5.4258,-5.4043,-5.4004,-5.4004,-5.4004,-5.4004,0.0,-5.6933,-5.7539,-5.8242,0.0,-6.1074,-6.1133,-6.1133,0.0,0.0,0.0,0.0,0.0,0.0,0.0,0.0,0.0,0.0,0.0,0.0,-6.1699,-6.1699,-6.1699,-6.1699,-6.1699,-6.1699,-6.1698,-6.1695,-6.1709,-6.1692,-6.1698,-6.1698,-6.1698,-6.1698,-6.1698,-6.1698,-6.1698,-6.1698,-6.1698,-6.1692,-6.1709,-6.1709,-6.1695,-6.1699,-6.1699,-6.164,-6.1484,-6.0703,-5.9844,-5.8965,-5.8183,-5.7344,-5.6601,-5.3683,-5.3683,-5.3645,-5.3491,-5.3453,-5.3395,-5.3241,-5.3203,-5.2953,-5.225,-5.1741,-5.1385,-5.1212,-5.1212,-5.1347,-5.1684,-5.1096,-5.1028,-5.1722,-5.1185,-5.0822,-5.0775,-5.0959,-5.1064,-5.1082,-5.1243,-5.1358,-5.1406,-5.1406,-5.1406,-5.1406,-5.1406,-5.1405,-5.1404,-5.1397,-5.1391,-5.1408,-5.1398,-5.2214,-5.3541,-5.4225,-5.5142,-5.6313,-5.8321,-5.9761,-6.0751,-6.108,-6.0297,-5.9065,-5.8683,-5.9158,-5.954,-5.7508,-5.7435,-5.7554,-5.4804,-5.498,-5.5781,-5.4375,-5.4004,-5.4004,-5.4004,-5.4004,0.0,-5.4648,-5.5293,-5.5957,0.0,-5.7109,-5.7598,-5.7598,0.0,0.0,0.0,0.0,0.0,0.0,0.0,0.0,0.0,0.0,0.0,0.0,-6.1699,-6.1699,-6.1699,-6.1699,-6.1699,-6.1699,-6.1696,-6.1691,-6.1709,-6.1692,-6.1698,-6.1698,-6.1698,-6.1698,-6.1698,-6.1698,-6.1698,-6.1698,-6.1698,-6.1692,-6.1709,-6.1709,-6.1695,-6.1699,-6.1699,-6.1289,-6.0644,-6.0469,-5.9473,-5.8125,-5.7969,-5.7344,-5.6601,-5.3203,-5.3203,-5.3068,-5.2635,-5.2538,-5.2433,-5.201,-5.1952,-5.1798,-5.1356,-5.1298,-5.1298,-5.1298,-5.1683,-5.1933,-5.1904,-5.153,-5.1318,-5.1337,-5.0961,-5.0754,-5.0795,-5.0903,-5.0978,-5.0991,-5.1109,-5.1154,-5.1144,-5.1188,-5.1191,-5.1194,-5.1275,-5.1737,-5.2461,-5.1728,-5.1811,-5.2442,-5.1635,-5.1804,-5.2762,-5.4567,-5.6313,-5.8031,-5.9746,-6.0934,-6.171,-6.171,-6.1133,-6.0324,-5.99,-5.8885,-5.7809,-5.7844,-5.6951,-5.5666,-5.439,-5.4626,-5.492,-5.3183,-5.2695,-5.2695,-5.2695,-5.2695,0.0,0.0,-5.4336,-5.4902,-5.5762,-5.6308,-5.6601,-5.6601,0.0,0.0,0.0,0.0,0.0,0.0,0.0,0.0,0.0,0.0,0.0,0.0,-6.1699,-6.1699,-6.1699,-6.1699,-6.1699,-6.1697,-6.1697,-6.1692,-6.1697,-6.1697,-6.1698,-6.1698,-6.1698,-6.1698,-6.1698,-6.1698,-6.1698,-6.1698,-6.1698,-6.1705,-6.1697,-6.1705,-6.1693,-6.1697,-6.1699,-6.0957,-5.9805,-5.9805,-5.9023,-5.7851,-5.7402,-5.6973,-5.6601,-5.2722,-5.2722,-5.251,-5.1798,-5.1673,-5.1452,-5.0808,-5.0712,-5.077,-5.0914,-5.1645,-5.2212,-5.2385,-5.3164,-5.3472,-5.2923,-5.2731,-5.2299,-5.1481,-5.126,-5.1209,-5.1315,-5.1033,-5.1035,-5.1429,-5.1136,-5.0967,-5.0934,-5.0994,-5.1025,-5.1025,-5.1121,-5.1845,-5.3063,-5.2214,-5.2306,-5.3041,-5.2072,-5.1856,-5.241,-5.5324,-5.7152,-5.8302,-6.0059,-6.0917,-6.123,-6.1581,-6.1691,-6.1643,-6.1315,-5.8868,-5.6194,-5.7651,-5.6192,-5.3871,-5.3578,-5.3971,-5.4031,-5.195,-5.1405,-5.1406,-5.1406,-5.1406,-5.1777,0.0,0.0,0.0,-5.5312,0.0,0.0,0.0,0.0,0.0,0.0,0.0,0.0,0.0,0.0,0.0,0.0,0.0,0.0,0.0,-6.1211,-6.1348,-6.168,-6.1406,-6.1366,-6.167,-6.1698,-6.1695,-6.1699,-6.1702,-6.1698,-6.1698,-6.1698,-6.1698,-6.1698,-6.1698,-6.1698,-6.1698,-6.1698,-6.1701,-6.1707,-6.1704,-6.1709,-6.1709,-6.1697,-6.08,-5.9414,-5.9258,-5.8555,-5.7558,-5.6855,-5.6601,-5.6601,-5.0981,-5.0981,-5.0962,-5.0846,-5.0846,-5.0808,-5.0712,-5.0712,-5.0952,-5.1673,-5.2529,-5.3356,-5.4126,-5.4934,-5.5684,-5.6365,-5.5703,-5.4934,-5.4126,-5.3337,-5.2895,-5.2855,-5.1481,-5.1456,-5.2991,-5.1642,-5.0978,-5.1084,-5.1084,-5.1089,-5.1089,-5.104,-5.1127,-5.1364,-5.2733,-5.258,-5.1371,-5.2756,-5.4186,-5.5572,-5.5998,-5.5515,-5.4771,-5.6528,-5.8109,-5.959,-6.1152,-6.1691,-6.1465,-5.9926,-5.9078,-5.8188,-5.5443,-5.6321,-5.749,-5.3006,-5.3844,-5.5515,-5.2278,-5.1393,-5.14,-5.14,-5.1405,-5.1445,-5.1641,0.0,-5.1758,-5.1953,0.0,0.0,0.0,0.0,0.0,0.0,0.0,0.0,0.0,0.0,0.0,0.0,0.0,0.0,0.0,0.0,-6.0098,-6.1582,-6.0312,-6.0136,-6.1612,-6.1698,-6.1695,-6.1699,-6.1702,-6.1698,-6.1698,-6.1698,-6.1698,-6.1698,-6.1698,-6.1698,-6.1698,-6.1698,-6.1692,-6.1707,-6.1708,-6.1709,-6.1709,-6.1691,-6.1124,-6.0188,-5.9472,-5.8203,-5.6738,-5.664,-5.6601,-5.6601,-5.0712,-5.0712,-5.0712,-5.0712,-5.0712,-5.0712,-5.0712,-5.1106,-5.1529,-5.1865,-5.3106,-5.4077,-5.441,-5.5182,-5.5827,-5.6148,-5.5893,-5.5145,-5.3837,-5.3395,-5.275,-5.1749,-5.1058,-5.102,-5.1722,-5.1074,-5.0733,-5.0745,-5.0789,-5.0797,-5.0805,-5.0911,-5.1426,-5.2321,-5.3203,-5.3659,-5.3776,-5.4591,-5.4785,-5.4626,-5.5587,-5.5094,-5.4173,-5.7858,-5.9708,-6.0409,-6.1154,-6.1476,-6.1448,-6.0589,-5.8767,-5.7001,-5.7989,-5.6929,-5.5193,-5.4554,-5.4695,-5.4517,-5.2065,-5.215,-5.266,-5.1641,-5.2158,-5.2633,-5.1637,-5.1406,-5.1406,-5.1406,0.0,0.0,0.0,0.0,0.0,0.0,-5.2851,0.0,0.0,0.0,0.0,0.0,0.0,0.0,0.0,0.0,0.0,0.0,0.0,-6.0956,-6.1651,-6.1698,-6.1695,-6.1699,-6.1702,-6.1698,-6.1698,-6.1698,-6.1698,-6.1698,-6.1698,-6.1698,-6.1698,-6.1698,-6.1705,-6.1696,-6.1705,-6.1704,-6.1696,-6.1705,-6.1182,-6.0362,-6.0034,-5.8846,-5.7344,-5.7344,-5.7031,-5.6601,-5.0712,-5.0712,-5.0712,-5.0712,-5.0712,-5.077,-5.0991,-5.1529,-5.1981,-5.2231,-5.374,-5.4776,-5.4732,-5.5929,-5.6678,-5.6652,-5.692,-5.6395,-5.4722,-5.4145,-5.3568,-5.2818,-5.1462,-5.1115,-5.1968,-5.1104,-5.0603,-5.0553,-5.0603,-5.0623,-5.0633,-5.0784,-5.1439,-5.2539,-5.3199,-5.4063,-5.504,-5.5615,-5.5421,-5.4852,-5.6068,-5.6169,-5.5936,-5.9248,-6.0798,-6.1206,-6.1206,-6.1292,-6.1331,-6.072,-5.8568,0.0,-5.9149,-5.7317,-5.453,-5.5966,-5.589,-5.483,-5.262,0.0,-5.3588,-5.1845,0.0,0.0,0.0,0.0,0.0,-5.1405,-5.1406,0.0,0.0,0.0,-5.1406,-5.1406,0.0,-5.2851,0.0,0.0,0.0,0.0,0.0,0.0,0.0,0.0,0.0,0.0,0.0,0.0,-6.167,-6.1698,-6.1695,-6.1699,-6.1702,-6.1698,-6.1698,-6.1698,-6.1698,-6.1698,-6.1698,-6.1698,-6.1698,-6.1698,-6.1698,-6.1701,-6.1697,-6.1692,-6.1671,-6.1672,-6.1307,-6.0739,-6.0747,-5.9877,-5.8554,-5.834,-5.7851,-5.7305,-5.0712,-5.0712,-5.0712,-5.0712,-5.0712,-5.0952,-5.1731,-5.1885,-5.2192,-5.3049,-5.4553,-5.5558,-5.5558,-5.7785,-5.9283,-5.9283,-6.0111,-5.9935,-5.8261,-5.6549,-5.6357,-5.7992,-5.3318,-5.2232,-5.5472,-5.2356,-5.0702,-5.0683,-5.0702,-5.0702,-5.0702,-5.0693,-5.0731,-5.0846,-5.2482,-5.3232,-5.3395,-5.5021,-5.6656,-5.8157,-5.8195,-5.9177,-6.0445,-5.9246,-5.9781,-6.1206,-6.1206,0.0,0.0,-5.9334,-5.8693,0.0,0.0,0.0,0.0,0.0,0.0,0.0,0.0,0.0,0.0,-5.1843,0.0,0.0,0.0,0.0,-5.1402,0.0,-5.1398,-5.1402,-5.1406,-5.1406,-5.1406,-5.1406,-5.1445,0.0,0.0,0.0,0.0,0.0,0.0,0.0,0.0,0.0,0.0,0.0,0.0,0.0,-6.1612,-6.1698,-6.1695,-6.1699,-6.1702,-6.1698,-6.1698,-6.1698,-6.1698,-6.1698,-6.1698,-6.1698,-6.1698,-6.1698,-6.1698,-6.1698,-6.1701,-6.1666,-6.1598,-6.1595,-6.1595,-6.1566,-6.1627,-6.1117,-6.0226,-5.9452,-5.914,-5.9121,-5.0712,-5.0712,-5.0712,-5.0712,-5.0712,-5.0789,-5.1048,-5.1568,-5.2423,-5.3876,-5.5,-5.6082,-5.719,-5.8127,-5.8869,-5.936,-5.9727,-5.9473,-5.8377,-5.6632,-5.5921,-5.6549,-5.2768,-5.17,-5.401,-5.1837,-5.0712,-5.0712,-5.0712,-5.0712,-5.0712,-5.0712,-5.0712,-5.077,-5.2452,-5.3818,-5.4972,-5.6684,-5.7761,-5.83,-5.83,-5.8646,-5.9215,0.0,-6.0431,-6.0943,-6.0943,-6.0993,0.0,-6.0307,-5.9478,-5.8782,-5.921,-5.8246,-5.7053,-5.7649,-5.7444,0.0,0.0,0.0,-5.6554,-5.3654,0.0,0.0,0.0,0.0,0.0,0.0,0.0,0.0,-5.1402,-5.1405,-5.1406,-5.1406,-5.1406,-5.1406,0.0,0.0,0.0,0.0,0.0,0.0,0.0,0.0,0.0,0.0,0.0,0.0,0.0,-6.1698,-6.1695,-6.1699,-6.1702,-6.1698,-6.1698,-6.1698,-6.1698,-6.1698,-6.1698,-6.1698,-6.1698,-6.1698,-6.1698,-6.1701,-6.1707,-6.1698,-6.1673,-6.1668,-6.1671,-6.1666,-6.1635,-6.1481,-6.1168,-6.0312,-5.9668,-5.9199,-5.0683,-5.0702,-5.0712,-5.0712,-5.0712,-5.0808,-5.1087,-5.1568,-5.2519,-5.426,-5.5192,-5.6198,-5.7605,-5.83,-5.8889,-5.936,-5.9746,-5.9481,-5.8354,-5.7197,-5.6582,-5.6585,-5.3889,-5.3187,-5.494,-5.2729,-5.1557,-5.1557,-5.0991,-5.0712,-5.0712,-5.0712,-5.0712,-5.075,-5.1837,-5.3568,-5.5761,-5.6896,-5.8088,-5.9184,-5.9162,-5.915,-5.9265,0.0,-6.04,-5.9992,0.0,-6.0864,-6.0922,-6.0839,-6.0197,-5.9615,-6.0616,-5.9485,-5.7981,-5.9129,-5.8679,-5.7703,-5.711,-5.7876,0.0,-5.5266,-5.5458,0.0,-5.2851,0.0,-5.223,0.0,0.0,0.0,0.0,-5.2222,-5.16,-5.2225,-5.1796,-5.1406,0.0,-5.1406,0.0,0.0,0.0,-5.3887,0.0,0.0,0.0,0.0,0.0,0.0,0.0,0.0,-6.1695,-6.1699,-6.1702,-6.1698,-6.1698,-6.1698,-6.1698,-6.1698,-6.1698,-6.1698,-6.1698,-6.1698,-6.1698,-6.1698,-6.1705,-6.1696,-6.1699,-6.1707,-6.1691,-6.1666,-6.1646,-6.1647,-6.1609,-6.1052,-6.0527,-6.0039,-5.0664,-5.0693,-5.0683,-5.0712,-5.0712,-5.0952,-5.1712,-5.1904,-5.2577,-5.4337,-5.5237,-5.6087,-5.699,-5.8508,-5.9456,-5.9456,-6.0284,-6.0104,-5.8443,-5.8304,-5.8316,-5.8327,-5.6575,-5.641,-5.8169,-5.4855,-5.3108,-5.3108,-5.148,-5.0683,-5.0683,-5.0683,-5.0683,-5.0683,-5.0683,-5.2549,-5.5684,-5.5703,-5.7654,-6.0788,-6.071,-6.0647,-6.057,-6.0591,-5.9643,-5.8519,-6.0192,-6.08,-6.08,-6.08,-6.08,-6.08,-6.08,-6.08,-6.08,-6.08,-6.088,-6.0645,-5.9041,-5.8718,-5.8401,-5.6652,0.0,0.0,0.0,0.0,-5.3886,0.0,0.0,0.0,0.0,-5.3716,-5.2042,-5.3621,-5.2478,-5.1406,-5.1406,-5.1406,-5.1719,0.0,0.0,-5.3144,-5.3984,0.0,0.0,0.0,0.0,0.0,0.0,0.0,-6.1656,-6.1699,-6.1702,-6.1698,-6.1698,-6.1698,-6.1698,-6.1698,-6.1698,-6.1698,-6.1698,-6.1698,-6.1698,-6.1698,-6.1705,-6.1699,-6.1699,-6.1699,-6.1651,-6.1602,-6.1688,-6.1652,-6.1607,-6.1681,-6.1696,-6.1582,-5.0546,-5.0545,-5.0573,-5.0673,-5.0712,-5.077,-5.0971,-5.2068,-5.3472,-5.5164,-5.6673,-5.8162,-5.9642,-6.0181,-6.0431,-6.0431,-6.0666,-6.0608,-6.0173,-5.8946,-5.8792,-6.0065,-5.7213,-5.6422,-5.8169,-5.4847,-5.3078,-5.3034,-5.1367,-5.0542,-5.0542,-5.0542,-5.0542,-5.0542,-5.0542,-5.2436,-5.5618,-5.5573,-5.7527,-6.0655,-6.0642,-5.9881,-5.8903,0.0,-5.9581,-5.8371,-6.0041,-6.0655,-6.0655,-6.0655,-6.0655,-6.0655,-6.0655,-6.0655,-6.0655,-6.0655,-6.0702,-6.067,-6.0246,-6.0267,-5.9992,-5.8252,-5.7916,-5.7585,0.0,0.0,0.0,0.0,0.0,0.0,0.0,0.0,-5.305,-5.2202,-5.1688,-5.1404,-5.1406,-5.1406,-5.1719,-5.2598,0.0,0.0,0.0,0.0,0.0,0.0,0.0,0.0,0.0,0.0,0.0,-6.168,-6.1702,-6.1698,-6.1698,-6.1698,-6.1698,-6.1698,-6.1698,-6.1698,-6.1698,-6.1698,-6.1698,-6.1698,-6.1696,-6.1693,-6.1693,-6.1693,-6.1693,-6.1688,-6.1685,-6.1663,-6.1607,-6.1681,-6.1696,-6.168,-5.0544,-5.0523,-5.0521,-5.0603,-5.1188,-5.1687,-5.1788,-5.1972,-5.3106,-5.5906,-5.678,-5.7953,-6.0012,-6.0546,-6.0765,-6.0765,-6.0741,-6.0397,-5.9624,-5.9362,-5.9343,-5.9566,-5.8397,-5.82,-5.9178,-5.6597,-5.484,-5.4039,-5.2406,-5.1209,-5.05,-5.05,-5.05,-5.05,-5.05,-5.1979,-5.4553,-5.6026,-5.7759,-5.9569,-6.0258,-5.9977,0.0,-6.0162,-5.9938,-5.923,-6.0168,-6.0552,-6.0604,-6.0604,-6.0604,-6.0604,-6.0604,-6.0604,-6.0604,-6.0604,-6.0629,-6.0648,-6.0685,-6.0777,-6.064,-5.9694,-5.9524,-5.9181,-5.7497,-5.7159,-5.723,0.0,0.0,0.0,0.0,0.0,-5.3337,-5.1664,-5.1403,-5.1395,-5.1404,-5.1737,-5.2284,-5.3164,-5.4473,0.0,0.0,0.0,0.0,0.0,0.0,0.0,0.0,0.0,0.0,-6.1111,-6.1502,-6.1698,-6.1698,-6.1698,-6.1698,-6.1698,-6.1698,-6.1698,-6.1698,-6.1698,-6.1698,-6.1698,-6.1698,-6.1698,-6.1698,-6.1698,-6.1698,-6.1698,-6.1705,-6.1682,-6.1652,-6.1692,-6.1704,-6.1692,-5.0551,-5.0521,-5.0489,-5.05,-5.1832,-5.3031,-5.3428,-5.2431,-5.2988,-5.6774,-5.6824,-5.7393,-5.9719,-6.0606,-6.1036,-6.1036,-6.0993,-6.0259,-5.8643,-5.9926,-6.0054,-5.8406,-5.9746,-6.0512,-6.0499,-5.8859,-5.7156,-5.5402,-5.3759,-5.2127,-5.0459,-5.0459,-5.0459,-5.0459,-5.0459,-5.1532,-5.3526,-5.6719,-5.8207,-5.8521,-5.9919,-6.0485,-6.0485,-6.0417,-6.0403,-6.0403,-6.0403,-6.0472,-6.0578,-6.0578,-6.0578,-6.0578,-6.0578,-6.0578,-6.0578,-6.0578,-6.0578,-6.0604,-6.0667,-6.0685,-6.071,-6.0777,-6.08,-6.0423,-5.9031,-5.8722,-5.8796,-5.8978,-5.7802,-5.7613,0.0,0.0,-5.3526,-5.1986,-5.1913,-5.2056,-5.2079,-5.2724,-5.3489,-5.4237,0.0,0.0,0.0,0.0,0.0,0.0,0.0,0.0,0.0,0.0,0.0,-6.0558,-6.1301,0.0,-6.1698,0.0,-6.1698,-6.1698,-6.1698,-6.1698,-6.1698,-6.1698,-6.1698,-6.1698,-6.1698,-6.1698,-6.1698,-6.1698,-6.1696,-6.1668,-6.1654,-6.1651,-6.1634,-6.1631,-6.1631,-6.1637,-5.0424,-5.0371,-5.0371,-5.0489,-5.1832,-5.3386,-5.4793,-5.5893,-5.7079,-5.8551,-5.9914,-6.1179,-6.2336,-6.2676,-6.2834,-6.2834,-6.2822,-6.2393,-6.1371,-6.1582,-6.1269,-6.0188,-6.0425,-6.0552,-6.0499,-5.8853,-5.7162,-5.5396,-5.367,-5.1981,-5.0337,-5.0337,-5.0337,-5.0337,-5.0337,-5.2057,-5.5116,-5.7149,-5.8782,-6.001,-6.0302,-6.0417,-6.0417,-6.0403,-6.0403,-6.0403,-6.0403,-6.0417,-6.0431,-6.0431,-6.0431,-6.0431,-6.0431,-6.0431,-6.0431,-6.0431,-6.0472,-6.0525,-6.0539,-6.0629,-6.0697,-6.071,-6.0765,-6.0735,-6.0442,-6.0459,-6.0557,-6.0594,-6.0441,-6.0078,-5.9277,0.0,0.0,0.0,0.0,0.0,0.0,-5.5734,-5.5886,-5.6046,-5.6829,-5.7143,0.0,0.0,0.0,0.0,0.0,0.0,0.0,0.0,0.0,0.0,0.0,0.0,0.0,0.0,0.0,-6.1698,-6.1698,-6.1698,-6.1698,-6.1698,-6.1698,-6.1698,-6.1698,-6.1698,-6.1698,-6.1698,-6.1631,-6.1532,-6.1471,-6.1384,-6.1291,-6.1283,-6.1289,-6.1337,-5.0337,-5.0314,-5.0569,-5.1472,-5.334,-5.5273,-5.691,-5.8877,-6.0072,-5.9755,-6.0556,-6.1492,-6.2335,-6.2919,-6.3251,-6.3251,-6.3214,-6.3015,-6.2593,-6.2574,-6.2164,-6.1274,-6.1222,-6.0985,-6.0464,-5.966,-5.7984,-5.5403,-5.4562,-5.2824,-5.0302,-5.0302,-5.0302,-5.034,-5.12,-5.2518,-5.4218,-5.6837,-5.8391,-5.9185,-6.0045,-6.0403,-6.0403,-6.0403,-6.0403,-6.0403,-6.0403,-6.0403,-6.0403,-6.0403,-6.0403,-6.0403,-6.0403,-6.0403,-6.0403,-6.0403,-6.0417,-6.0458,-6.0485,-6.0552,-6.0597,-6.0673,-6.0722,-6.0765,-6.08,-6.0853,-6.089,-6.089,-6.0944,-6.048,-5.8852,-5.7207,0.0,0.0,0.0,0.0,0.0,0.0,-5.6994,-5.706,-5.7437,-5.7568,0.0,0.0,0.0,0.0,0.0,0.0,0.0,0.0,0.0,0.0,0.0,0.0,0.0,0.0,0.0,-6.1698,-6.1698,-6.1698,-6.1698,-6.1698,-6.1698,-6.1698,-6.1698,-6.1698,-6.1698,-6.1698,-6.1625,-6.151,-6.1456,-6.1342,-6.1196,-6.1201,-6.1198,-6.1232,-5.1023,-5.1214,-5.1858,-5.3447,-5.5646,-5.7604,-5.8858,-6.1093,-6.2262,-6.116,-6.1186,-6.1609,-6.2413,-6.3225,-6.3713,-6.3713,-6.37,-6.361,-6.3405,-6.3405,-6.3,-6.2109,-6.1904,-6.1442,-6.0717,-6.0499,-5.8918,-5.5938,-5.5575,-5.3932,-5.1104,-5.055,-5.0493,-5.0894,0.0,0.0,0.0,0.0,-5.8116,-5.8555,-5.9868,-6.0403,-6.0403,-6.0403,-6.0403,-6.0403,-6.0403,-6.0403,-6.0403,-6.0403,-6.0403,-6.0403,-6.0403,-6.0403,-6.0403,-6.0403,-6.0403,-6.0403,-6.0458,-6.0485,-6.0525,-6.0623,-6.0673,-6.071,-6.0777,-6.08,-6.08,-6.08,-6.08,-6.0319,-5.8722,-5.7695,0.0,0.0,0.0,0.0,0.0,0.0,-5.8176,-5.8101,-5.81,-5.8091,-5.8053,0.0,0.0,0.0,0.0,-5.8188,-5.9054,-5.8927,0.0,0.0,0.0,-6.1152,-6.1152,0.0,-6.1698,0.0,-6.1698,-6.1698,-6.1698,-6.1698,-6.1698,-6.1698,-6.1698,-6.1698,-6.1698,-6.1698,-6.1625,-6.149,-6.149,-6.1367,-6.1155,-6.1155,-6.1136,-6.1109,-5.3372,-5.4236,-5.5252,-5.6863,-5.854,-5.9713,-5.9865,-6.1928,-6.3429,-6.3312,-6.346,-6.3896,-6.4696,-6.5144,-6.5378,-6.5378,-6.5538,-6.5282,-6.4411,-6.4372,-6.3962,-6.302,-6.2218,-6.1756,-6.1666,-6.0832,-5.9491,-5.7676,-5.6148,-5.483,-5.3683,-5.1391,-5.1104,0.0,0.0,0.0,0.0,-5.7753,-5.8784,-6.0179,-6.0346,-6.0403,-6.0403,-6.0403,-6.0403,-6.0403,-6.0403,-6.0403,-6.0403,-6.0403,-6.0403,-6.0403,-6.0403,-6.0403,-6.0403,-6.0403,-6.0403,-6.0403,-6.0403,-6.0458,-6.0499,-6.0512,-6.0597,-6.0697,-6.0697,-6.0765,-6.08,-6.08,-6.08,-6.033,-5.8781,-5.9521,-5.9947,0.0,0.0,0.0,0.0,0.0,-6.0557,-5.9786,-5.9689,-5.9386,0.0,0.0,0.0,0.0,-5.7735,-5.8176,-5.9051,-5.836,-5.8326,-5.9183,0.0,-5.9336,-5.9336,-6.0917,0.0,-6.1698,-6.1698,-6.1698,-6.1698,-6.1698,-6.1698,-6.1698,-6.1698,-6.1698,-6.1698,-6.1698,-6.1625,-6.149,-6.149,-6.1292,-6.103,-6.103,-6.0943,-6.085,-5.6118,-5.6472,0.0,0.0,0.0,0.0,0.0,-6.3427,-6.4396,-6.4396,-6.4512,-6.4723,-6.5047,-6.5401,-6.5594,-6.5594,-6.5781,-6.5731,-6.5359,-6.534,-6.4911,-6.3981,-6.361,-6.2937,-6.1881,-6.1477,-6.0206,0.0,0.0,0.0,-5.3301,-5.227,0.0,0.0,0.0,-5.6625,-5.7963,-5.8956,-5.9778,-6.0403,-6.0403,-6.0403,-6.0403,-6.0403,-6.0403,-6.0403,-6.0403,-6.0403,-6.0403,-6.0403,-6.0403,-6.0403,-6.0403,-6.0403,-6.0403,-6.0403,-6.0403,-6.0403,-6.0403,-6.0417,-6.0444,-6.0485,-6.0539,-6.0597,-6.0673,-6.071,-6.0746,-6.08,-6.08,-6.0612,-5.9989,-5.9607,-5.9494,0.0,0.0,0.0,0.0,0.0,0.0,-6.0594,-6.0099,-5.9697,0.0,0.0,0.0,0.0,0.0,-5.83,-5.7631,-5.8712,0.0,-5.9102,0.0,-6.0629,-6.0547,-6.1312,-6.1663,-6.1584,-6.1663,-6.1698,-6.1698,-6.1698,-6.1698,-6.1698,-6.1698,-6.1698,-6.1698,-6.1698,-6.1561,-6.131,-6.131,-6.1147,-6.088,-6.0974,-6.0964,-6.0913,-5.8749,0.0,-5.9682,0.0,-6.2002,-6.2748,-6.3841,-6.4525,-6.4924,-6.4907,-6.4991,-6.5057,-6.5057,-6.5295,-6.5446,-6.5446,-6.5627,-6.5774,-6.5814,-6.5814,-6.5545,-6.4949,-6.4648,0.0,-6.2695,-6.2151,-6.1013,-5.916,-5.7206,0.0,0.0,0.0,0.0,0.0,-5.7371,-5.8173,-5.8708,-5.9892,-6.0403,-6.0403,-6.0403,-6.0403,-6.0403,-6.0403,-6.0403,-6.0403,-6.0403,-6.0403,-6.0403,-6.0403,-6.0403,-6.0403,-6.0403,-6.0403,-6.0403,-6.0403,-6.0403,-6.0403,-6.0403,-6.0403,-6.0403,-6.0458,-6.0485,-6.0539,-6.0635,-6.0704,-6.071,-6.0788,-6.08,-6.08,-6.08,-5.9884,-5.9482,-6.0612,0.0,0.0,0.0,-6.08,0.0,-6.0258,-5.9669,-5.9331,-5.9492,-5.9069,0.0,0.0,0.0,0.0,0.0,0.0,0.0,0.0,0.0,0.0,0.0,-6.1259,-6.1513,-6.1406,-6.1517,-6.1545,-6.1545,-6.1545,-6.1595,-6.1634,-6.1576,-6.1545,-6.1565,-6.1628,-6.1476,-6.1213,-6.1272,-6.1115,-6.0867,-6.0964,-6.0983,-6.0943,-6.1133,-6.2162,-6.3253,-6.487,-6.5158,-6.5106,-6.5006,-6.4989,-6.4974,-6.4907,-6.4907,-6.4907,-6.4907,-6.5023,-6.512,-6.512,-6.5283,-6.5469,-6.5594,-6.5594,-6.5696,0.0,0.0,-6.4501,-6.4481,-6.2772,-6.1869,-6.185,0.0,0.0,-5.9185,0.0,-5.7092,-5.7867,-5.7886,-5.8822,-6.0384,-6.0403,-6.0403,-6.0403,-6.0403,-6.0403,-6.0403,-6.0403,-6.0403,-6.0403,-6.0403,-6.0403,-6.0403,-6.0403,-6.0403,-6.0403,-6.0403,-6.0403,-6.0403,-6.0403,-6.0403,-6.0403,-6.0403,-6.0403,-6.0403,-6.0403,-6.0444,-6.0512,-6.0591,-6.0655,-6.071,-6.0788,-6.08,-6.08,-6.08,-6.0781,-6.0793,-6.08,0.0,0.0,0.0,0.0,0.0,-5.8531,-5.8319,0.0,-5.833,-5.8423,0.0,0.0,0.0,0.0,0.0,0.0,0.0,-5.8713,-5.8732,0.0,-5.8725,-6.037,-6.1213,-6.1193,-6.1213,-6.1213,-6.1213,-6.1213,-6.131,-6.1486,-6.1292,-6.1213,-6.1226,-6.1412,-6.139,-6.1226,-6.1426,-6.1279,-6.0993,-6.1002,-6.0922,-6.0812,-6.4008,-6.4317,-6.4648,-6.5136,-6.5196,-6.518,-6.5128,-6.5147,-6.5095,-6.4974,-6.4957,-6.4958,-6.4888,-6.5023,-6.5085,0.0,-6.5283,-6.5409,0.0,-6.5537,-6.5622,-6.5696,-6.5545,-6.518,-6.4584,-6.402,-6.3156,-6.1985,0.0,0.0,0.0,-5.7907,-5.84,-5.9734,-5.9734,-6.0041,-6.0539,-6.0485,-6.0499,-6.0525,-6.0431,-6.0458,-6.0539,-6.0485,-6.0499,-6.0539,-6.0539,-6.0539,-6.0539,-6.0539,-6.0539,-6.0539,-6.0539,-6.0499,-6.0472,-6.0525,-6.0539,-6.0539,-6.0539,-6.0539,-6.0525,-6.0485,-6.0512,-6.0578,-6.0591,-6.0692,-6.0757,-6.08,-6.08,-6.08,-6.08,-6.08,-6.08,-6.08,-6.08,0.0,0.0,0.0,-6.0589,-6.0069,-5.9992,0.0,0.0,-6.0132,0.0,0.0,0.0,0.0,0.0,0.0,0.0,0.0,-5.98,0.0,-6.027,-6.0883,-6.1155,-6.1053,-6.1155,-6.1206,-6.1206,-6.1206,-6.1233,-6.1292,-6.1226,-6.1206,-6.1193,-6.1279,-6.1211,-6.1081,-6.1131,-6.1049,-6.0877,-6.0964,-6.0974,-6.0943,-6.5337,-6.5337,-6.5321,-6.5274,-6.5277,-6.5261,-6.5196,-6.5196,-6.5147,-6.4974,-6.4957,-6.4958,-6.4888,-6.4974,0.0,-6.5023,-6.5142,-6.5239,-6.5283,-6.5375,-6.5465,-6.5509,-6.5682,-6.5532,-6.4994,0.0,0.0,-6.2989,-6.1253,-5.996,-5.9081,-5.9081,-5.9625,-6.0604,-6.0604,-6.0604,-6.0604,-6.0552,-6.0565,-6.0591,-6.0512,-6.0525,-6.0591,-6.0552,-6.0565,-6.0604,-6.0604,-6.0604,-6.0604,-6.0604,-6.0604,-6.0604,-6.0629,-6.0617,-6.0578,-6.0591,-6.0604,-6.0604,-6.0604,-6.0604,-6.0591,-6.0552,-6.0565,-6.0604,-6.0642,-6.0729,-6.08,-6.08,-6.08,-6.08,-6.08,-6.08,-6.08,-6.08,-6.08,-6.08,-6.08,0.0,0.0,0.0,0.0,0.0,0.0,-5.9933,0.0,0.0,0.0,0.0,0.0,0.0,0.0,-5.9489,-6.0513,0.0,-6.0923,-6.1011,-6.1011,-6.0923,-6.102,-6.107,-6.1116,-6.107,-6.1079,-6.1116,-6.107,-6.1055,-6.1044,-6.1092,-6.1046,-6.0933,-6.0993,-6.0913,-6.0804,-6.089,-6.0923,-6.0923,-6.5394,-6.5394,0.0,0.0,-6.5394,0.0,-6.5229,-6.5196,-6.513,-6.4942,-6.4925,-6.4907,-6.4907,-6.4907,-6.4907,-6.4907,0.0,0.0,0.0,-6.5085,-6.5185,-6.5364,-6.5509,-6.5594,-6.5594,-6.4981,-6.4654,-6.4609,-6.2916,-6.1642,-6.0793,-6.0736,-6.066,-6.0617,-6.0617,-6.0617,-6.0617,-6.0604,-6.0617,-6.0617,-6.0604,-6.0604,-6.0617,-6.0604,-6.0617,-6.0617,-6.0617,-6.0617,-6.0617,-6.0617,-6.0617,-6.0629,-6.0704,-6.0717,-6.0685,-6.0642,-6.0617,-6.0617,-6.0617,-6.0617,-6.0617,-6.0604,-6.0604,-6.0629,-6.0685,-6.0765,-6.08,-6.08,-6.08,-6.08,-6.08,-6.08,-6.08,-6.08,-6.08,-6.08,-6.08,0.0,0.0,0.0,0.0,0.0,0.0,-5.8473,-5.9069,0.0,0.0,0.0,0.0,0.0,-5.9205,-6.0754,-6.08,-6.08,-6.08,-6.08,-6.08,-6.08,-6.08,-6.0867,-6.0974,-6.0864,-6.0867,-6.0983,-6.0845,-6.08,-6.0804,-6.0933,-6.0902,-6.0804,-6.0943,-6.0911,-6.08,-6.08,-6.08,-6.08,0.0,0.0,-6.5394,-6.5394,-6.5394,-6.5379,-6.5368,-6.5305,-6.5245,-6.513,-6.5044,-6.4958,-6.4907,-6.4907,-6.4907,-6.4907,-6.4907,-6.4906,-6.4958,-6.5038,-6.5136,-6.5169,-6.5345,-6.5499,-6.5594,-6.5444,-6.5108,-6.4609,-6.2916,-6.1993,-6.175,-6.1096,-6.0777,-6.0753,-6.0753,-6.0753,-6.0753,-6.0704,-6.0717,-6.0753,-6.0642,-6.0667,-6.0753,-6.0704,-6.0717,-6.0753,-6.0753,-6.0753,-6.0753,-6.0753,-6.0753,-6.0765,-6.0777,-6.0777,-6.0777,-6.0765,-6.0753,-6.0753,-6.0753,-6.0753,-6.0741,-6.0704,-6.0692,-6.0685,-6.0765,-6.0788,-6.08,-6.08,-6.08,-6.08,-6.08,-6.08,-6.08,-6.08,-6.08,-6.08,-6.08,-6.08,0.0,0.0,-6.0204,-6.0204,-6.0204,-6.0204,-5.9838,0.0,0.0,0.0,0.0,0.0,-5.9087,-6.0742,-6.08,-6.08,-6.08,-6.08,-6.08,-6.08,-6.08,-6.0816,-6.0853,-6.0816,-6.0816,-6.0842,-6.0804,-6.08,-6.0812,-6.0831,-6.0839,-6.0812,-6.0831,-6.0839,-6.08,-6.08,-6.08,-6.08,-6.5394,-6.5394,-6.5394,-6.5394,-6.5394,-6.5379,-6.5368,-6.5309,-6.5229,-6.5111,-6.5027,-6.4941,-6.4907,-6.4907,-6.4907,-6.4907,-6.4907,-6.4907,-6.4907,-6.4957,-6.5006,-6.5006,-6.5172,-6.5298,-6.5371,-6.5465,-6.5177,-6.452,-6.3598,-6.297,-6.2627,-6.1781,-6.1389,-6.1377,-6.0973,-6.08,-6.08,-6.0746,-6.0777,-6.08,-6.0729,-6.0741,-6.08,-6.0765,-6.0777,-6.08,-6.08,-6.08,-6.08,-6.0729,-6.0753,-6.0788,-6.0729,-6.0753,-6.08,-6.08,-6.08,-6.08,-6.08,-6.08,-6.08,-6.0746,-6.0753,-6.0765,-6.08,-6.08,-6.08,-6.08,-6.08,-6.08,-6.08,-6.08,-6.08,-6.08,-6.0165,-5.9915,-6.0685,-6.0146,0.0,-6.0704,-6.08,-6.08,-6.08,-6.08,-6.0416,-5.9511,0.0,0.0,-5.9435,-5.9435,-5.9858,-6.0762,-6.08,-6.08,-6.08,-6.08,-6.08,-6.08,-6.08,-6.08,-6.08,-6.08,-6.08,-6.08,-6.08,-6.08,-6.08,-6.08,-6.08,-6.08,-6.08,-6.08,-6.08,-6.08,-6.08,-6.08,-6.5433,-6.5394,-6.5394,-6.5394,-6.5394,-6.5383,-6.5321,-6.5261,-6.518,-6.5059,-6.4976,-6.4925,-6.4925,-6.4907,-6.4907,-6.4907,-6.4907,-6.4907,-6.4907,-6.4907,-6.4907,-6.4907,-6.5006,-6.5087,-6.5085,-6.5298,-6.511,-6.4545,-6.4444,-6.4083,-6.3456,-6.2654,-6.2216,-6.2082,-6.132,-6.0916,-6.08,-6.08,-6.08,-6.08,-6.08,-6.08,-6.08,-6.08,-6.08,-6.08,-6.08,-6.08,-6.0788,-6.0667,-6.0692,-6.0753,-6.0642,-6.068,-6.0777,-6.0777,-6.0788,-6.08,-6.08,-6.08,-6.08,-6.08,-6.08,-6.08,-6.08,-6.08,-6.08,-6.08,-6.08,-6.08,-6.08,-6.08,-6.0762,-6.0627,-5.9511,-5.9127,-6.0416,0.0,-5.9204,-6.0627,-6.08,-6.08,-6.08,-6.08,-6.08,-6.08,-6.08,-6.08,0.0,-6.08,-6.08,-6.08,-6.08,-6.08,-6.08,-6.08,-6.08,-6.08,-6.08,-6.08,-6.08,-6.08,-6.08,-6.08,-6.08,-6.08,-6.08,-6.08,-6.08,-6.08,-6.08,-6.08,-6.08,-6.08,-6.08,-6.08,-6.5547,-6.5394,-6.5394,-6.5394,-6.5394,-6.5394,-6.5398,-6.5321,-6.5277,-6.5261,-6.5111,-6.4991,-6.4991,-6.4941,-6.4907,-6.4907,-6.4907,-6.4907,-6.4907,-6.4907,-6.4907,-6.4907,-6.4906,-6.4991,-6.5104,-6.5298,-6.5352,-6.5248,-6.469,-6.4337,-6.421,-6.3463,-6.2743,-6.2101,-6.1966,-6.1493,-6.08,-6.08,-6.08,-6.08,-6.08,-6.08,-6.08,-6.08,-6.08,-6.08,-6.08,-6.08,-6.08,-6.0777,-6.0717,-6.0629,-6.0604,-6.0617,-6.0629,-6.0629,-6.0717,-6.08,-6.08,-6.08,-6.08,-6.08,-6.08,-6.08,-6.08,-6.08,-6.08,-6.08,-6.08,-6.08,-6.08,-6.08,-6.055,-5.9819,-6.0108,-6.0242,-5.9762,0.0,-6.0512,-6.0762,-6.08,-6.08,-6.08,-6.08,-6.08,-6.08,-6.08,-6.08,-6.08,-6.08,-6.08,-6.08,-6.08,-6.08,-6.08,-6.08,-6.08,-6.08,-6.08,-6.08,-6.08,-6.08,-6.08,-6.08,-6.08,-6.08,-6.08,-6.08,-6.08,-6.08,-6.08,-6.08,-6.08,-6.08,-6.08,-6.08,-6.6827,-6.6751,-6.6751,-6.6751,-6.6388,-6.6101,-6.6101,-6.5642,-6.5309,-6.5309,-6.5177,-6.5095,-6.5008,-6.4974,-6.4941,-6.4907,-6.4907,-6.4907,-6.4907,-6.4907,-6.4907,-6.4907,-6.4907,-6.4924,-6.4991,-6.5076,-6.5174,-6.5252,-6.4929,-6.4832,-6.492,-6.4115,-6.3529,-6.3146,-6.2798,-6.2151,-6.1345,-6.1345,-6.1125,-6.08,-6.0729,-6.0741,-6.08,-6.08,-6.08,-6.08,-6.08,-6.08,-6.0788,-6.0717,-6.0704,-6.0704,-6.0629,-6.0655,-6.0717,-6.0717,-6.0753,-6.08,-6.08,-6.08,-6.08,-6.08,-6.08,-6.08,-6.08,-6.08,-6.08,-6.08,-6.08,-6.08,-6.08,-6.08,-6.0666,-6.0262,-5.9781,0.0,0.0,-5.9762,-5.9781,-6.0685,-6.08,-6.08,-6.08,-6.08,-6.08,-6.08,-6.08,-6.08,-6.08,-6.08,-6.08,-6.08,-6.08,-6.08,-6.08,-6.08,-6.08,-6.08,-6.08,-6.08,-6.08,-6.08,-6.08,-6.08,-6.08,-6.08,-6.08,-6.08,-6.08,-6.08,-6.08,-6.08,-6.08,-6.08,-6.08,-6.08,-6.7935,-6.7897,-6.7897,-6.7897,-6.7381,-6.698,-6.698,-6.6364,-6.5912,-6.5912,-6.5849,-6.5767,-6.5646,-6.5612,-6.5543,-6.5511,-6.5494,-6.54,-6.5192,-6.5192,-6.5097,-6.4907,-6.4907,-6.4907,-6.4907,-6.4907,-6.4958,-6.5038,-6.5068,-6.5185,-6.5314,-6.4676,-6.429,-6.408,-6.3561,-6.2837,-6.2033,-6.2027,-6.1633,-6.0973,-6.0917,-6.084,-6.0765,-6.0788,-6.08,-6.08,-6.08,-6.08,-6.0788,-6.068,-6.0704,-6.0741,-6.0629,-6.068,-6.0753,-6.0753,-6.0777,-6.08,-6.08,-6.08,-6.08,-6.08,-6.08,-6.08,-6.08,-6.08,-6.08,-6.08,-6.08,-6.08,-6.08,-6.08,-6.0723,-6.0531,0.0,0.0,0.0,-5.955,-5.9358,-6.0646,-6.08,-6.08,-6.08,-6.08,-6.08,-6.08,-6.08,-6.08,-6.08,-6.08,-6.08,-6.08,-6.08,-6.08,-6.08,-6.08,-6.08,-6.08,-6.08,-6.08,-6.08,-6.08,-6.08,-6.08,-6.08,-6.08,-6.08,-6.08,-6.08,-6.08,-6.08,-6.08,-6.08,-6.08,-6.08,-6.08,-6.805,-6.7897,-6.7897,-6.7897,-6.784,-6.7802,-6.7802,-6.7744,-6.7706,-6.7706,-6.7646,-6.7597,-6.7581,-6.7429,-6.7306,-6.7307,-6.7255,-6.6878,-6.6063,-6.6006,-6.5684,-6.4926,-6.4907,-6.4907,-6.4907,-6.4907,-6.4888,-6.4906,-6.504,-6.512,-6.5117,-6.5241,-6.4879,-6.4099,-6.4057,-6.3541,-6.272,-6.272,-6.2276,-6.1559,-6.1669,-6.1275,-6.0629,-6.0753,-6.08,-6.08,-6.08,-6.08,-6.08,-6.0788,-6.0717,-6.0617,-6.0604,-6.0604,-6.0617,-6.0617,-6.0704,-6.08,-6.08,-6.08,-6.08,-6.08,-6.08,-6.08,-6.08,-6.08,-6.08,-6.08,-6.08,-6.08,-6.08,-6.08,-6.0531,-5.9723,0.0,0.0,-5.9685,-6.0185,-6.0666,-6.0781,-6.08,-6.08,-6.08,-6.08,-6.08,-6.08,-6.08,-6.08,-6.08,-6.08,-6.08,-6.08,-6.08,-6.08,-6.08,-6.08,-6.08,-6.08,-6.08,-6.08,-6.08,-6.08,-6.08,-6.08,-6.08,-6.08,-6.08,-6.08,-6.08,-6.08,-6.08,-6.08,-6.08,-6.08,-6.08,-6.08,-6.9521,-6.9444,-6.9444,-6.9444,-6.9043,-6.8699,-6.8699,-6.8241,-6.7897,-6.7897,-6.7881,-6.7853,-6.7804,-6.7688,-6.7585,-6.7496,-6.7445,-6.7257,-6.6935,-6.6916,-6.631,-6.4964,-6.4907,-6.4907,-6.4907,-6.4907,-6.4907,-6.4907,-6.4958,-6.4974,-6.4974,-6.5042,-6.4904,-6.46,-6.4676,-6.4267,-6.347,-6.3485,-6.3051,-6.2342,-6.2298,-6.2151,-6.192,-6.1556,-6.1416,-6.1371,-6.095,-6.08,-6.08,-6.08,-6.0765,-6.0729,-6.0729,-6.0729,-6.0729,-6.0729,-6.0765,-6.08,-6.08,-6.08,-6.08,-6.08,-6.08,-6.08,-6.08,-6.08,-6.08,-6.08,-6.08,-6.08,-6.08,-6.08,-6.0685,-6.0358,0.0,-6.0685,-6.0339,-6.0589,-6.08,-6.08,-6.08,-6.08,-6.08,-6.08,-6.08,-6.08,-6.08,-6.08,-6.08,-6.08,-6.08,-6.08,-6.08,-6.08,-6.08,-6.08,-6.08,-6.08,-6.08,-6.08,-6.08,-6.08,-6.08,-6.08,-6.08,-6.08,-6.08,-6.08,-6.08,-6.08,-6.08,-6.08,-6.08,-6.08,-6.08,-6.08,-7.0362,-7.04,-7.04,-7.04,-6.9941,-6.9578,-6.9578,-6.9062,-6.868,-6.868,-6.868,-6.8664,-6.8619,-6.8555,-6.847,-6.8347,-6.8277,-6.809,-6.7788,-6.7542,-6.6765,-6.5343,-6.504,-6.4907,-6.4907,-6.4907,-6.4907,-6.4907,-6.4907,-6.4907,-6.4907,-6.4907,-6.4907,-6.4907,-6.5008,-6.4736,-6.4206,-6.4204,-6.3756,-6.3051,-6.3026,-6.2902,-6.2684,-6.227,-6.2142,-6.2157,-6.1684,-6.138,-6.1204,-6.1204,-6.1031,-6.08,-6.08,-6.08,-6.08,-6.08,-6.08,-6.08,-6.08,-6.08,-6.08,-6.08,-6.08,-6.08,-6.08,-6.08,-6.08,-6.08,-6.08,-6.08,-6.08,-6.08,-6.08,-6.08,-6.08,-6.08,-6.08,-6.08,-6.08,-6.08,-6.08,-6.08,-6.08,-6.08,-6.08,-6.08,-6.08,-6.08,-6.08,-6.08,-6.08,-6.08,-6.08,-6.08,-6.08,-6.08,-6.08,-6.08,-6.08,-6.08,-6.08,-6.08,-6.08,-6.08,-6.08,-6.08,-6.08,-6.08,-6.08,-6.08,-6.08,-6.08,-6.08,-6.08,-6.08,-6.08,-7.0228,-7.04,-7.04,-7.04,-7.04,-7.04,-7.04,-7.04,-7.04,-7.04,-7.04,-7.04,-7.04,-7.0336,-7.027,-7.0222,-7.0077,-6.9605,-6.8678,-6.7864,-6.7011,-6.6158,-6.5343,-6.4907,-6.4907,-6.4907,-6.4907,-6.4907,-6.4907,-6.4907,-6.4907,-6.4907,-6.4907,-6.4907,-6.4907,-6.4907,-6.4907,-6.4907,-6.4415,-6.3619,-6.3823,-6.3394,-6.263,-6.2761,-6.294,-6.3102,-6.3115,-6.267,-6.212,-6.212,-6.1543,-6.0819,-6.08,-6.08,-6.08,-6.08,-6.08,-6.08,-6.08,-6.08,-6.08,-6.08,-6.08,-6.08,-6.08,-6.08,-6.08,-6.08,-6.08,-6.08,-6.08,-6.08,-6.08,-6.08,-6.08,-6.08,-6.08,-6.08,-6.08,-6.08,-6.08,-6.08,-6.08,-6.08,-6.08,-6.08,-6.08,-6.08,-6.08,-6.08,-6.08,-6.08,-6.08,-6.08,-6.08,-6.08,-6.08,-6.08,-6.08,-6.08,-6.08,-6.08,-6.08,-6.08,-6.08,-6.08,-6.08,-6.08,-6.08,-6.08,-6.08,-6.08,-6.08,-6.08,-6.08,-6.08,-6.8604,-6.9139,-6.9559,-6.9559,-7.0018,-7.04,-7.04,-7.04,-7.04,-7.04,-7.04,-7.04,-7.04,-7.0336,-7.0288,-7.027,-7.0203,-6.9962,-6.9605,-6.8735,-6.8129,-6.7864,-6.6499,-6.5476,-6.4907,-6.4907,-6.4907,-6.4907,-6.4907,-6.4907,-6.4907,-6.4907,-6.4907,-6.4907,-6.4907,-6.4907,-6.4907,-6.4907,-6.4756,-6.4528,-6.4581,-6.4446,-6.416,-6.3734,-6.3619,-6.3619,-6.3244,-6.2969,-6.283,-6.2899,-6.2781,-6.2454,-6.1877,-6.1281,-6.08,-6.08,-6.08,-6.08,-6.08,-6.08,-6.08,-6.08,-6.08,-6.08,-6.08,-6.08,-6.08,-6.08,-6.08,-6.08,-6.08,-6.08,-6.08,-6.08,-6.08,-6.08,-6.08,-6.08,-6.08,-6.08,-6.08,-6.08,-6.08,-6.08,-6.08,-6.08,-6.08,-6.08,-6.08,-6.08,-6.08,-6.08,-6.08,-6.08,-6.08,-6.08,-6.08,-6.08,-6.08,-6.08,-6.08,-6.08,-6.08,-6.08,-6.08,-6.08,-6.08,-6.08,-6.08,-6.08,-6.08,-6.08,-6.08,-6.08,-6.08,-6.08,-6.784,-6.8317,-6.8795,-6.9139,-6.9597,-7.0037,-7.0362,-7.04,-7.04,-7.04,-7.04,-7.04,-7.04,-7.0369,-7.0338,-7.0305,-7.0238,-7.0149,-7.0003,-6.9473,-6.8981,-6.8622,-6.7636,-6.6556,-6.54,-6.5381,-6.5229,-6.4907,-6.4907,-6.4907,-6.4907,-6.4907,-6.4907,-6.4907,-6.4907,-6.4907,-6.4907,-6.4907,-6.4907,-6.4907,-6.4907,-6.4907,-6.485,-6.4459,-6.4334,-6.4321,-6.4008,-6.3772,-6.3627,-6.3706,-6.354,-6.3224,-6.2724,-6.1993,-6.13,-6.13,-6.1069,-6.08,-6.08,-6.08,-6.08,-6.08,-6.08,-6.08,-6.08,-6.08,-6.08,-6.08,-6.08,-6.08,-6.08,-6.08,-6.08,-6.08,-6.08,-6.08,-6.08,-6.08,-6.08,-6.08,-6.08,-6.08,-6.08,-6.08,-6.08,-6.08,-6.08,-6.08,-6.08,-6.08,-6.08,-6.08,-6.08,-6.08,-6.08,-6.08,-6.08,-6.08,-6.08,-6.08,-6.08,-6.08,-6.08,-6.08,-6.08,-6.08,-6.08,-6.08,-6.08,-6.08,-6.08,-6.08,-6.08,-6.08,-6.08,-6.08,-6.7534,-6.7725,-6.8031,-6.8833,-6.9101,-6.9444,-7.019,-7.0362,-7.04,-7.04,-7.04,-7.04,-7.04,-7.04,-7.0386,-7.0302,-7.0255,-7.0149,-7.0021,-7.0003,-6.9624,-6.8735,-6.8716,-6.7977,-6.6367,-6.6177,-6.5741,-6.5021,-6.4945,-6.4907,-6.4907,-6.4907,-6.4907,-6.4907,-6.4907,-6.4907,-6.4907,-6.4907,-6.4907,-6.4907,-6.4907,-6.4907,-6.4907,-6.4907,-6.4974,-6.5087,-6.5104,-6.4833,-6.4468,-6.4515,-6.4001,-6.3392,-6.3404,-6.2858,-6.2216,-6.2216,-6.1589,-6.0916,-6.0916,-6.0858,-6.08,-6.08,-6.08,-6.08,-6.08,-6.08,-6.08,-6.08,-6.08,-6.08,-6.08,-6.08,-6.08,-6.08,-6.08,-6.08,-6.08,-6.08,-6.08,-6.08,-6.08,-6.08,-6.08,-6.08,-6.08,-6.08,-6.08,-6.08,-6.08,-6.08,-6.08,-6.08,-6.08,-6.08,-6.08,-6.08,-6.08,-6.08,-6.08,-6.08,-6.08,-6.08,-6.08,-6.08,-6.08,-6.08,-6.08,-6.08,-6.08,-6.08,-6.08,-6.08,-6.08,-6.08,-6.08,-6.08,-6.591,-6.6483,-6.7018,-6.7209,-6.8336,-6.9253,-6.9425,-6.9999,-7.04,-7.04,-7.04,-7.04,-7.04,-7.04,-7.0383,-7.0386,-7.0322,-7.0236,-7.0167,-7.0058,-6.989,-6.9645,-6.9607,-6.9133,-6.8072,-6.6765,-6.6006,-6.5836,-6.5211,-6.4907,-6.4907,-6.4907,-6.4907,-6.4907,-6.4907,-6.4907,-6.4907,-6.4907,-6.4907,-6.4907,-6.4907,-6.4907,-6.4907,-6.4907,-6.4906,-6.4958,-6.5054,-6.5019,-6.4997,-6.5255,-6.4797,-6.4179,-6.4283,-6.3724,-6.3051,-6.3051,-6.2454,-6.1831,-6.1831,-6.132,-6.08,-6.08,-6.08,-6.08,-6.08,-6.08,-6.08,-6.08,-6.08,-6.08,-6.08,-6.08,-6.08,-6.08,-6.08,-6.08,-6.08,-6.08,-6.08,-6.08,-6.08,-6.08,-6.08,-6.08,-6.08,-6.08,-6.08,-6.08,-6.08,-6.08,-6.08,-6.08,-6.08,-6.08,-6.08,-6.08,-6.08,-6.08,-6.08,-6.08,-6.08,-6.08,-6.08,-6.08,-6.08,-6.08,-6.08,-6.08,-6.08,-6.08,-6.08,-6.08,-6.08,-6.08,-6.08,-6.08,-6.5394,-6.5776,-6.6216,-6.6636,-6.7744,-6.8719,-6.9139,-6.9884,-7.04,-7.04,-7.04,-7.04,-7.04,-7.04,-7.04,-7.04,-7.0369,-7.0322,-7.0255,-7.0184,-7.0113,-7.0041,-6.9966,-6.972,-6.9284,-6.7958,-6.6897,-6.6101,-6.5684,-6.5286,-6.4907,-6.4907,-6.4907,-6.4907,-6.4907,-6.4907,-6.4907,-6.4907,-6.4907,-6.4907,-6.4907,-6.4907,-6.4907,-6.4907,-6.4907,-6.4925,-6.4974,-6.5057,-6.5153,-6.542,-6.5226,-6.4891,-6.5043,-6.4507,-6.3847,-6.3891,-6.3339,-6.2589,-6.2197,-6.1774,-6.132,-6.0896,-6.08,-6.08,-6.08,-6.08,-6.08,-6.08,-6.08,-6.08,-6.08,-6.08,-6.08,-6.08,-6.08,-6.08,-6.08,-6.08,-6.08,-6.08,-6.08,-6.08,-6.08,-6.08,-6.08,-6.08,-6.08,-6.08,-6.08,-6.08,-6.08,-6.08,-6.08,-6.08,-6.08,-6.08,-6.08,-6.08,-6.08,-6.08,-6.08,-6.08,-6.08,-6.08,-6.08,-6.08,-6.08,-6.08,-6.08,-6.08,-6.0757,-6.0746,-6.0753,-6.0729,-6.071,-6.0746,-6.5394,-6.5394,-6.5624,-6.635,-6.7267,-6.8126,-6.8871,-6.9788,-7.04,-7.04,-7.04,-7.04,-7.04,-7.04,-7.04,-7.04,-7.04,-7.0369,-7.0305,-7.0305,-7.0253,-7.0185,-7.0077,-7.0003,-7.0003,-6.9227,-6.8072,-6.6537,-6.6234,-6.576,-6.5097,-6.4964,-6.4907,-6.4907,-6.4907,-6.4907,-6.4907,-6.4907,-6.4907,-6.4907,-6.4907,-6.4907,-6.4907,-6.4907,-6.4907,-6.4907,-6.4907,-6.4974,-6.5087,-6.5283,-6.5349,-6.536,-6.5509,-6.512,-6.4638,-6.4725,-6.418,-6.3378,-6.2704,-6.2428,-6.2089,-6.1243,-6.1012,-6.0973,-6.0819,-6.08,-6.08,-6.08,-6.08,-6.08,-6.08,-6.08,-6.08,-6.08,-6.08,-6.08,-6.08,-6.08,-6.08,-6.08,-6.08,-6.08,-6.08,-6.08,-6.08,-6.08,-6.08,-6.08,-6.08,-6.08,-6.08,-6.08,-6.08,-6.08,-6.08,-6.08,-6.08,-6.08,-6.08,-6.08,-6.08,-6.08,-6.08,-6.08,-6.08,-6.08,-6.08,-6.08,-6.08,-6.08,-6.0753,-6.071,-6.0697,-6.0655,-6.068,-6.0729,-6.5394,-6.5394,-6.5433,-6.5566,-6.6865,-6.7935,-6.805,-6.9406,-7.04,-7.04,-7.04,-7.04,-7.04,-7.04,-7.04,-7.04,-7.04,-7.0369,-7.0305,-7.0305,-7.0253,-7.0185,-7.0077,-7.0003,-7.0003,-6.9815,-6.9228,-6.8262,-6.6821,-6.6044,-6.5931,-6.5229,-6.4907,-6.4907,-6.4907,-6.4907,-6.4907,-6.4907,-6.4907,-6.4907,-6.4907,-6.4907,-6.4907,-6.4907,-6.4907,-6.4907,-6.4907,-6.4906,-6.4958,-6.5087,-6.5153,-6.5169,-6.5379,-6.5417,-6.5435,-6.5449,-6.4968,-6.4397,-6.4282,-6.3705,-6.2935,-6.2139,-6.1928,-6.1735,-6.0973,-6.08,-6.08,-6.08,-6.08,-6.08,-6.08,-6.08,-6.08,-6.08,-6.08,-6.08,-6.08,-6.08,-6.08,-6.08,-6.08,-6.08,-6.08,-6.08,-6.08,-6.08,-6.08,-6.08,-6.08,-6.08,-6.08,-6.08,-6.08,-6.08,-6.08,-6.08,-6.08,-6.08,-6.08,-6.08,-6.08,-6.08,-6.08,-6.08,-6.08,-6.08,-6.08,-6.08,-6.08,-6.08,-6.08,-6.0788,-6.0788,-6.0777,-6.0788,-6.0788,-6.5394,-6.5394,-6.5394,-6.5394,-6.6789,-6.7897,-6.7897,-6.933,-7.04,-7.04,-7.04,-7.04,-7.04,-7.04,-7.04,-7.04,-7.04,-7.0402,-7.0353,-7.0353,-7.0336,-7.0322,-7.0184,-7.0113,-7.0113,-6.9985,-6.9702,-6.9323,-6.8091,-6.703,-6.6101,-6.5741,-6.5343,-6.4907,-6.4907,-6.4907,-6.4907,-6.4907,-6.4907,-6.4907,-6.4907,-6.4907,-6.4907,-6.4907,-6.4907,-6.4907,-6.4907,-6.4907,-6.4907,-6.4957,-6.4991,-6.5025,-6.5188,-6.5345,-6.5494,-6.558,-6.5473,-6.5224,-6.4724,-6.432,-6.382,-6.2974,-6.2762,-6.2551,-6.1723,-6.1543,-6.1389,-6.0896,-6.08,-6.08,-6.08,-6.08,-6.08,-6.08,-6.08,-6.08,-6.08,-6.08,-6.08,-6.08,-6.08,-6.08,-6.08,-6.08,-6.08,-6.08,-6.08,-6.08,-6.08,-6.08,-6.08,-6.08,-6.08,-6.08,-6.08,-6.08,-6.08,-6.08,-6.08,-6.08,-6.08,-6.08,-6.08,-6.08,-6.08,-6.08,-6.08,-6.08,-6.08,-6.08,-6.0765,-6.0729,-6.0692,-6.0692,-6.0717,-6.0734]},{"header":{"parameterUnit":"m.s-1","parameterCategory":1,"la1":30.6,"la2":28.766,"lo1":-90.7593,"lo2":-88.6598,"dy":0.0162,"dx":0.0183,"nx":116,"ny":114,"refTime":"2024-05-04T06:00:00:Z","depth":0,"parameterNumber":3,"parameterNumberName":"V-component_of_WINDS"},"data":[0.0,0.0,0.0,0.0,0.0,0.0,0.0,0.0,0.0,0.0,0.0,0.0,0.0,0.0,0.0,0.0,0.0,0.0,0.0,0.0,0.0,0.0,0.0,0.0,0.0,0.0,0.0,0.0,0.0,0.0,0.0,0.0,0.0,0.0,0.0,0.0,0.0,0.0,0.0,0.0,0.0,0.0,0.0,0.0,0.0,0.0,0.0,0.0,0.0,0.0,0.0,0.0,0.0,0.0,0.0,0.0,0.0,0.0,0.0,0.0,0.0,0.0,0.0,0.0,0.0,0.0,0.0,0.0,0.0,0.0,0.0,0.0,0.0,0.0,0.0,0.0,0.0,0.0,0.0,0.0,0.0,0.0,0.0,0.0,0.0,0.0,0.0,0.0,0.0,0.0,0.0,0.0,0.0,0.0,0.0,0.0,0.0,0.0,0.0,0.0,0.0,0.0,0.0,0.0,0.0,0.0,0.0,0.0,0.0,0.0,0.0,0.0,0.0,0.0,0.0,0.0,0.0,0.0,0.0,0.0,0.0,0.0,0.0,0.0,0.0,0.0,0.0,0.0,0.0,0.0,0.0,0.0,0.0,0.0,0.0,0.0,0.0,0.0,0.0,0.0,0.0,0.0,0.0,0.0,0.0,0.0,0.0,0.0,0.0,0.0,0.0,0.0,0.0,0.0,0.0,0.0,0.0,0.0,0.0,0.0,0.0,0.0,0.0,0.0,0.0,0.0,0.0,0.0,0.0,0.0,0.0,0.0,0.0,0.0,0.0,0.0,0.0,0.0,0.0,0.0,0.0,0.0,0.0,0.0,0.0,0.0,0.0,0.0,0.0,0.0,0.0,0.0,0.0,0.0,0.0,0.0,0.0,0.0,0.0,0.0,0.0,0.0,0.0,0.0,0.0,0.0,0.0,0.0,0.0,0.0,0.0,0.0,0.0,0.0,0.0,0.0,0.0,0.0,0.0,0.0,0.0,0.0,0.0,0.0,0.0,0.0,0.0,0.0,0.0,0.0,0.0,0.0,0.0,0.0,0.0,0.0,0.0,0.0,0.0,0.0,0.0,0.0,0.0,0.0,0.0,0.0,0.0,0.0,0.0,0.0,0.0,0.0,0.0,0.0,0.0,0.0,0.0,0.0,0.0,0.0,0.0,0.0,0.0,0.0,0.0,0.0,0.0,0.0,0.0,0.0,0.0,0.0,0.0,0.0,0.0,0.0,0.0,0.0,0.0,0.0,0.0,0.0,0.0,0.0,0.0,0.0,0.0,0.0,0.0,0.0,0.0,0.0,0.0,0.0,0.0,0.0,0.0,0.0,0.0,0.0,0.0,0.0,0.0,0.0,0.0,0.0,0.0,0.0,0.0,0.0,0.0,0.0,0.0,0.0,0.0,0.0,0.0,0.0,0.0,0.0,0.0,0.0,0.0,0.0,0.0,0.0,0.0,0.0,0.0,0.0,0.0,0.0,0.0,0.0,0.0,0.0,0.0,0.0,0.0,0.0,0.0,0.0,0.0,0.0,0.0,0.0,0.0,0.0,0.0,0.0,0.0,0.0,0.0,0.0,0.0,0.0,0.0,0.0,0.0,0.0,0.0,0.0,0.0,0.0,0.0,0.0,0.0,0.0,0.0,0.0,0.0,0.0,0.0,0.0,0.0,0.0,0.0,0.0,0.0,0.0,0.0,0.0,0.0,0.0,0.0,0.0,0.0,0.0,0.0,0.0,0.0,0.0,0.0,0.0,0.0,0.0,0.0,0.0,0.0,0.0,0.0,0.0,0.0,0.0,0.0,0.0,0.0,0.0,0.0,0.0,0.0,0.0,0.0,0.0,0.0,0.0,0.0,0.0,0.0,0.0,0.0,0.0,0.0,0.0,0.0,0.0,0.0,0.0,0.0,0.0,0.0,0.0,0.0,0.0,0.0,0.0,0.0,0.0,0.0,0.0,0.0,0.0,0.0,0.0,0.0,0.0,0.0,0.0,0.0,0.0,0.0,0.0,0.0,0.0,0.0,0.0,0.0,0.0,0.0,0.0,0.0,0.0,0.0,0.0,0.0,0.0,0.0,0.0,0.0,0.0,0.0,0.0,0.0,0.0,0.0,0.0,0.0,0.0,0.0,0.0,0.0,0.0,0.0,0.0,0.0,0.0,0.0,0.0,0.0,0.0,0.0,0.0,0.0,0.0,0.0,0.0,0.0,0.0,0.0,0.0,0.0,0.0,0.0,0.0,0.0,0.0,0.0,0.0,0.0,0.0,0.0,0.0,0.0,0.0,0.0,0.0,0.0,0.0,0.0,0.0,0.0,0.0,0.0,0.0,0.0,0.0,0.0,0.0,0.0,0.0,0.0,0.0,0.0,0.0,0.0,0.0,0.0,0.0,0.0,0.0,0.0,0.0,0.0,0.0,0.0,0.0,0.0,0.0,0.0,0.0,0.0,0.0,0.0,0.0,0.0,0.0,0.0,0.0,0.0,0.0,0.0,0.0,0.0,0.0,0.0,0.0,0.0,0.0,0.0,0.0,0.0,0.0,0.0,0.0,0.0,0.0,0.0,0.0,0.0,0.0,0.0,0.0,0.0,0.0,0.0,0.0,0.0,0.0,0.0,0.0,0.0,0.0,0.0,0.0,0.0,0.0,0.0,0.0,0.0,0.0,0.0,0.0,0.0,0.0,0.0,0.0,0.0,0.0,0.0,0.0,0.0,0.0,0.0,0.0,0.0,0.0,0.0,0.0,0.0,0.0,0.0,0.0,0.0,0.0,0.0,0.0,0.0,0.0,0.0,0.0,0.0,0.0,0.0,0.0,0.0,0.0,0.0,0.0,0.0,0.0,0.0,0.0,0.0,0.0,0.0,0.0,0.0,0.0,0.0,0.0,0.0,0.0,0.0,0.0,0.0,0.0,0.0,0.0,0.0,0.0,0.0,0.0,0.0,0.0,0.0,0.0,0.0,0.0,0.0,0.0,0.0,0.0,0.0,0.0,0.0,0.0,0.0,0.0,0.0,0.0,0.0,0.0,0.0,0.0,0.0,0.0,0.0,0.0,0.0,0.0,0.0,0.0,0.0,0.0,0.0,0.0,0.0,0.0,0.0,0.0,0.0,0.0,0.0,0.0,0.0,0.0,0.0,0.0,0.0,0.0,0.0,0.0,0.0,0.0,0.0,0.0,0.0,0.0,0.0,0.0,0.0,0.0,0.0,0.0,0.0,0.0,0.0,0.0,0.0,0.0,0.0,0.0,0.0,0.0,0.0,0.0,0.0,0.0,0.0,0.0,0.0,0.0,0.0,0.0,0.0,0.0,0.0,0.0,0.0,0.0,0.0,0.0,0.0,0.0,0.0,0.0,0.0,0.0,0.0,0.0,0.0,0.0,0.0,0.0,0.0,0.0,0.0,0.0,0.0,0.0,0.0,0.0,0.0,0.0,0.0,0.0,0.0,0.0,0.0,0.0,0.0,0.0,0.0,0.0,0.0,0.0,0.0,0.0,0.0,0.0,0.0,0.0,0.0,0.0,0.0,0.0,0.0,0.0,0.0,0.0,0.0,0.0,0.0,0.0,0.0,0.0,0.0,0.0,0.0,0.0,0.0,0.0,0.0,0.0,0.0,0.0,0.0,0.0,0.0,0.0,0.0,0.0,0.0,0.0,0.0,0.0,0.0,0.0,0.0,0.0,0.0,0.0,0.0,0.0,0.0,0.0,0.0,0.0,0.0,0.0,0.0,0.0,0.0,0.0,0.0,0.0,0.0,0.0,0.0,0.0,0.0,0.0,0.0,0.0,0.0,0.0,0.0,0.0,0.0,0.0,0.0,0.0,0.0,0.0,0.0,0.0,0.0,0.0,0.0,0.0,0.0,0.0,0.0,0.0,0.0,0.0,0.0,0.0,0.0,0.0,0.0,0.0,0.0,0.0,0.0,0.0,0.0,0.0,0.0,0.0,0.0,0.0,0.0,0.0,0.0,0.0,0.0,0.0,0.0,0.0,0.0,0.0,0.0,0.0,0.0,0.0,0.0,0.0,0.0,0.0,0.0,0.0,0.0,0.0,0.0,0.0,0.0,0.0,0.0,0.0,0.0,0.0,0.0,0.0,0.0,0.0,0.0,0.0,0.0,0.0,0.0,0.0,0.0,0.0,0.0,0.0,0.0,0.0,0.0,0.0,0.0,0.0,0.0,0.0,0.0,0.0,0.0,0.0,0.0,0.0,0.0,0.0,0.0,0.0,0.0,0.0,0.0,0.0,0.0,0.0,0.0,0.0,0.0,0.0,0.0,0.0,0.0,0.0,0.0,0.0,0.0,0.0,0.0,0.0,0.0,0.0,0.0,0.0,0.0,0.0,0.0,0.0,0.0,0.0,0.0,0.0,0.0,0.0,0.0,0.0,0.0,0.0,0.0,0.0,0.0,0.0,0.0,0.0,0.0,0.0,0.0,0.0,0.0,0.0,0.0,0.0,0.0,0.0,0.0,0.0,0.0,0.0,0.0,0.0,0.0,0.0,0.0,0.0,0.0,0.0,0.0,0.0,0.0,0.0,0.0,0.0,0.0,0.0,0.0,0.0,0.0,0.0,0.0,0.0,0.0,0.0,0.0,0.0,0.0,0.0,0.0,0.0,0.0,0.0,0.0,0.0,0.0,0.0,0.0,0.0,0.0,0.0,0.0,0.0,0.0,0.0,0.0,0.0,0.0,0.0,0.0,0.0,0.0,0.0,0.0,0.0,0.0,0.0,0.0,0.0,0.0,0.0,0.0,0.0,0.0,0.0,0.0,0.0,0.0,0.0,0.0,0.0,0.0,0.0,0.0,0.0,0.0,0.0,0.0,0.0,0.0,0.0,0.0,0.0,0.0,0.0,0.0,0.0,0.0,0.0,0.0,0.0,0.0,0.0,0.0,0.0,0.0,0.0,0.0,0.0,0.0,0.0,0.0,0.0,0.0,0.0,0.0,0.0,0.0,0.0,0.0,0.0,0.0,0.0,0.0,0.0,0.0,0.0,0.0,0.0,0.0,0.0,0.0,0.0,0.0,0.0,0.0,0.0,0.0,0.0,0.0,0.0,0.0,0.0,0.0,0.0,0.0,0.0,0.0,0.0,0.0,0.0,0.0,0.0,0.0,0.0,0.0,0.0,0.0,0.0,0.0,0.0,0.0,0.0,0.0,0.0,0.0,0.0,0.0,0.0,0.0,0.0,0.0,0.0,0.0,0.0,0.0,0.0,0.0,0.0,0.0,0.0,0.0,0.0,0.0,0.0,0.0,0.0,0.0,0.0,0.0,0.0,0.0,0.0,0.0,0.0,0.0,0.0,0.0,0.0,0.0,0.0,0.0,0.0,0.0,0.0,0.0,0.0,0.0,0.0,0.0,0.0,0.0,0.0,0.0,0.0,0.0,0.0,0.0,0.0,0.0,0.0,0.0,0.0,0.0,0.0,0.0,0.0,0.0,0.0,0.0,0.0,0.0,0.0,0.0,0.0,0.0,0.0,0.0,0.0,0.0,0.0,0.0,0.0,0.0,0.0,0.0,0.0,0.0,0.0,0.0,0.0,0.0,0.0,0.0,0.0,0.0,0.0,0.0,0.0,0.0,0.0,0.0,0.0,0.0,0.0,0.0,0.0,0.0,0.0,0.0,0.0,0.0,0.0,0.0,0.0,0.0,0.0,0.0,0.0,0.0,0.0,0.0,0.0,0.0,0.0,0.0,0.0,0.0,0.0,0.0,0.0,0.0,0.0,0.0,0.0,0.0,0.0,0.0,0.0,0.0,0.0,0.0,0.0,0.0,0.0,0.0,0.0,0.0,0.0,0.0,0.0,0.0,0.0,0.0,0.0,0.0,0.0,0.0,0.0,0.0,0.0,0.0,0.0,0.0,0.0,0.0,0.0,0.0,0.0,0.0,0.0,0.0,0.0,0.0,0.0,0.0,0.0,0.0,0.0,0.0,0.0,0.0,0.0,0.0,0.0,0.0,0.0,0.0,0.0,0.0,0.0,0.0,0.0,0.0,0.0,0.0,0.0,0.0,0.0,0.0,0.0,0.0,0.0,0.0,0.0,0.0,0.0,0.0,0.0,0.0,0.0,0.0,0.0,0.0,0.0,0.0,0.0,0.0,0.0,-0.0582,0.0,0.0,0.0,0.0,0.0,0.0,0.0,0.0,0.0,0.0,0.0,0.0,0.0,0.0,0.0,0.0,0.0,0.0,0.0,0.0,0.0,0.0,0.0,0.0,0.0,0.0,0.0,0.0,0.0,0.0,0.0,0.0,0.0,0.0,0.0,0.0,0.0,0.0,0.0,0.0,0.0,0.0,0.0,-0.0411,-0.1088,0.0,0.0,0.0,0.0,0.0,0.0,0.0,0.0,0.0,0.0,0.0,0.0,0.0,0.0,0.0,0.0,0.0,0.0,0.0,0.0,0.0,0.0,0.0,0.0,0.0,0.0,0.0,0.0,0.0,0.0,0.0,0.0,0.0,0.0,0.0,0.0,0.0,0.0,0.0,0.0,0.0,0.0,0.0,0.0,0.0,0.0,0.0,0.0,0.0,0.0,0.0,0.0,0.0,0.0,0.0,0.0,0.0,0.0,0.0,0.0,0.0,0.0,0.0,0.0,0.0,0.0,0.0,0.0,0.0,0.0,0.0,-0.1357,0.0,0.0,0.0,0.0,0.0,0.0,0.0,0.0,0.0,0.0,0.0,0.0,0.0,0.0,0.0,0.0,0.0,0.0,0.0,0.0,0.0,-0.0248,0.0,0.0,0.0,0.0,0.0,0.0,0.0,0.0,0.0,0.0,0.0,0.0,0.0,0.0,0.0,0.0,0.0,0.0,0.0,0.0,-0.035,-0.0899,-0.0887,0.0,0.0,0.0,0.0,0.0,0.0,0.0,0.0,0.0,0.0,0.0,0.0,0.0,0.0,0.0,0.0,0.0,0.0,0.0,0.0,0.0,0.0,0.0,0.0,0.0,0.0,0.0,0.0,0.0,0.0,0.0,0.0,0.0,0.0,0.0,0.0,0.0,0.0,0.0,0.0,0.0,0.0,0.0,0.0,0.0,0.0,0.0,0.0,0.0,0.0,0.0,0.0,0.0,0.0,0.0,0.0,0.0,0.0,0.0,0.0,0.0,0.0,0.0,0.0,0.0,0.0,0.0,0.0,0.0,0.0,-0.0724,-0.2124,-0.3695,0.0,0.0,0.0,0.0,0.0,0.0,0.0,0.0,0.0,0.0,0.0,0.0,0.0,0.0,0.0,0.0,0.0,0.0,0.0,-0.1296,-0.0124,0.0,0.0,0.0,0.0,0.0,0.0,0.0,0.0,0.0,0.0,0.0,0.0,0.0,0.0,0.0,0.0,0.0,0.0,0.0,-0.0071,-0.0142,-0.014,-0.0208,-0.0343,0.0,0.0,0.0,0.0,0.0,0.0,0.0,0.0,0.0,0.0,0.0,0.0,0.0,0.0,0.0,0.0,0.0,0.0,0.0,0.0,0.0,0.0,0.0,0.0,0.0,0.0,0.0,0.0,0.0,0.0,0.0,0.0,0.0,0.0,0.0,0.0,0.0,0.0,0.0,0.0,0.0,0.0,0.0,0.0,0.0,0.0,0.0,0.0,0.0,0.0,0.0,0.0,0.0,0.0,0.0,0.0,0.0,0.0,0.0,0.0,0.0,0.0,0.0,0.0,0.0,0.0,0.0,0.0,0.0,-0.0778,-0.1632,0.0,0.0,0.0,0.0,0.0,0.0,0.0,0.0,0.0,0.0,0.0,0.0,0.0,0.0,0.0,0.0,0.0,0.0,0.0,0.0,0.0,0.0,0.0,0.0,0.0,0.0,0.0,0.0,0.0,0.0,0.0,0.0,0.0,0.0,0.0,0.0,0.0,0.0,0.0,0.0,0.0,0.0,0.0,0.0,0.0,-0.0348,0.0,0.0,0.0,0.0,0.0,0.0,0.0,0.0,0.0,0.0,0.0,0.0,0.0,0.0,0.0,0.0,0.0,0.0,0.0,0.0,0.0,0.0,0.0,0.0,0.0,0.0,0.0,0.0,0.0,0.0,0.0,0.0,0.0,0.0,0.0,0.0,0.0,0.0,0.0,0.0275,0.0139,0.0555,0.0274,0.0,0.0,0.0,0.0,0.0,0.0,0.0,0.0,0.0,0.0,0.0,0.0,0.0,0.0,0.0,0.0,0.0,0.0,0.0,0.0,0.0,0.0,0.0,0.0,-0.0073,-0.0287,-0.1215,-0.2111,-0.3026,0.0,0.0,0.0,0.0,-0.758,-0.8574,0.0,0.0,0.0,0.0,0.0,0.0,0.0,0.0,0.0,0.0,0.0,0.0,0.0,0.0,0.0,0.0,0.0,0.0,0.0,0.0,0.0,0.0,0.0,0.0,0.0,0.0,0.0,0.0,0.0,-0.0217,-0.0583,-0.0583,-0.0583,-0.0583,-0.0583,-0.036,0.0,0.0,0.0,0.0,0.0,0.0,0.0,0.0,0.0,0.0,0.0,0.0,0.0,0.0,0.0,0.0,0.0,0.0,0.0,0.0,0.0,0.0,0.0,0.0,0.0,0.0,0.0,0.0,0.0,0.0,0.0,0.0,0.0,0.0,0.0,0.0,0.0,0.0,0.0,0.0,0.0,0.0477,0.0413,0.0753,0.0342,0.0,0.0,0.0,0.0,0.0,0.0,0.0,0.0,0.0,0.0,0.0,0.0,0.0,0.0,0.0,0.0,0.0,0.0,0.0,0.0,0.0,0.0,0.0,0.0,0.0,-0.0073,-0.0722,-0.1215,-0.163,-0.2666,-0.3388,-0.3881,-0.3976,-0.5321,-0.7057,0.0,0.0,0.0,0.0,0.0,0.0,0.0,0.0,0.0,0.0,0.0,-0.0697,-0.0064,0.0,0.0,0.0,0.0,0.0,0.0,0.0,0.0,0.0,0.0,0.0,0.0,0.0,0.0,0.0,0.0,-0.0729,-0.2184,-0.2184,-0.2184,-0.2184,-0.2184,-0.1374,0.0,0.0,0.0,0.0,0.0,0.0,0.0,0.0,0.0,0.0,0.0,0.0,0.0,0.0,0.0,0.0,0.0,0.0,0.0,0.0,0.0,0.0,0.0,0.0,0.0,0.0,0.0,0.0,0.0,0.0,0.0,0.0,0.0,0.0,0.0,0.0,0.0,0.0,0.0,0.0,0.0,0.0,0.0,0.0135,0.0,0.0,0.0,0.0,0.0,0.0,0.0,0.0,0.0,0.0,0.0,0.0,0.0,0.0,0.0,0.0,0.0,0.0,0.0,0.0,0.0,0.0,0.0,0.0,0.0,0.0,0.0,0.0365,-0.0287,-0.1472,-0.147,-0.227,-0.3501,-0.4002,-0.5151,-0.6565,0.0,0.0,0.0,0.0,0.0,-0.3703,-0.3085,-0.2652,-0.2042,-0.1125,-0.0634,-0.0258,0.0,0.0,0.0,0.0,0.0,0.0,0.0,0.0,0.0,0.0,0.0,0.0,0.0,0.0,-0.0503,-0.1447,-0.1454,-0.2257,-0.3857,-0.3857,-0.3275,-0.2329,-0.2329,-0.1453,0.0,0.0,0.0,0.0,0.0,0.0,0.0,0.0,0.0,0.0,0.0,0.0,0.0,0.0,0.0,0.0,0.0,0.0,0.0,0.0,0.0,0.0,0.0,0.0,0.0,0.0,0.0,0.0,0.0,0.0,0.0,0.0,0.0,0.0,0.0,0.0,0.0,0.0,0.0,0.0,0.0,0.0,0.0,0.0693,0.028,0.0,0.0,0.0,0.0,0.0,0.0,0.0,0.0,0.0,0.0,0.0,0.0,0.0,0.0,0.0,0.0,0.0,0.0,0.0,0.0,0.0,0.0,0.0,0.0,0.0,0.0,0.0146,0.0073,-0.0144,-0.0072,-0.0071,-0.0071,-0.0286,-0.2148,-0.4586,0.0,0.0,0.0,-0.3889,-0.3889,-0.3642,-0.2775,-0.2281,-0.1677,-0.0761,-0.0258,0.0,0.0,0.0,0.0,0.0,0.0,0.0,0.0,0.0,0.0,0.0,0.0,0.0,0.0,-0.0503,-0.13,-0.2329,-0.2329,-0.3419,-0.5456,-0.4947,-0.4438,-0.3855,-0.3347,-0.2258,-0.0729,-0.0219,0.0,0.0,0.0,0.0,0.0,0.0,0.0,0.0,0.0,0.0,0.0,0.0,0.0,0.0,0.0,0.0,0.0,0.0,0.0,0.0,0.0,0.0,0.0,0.0,0.0,0.0,0.0,0.0,0.0,0.0,0.0,0.0,0.0,0.0,0.0,0.0,0.0,0.0,0.0,0.1174,0.0918,0.1456,0.1055,0.0776,0.0762,0.0562,0.0426,0.0426,0.0144,0.0,0.0,0.0,0.0,0.0,0.0,0.0,0.0,0.0,0.0,0.0,0.0,0.0,0.0,0.0,0.0,0.0,0.0,0.0,0.0,0.0,0.0146,0.0438,0.0511,0.0948,0.1458,0.1677,-0.0363,-0.3463,0.0,-0.3928,-0.3891,-0.3889,-0.3889,-0.3455,-0.222,-0.2035,-0.1497,-0.0193,0.0,0.0,0.0,0.0,0.0,0.0,0.0,0.0,0.0,0.0,0.0,0.0,0.0,0.0,-0.0072,-0.152,-0.2256,-0.2402,-0.2329,-0.3855,-0.6906,-0.5383,-0.5456,-0.6761,-0.531,-0.3711,-0.2111,-0.0656,0.0,0.0,0.0,0.0,0.0,0.0,0.0,0.0,0.0,0.0,0.0,0.0,0.0,0.0,0.0,0.0,0.0,0.0,0.0,0.0,0.0,0.0,0.0,0.0,0.0,0.0,0.0,0.0,0.0,0.0,0.0,0.0,0.0,0.0,0.0,0.0,0.0,0.0,0.1218,0.1793,0.2223,0.2302,0.2333,0.2309,0.2321,0.1652,0.1239,0.1167,0.0511,0.0,0.0,0.0,0.0,0.0,0.0,0.0,0.0,0.0,0.0,0.0,0.0,0.0,0.0,0.0,0.0,0.0,0.0,0.0,0.0,0.0,0.0,0.0073,0.0438,0.0584,0.0657,0.1457,-0.0216,-0.3346,-0.4366,-0.3959,-0.3936,-0.3896,-0.3889,-0.3642,-0.2837,-0.2281,-0.169,-0.0847,-0.0332,0.0,0.0,0.0,0.0,0.0,0.0,0.0,0.0,0.0,0.0,0.0,0.0,-0.0503,-0.1666,-0.1019,-0.1749,-0.4075,-0.2838,-0.3347,-0.531,-0.4875,-0.4293,-0.3564,-0.3129,-0.2112,-0.0583,-0.0146,0.0,0.0,0.0,0.0,0.0,0.0,0.0,0.0,0.0,0.0,0.0,0.0,0.0,0.0,0.0,0.0,0.0,0.0,0.0,0.0,0.0,0.0,0.0,0.0,0.0,0.0,0.0,0.0,0.0,0.0,0.0,0.0,0.0,0.0,0.0,0.0,0.1193,0.1908,0.1945,0.2128,0.2302,0.2286,0.2313,0.2326,0.2309,0.2105,0.1756,0.1256,0.0961,0.0594,0.0,0.0,0.0,0.0,0.0,0.0,0.0,0.0,0.0,0.0,0.0,0.0,0.0,0.0,0.0,0.0,0.0,0.0,0.0,0.0,0.0,0.0,0.0146,0.0365,0.051,-0.036,-0.2206,-0.457,-0.4381,-0.409,-0.3991,-0.3934,-0.3944,-0.3765,-0.3118,-0.2504,-0.1788,-0.1134,-0.0405,0.0,0.0,0.0,0.0,0.0,0.0,0.0,0.0,0.0,0.0,0.0,0.0,-0.0432,-0.1311,-0.1093,-0.2185,-0.4729,-0.3784,-0.4147,-0.5673,-0.502,-0.4221,-0.3275,-0.262,-0.182,-0.0948,-0.0292,0.0,0.0,0.0,0.0,0.0,0.0,0.0,0.0,0.0,0.0,0.0,0.0,0.0,0.0,0.0,0.0,0.0,0.0,0.0,0.0,0.0,0.0,0.0,0.0,0.0,0.0,0.0,0.0,0.0,0.0,0.0,0.0,0.0,0.0,0.0,0.0,0.1496,0.2372,0.2711,0.2744,0.2916,0.3279,0.3279,0.3279,0.3279,0.3003,0.2505,0.1708,0.1419,0.0901,0.0076,0.0,0.0,0.0,0.0,0.0,0.0,0.0,0.0,0.0,0.0,0.0,0.0,0.0,0.0,0.0,0.0,0.0,0.0,0.0,0.0,0.0,0.0,0.0,0.0,0.0,-0.3677,-0.5311,-0.448,-0.4173,-0.4116,-0.3993,-0.409,-0.3915,-0.3295,-0.2558,-0.19,-0.1299,-0.0481,0.0,0.0,0.0,0.0,0.0,0.0,0.0,0.0,0.0,0.0,0.0,0.0,-0.0072,-0.0292,-0.1602,-0.3057,-0.4729,-0.4729,-0.5383,-0.669,-0.5165,-0.4439,-0.4366,-0.2766,-0.2039,-0.1966,-0.0583,0.0,0.0,0.0,0.0,0.0,0.0,0.0,0.0,0.0,0.0,0.0,0.0,0.0,0.0,0.0,0.0,0.0,0.0,0.0,0.0,0.0,0.0,0.0,0.0,0.0,0.0,0.0,0.0,0.0,0.0,0.0,0.0,0.0,0.0,0.0,0.0,0.1794,0.2552,0.3355,0.3574,0.3864,0.4592,0.467,0.4674,0.4674,0.4137,0.3351,0.2388,0.1734,0.0987,0.0076,0.0,0.0,0.0,0.0,0.0,0.0,0.0,0.0,0.0,0.0,0.0,0.0,0.0,0.0,0.0,0.0,0.0,0.0,0.0,0.0,0.0,0.0,-0.0219,-0.0799,-0.3082,-0.4736,0.0,-0.4292,-0.4207,-0.418,-0.4119,-0.4117,-0.4057,-0.3918,-0.2896,-0.2031,-0.1912,-0.0824,0.0,0.0,0.0,0.0,0.0,0.0,0.0,0.0,0.0,0.0,0.0,0.0,-0.0582,-0.182,-0.2111,-0.3057,-0.4729,-0.4729,-0.4875,-0.5093,-0.3493,-0.2766,-0.2693,-0.1166,-0.0438,-0.0438,-0.0146,0.0,0.0,0.0,0.0,0.0,0.0,0.0,0.0,0.0,0.0,0.0,0.0,0.0,0.0,0.0,0.0,0.0,0.0,0.0,0.0,0.0,0.0,0.0,0.0,0.0,0.0,0.0,0.0,0.0,0.0,0.0,0.0,0.0,0.0,0.0,0.1141,0.1805,0.2552,0.3355,0.4083,0.4518,0.4664,0.4781,0.4811,0.4811,0.4642,0.394,0.2526,0.2226,0.1544,0.0078,0.0,0.0,0.0,0.0,0.0,0.0,0.0,0.0,0.0,0.0,0.0,0.0,0.0,0.0,0.0,0.0,0.0,0.0,0.0,0.0,0.0,0.0,-0.1521,-0.3652,-0.3855,-0.5584,-0.7812,-0.4268,-0.4262,-0.4243,-0.4181,-0.4196,-0.4206,-0.4176,-0.3017,-0.213,-0.212,-0.0893,0.0,0.0,0.0,0.0,0.0,0.0,0.0,0.0,0.0,0.0,0.0,0.0,-0.0365,-0.1166,-0.1893,-0.3057,-0.4729,-0.5456,-0.5818,-0.5818,-0.422,-0.3057,-0.2256,-0.0656,0.0,0.0,0.0,0.0,0.0,0.0,0.0,0.0,0.0,0.0,0.0,0.0,0.0,0.0,0.0,0.0,0.0,0.0,0.0,0.0,0.0,0.0,0.0,0.0,0.0,0.0,0.0,0.0,0.0,0.0,0.0,0.0,0.0,0.0,0.0633,0.0849,0.0,0.0717,0.1876,0.2178,0.2697,0.3937,0.4471,0.4783,0.4783,0.481,0.4767,0.4797,0.4856,0.4138,0.2545,0.2404,0.1716,0.0079,0.0,0.0,0.0,0.0157,0.0236,0.0,0.0236,0.0236,0.0,0.0,0.0,0.0,0.0,0.0,0.0,0.0,0.0,0.0,0.0,0.0,-0.0074,-0.0877,-0.2538,-0.4684,-0.5258,-0.6854,-0.8679,-0.4308,-0.4308,-0.4292,-0.4243,-0.4274,-0.429,-0.4241,-0.3207,-0.2367,-0.2193,-0.103,-0.0138,0.0,0.0,0.0,0.0,0.0,0.0,0.0,0.0,0.0,0.0,0.0,0.0,0.0,-0.1821,-0.342,-0.4729,-0.6543,-0.727,-0.6978,-0.5601,-0.4002,-0.2256,-0.0875,-0.0146,0.0,0.0,0.0,0.0,0.0,0.0,0.0,0.0,0.0,0.0,0.0,0.0,0.0,0.0,0.0,0.0,0.0,0.0,0.0,0.0,0.0,0.0,0.0,0.0,0.0,0.0,0.0,0.0,0.0,0.0694,0.0834,0.1269,0.106,0.0922,0.1147,0.0718,0.0865,0.2329,0.2479,0.2918,0.4314,0.465,0.4839,0.4788,0.479,0.4809,0.4783,0.4918,0.4256,0.2554,0.2498,0.1805,0.0079,0.0079,0.0079,0.0079,0.0393,0.0471,0.0157,0.0471,0.0471,0.0079,0.0236,0.0236,0.0157,0.0236,0.0157,0.0,0.0,0.0,0.0,0.0075,0.0075,-0.0149,-0.1976,-0.3493,-0.4875,-0.6398,-0.7872,-0.9089,-0.4308,-0.4308,-0.4305,-0.4298,-0.4304,-0.4305,-0.4298,-0.3629,-0.2907,-0.2261,-0.1511,-0.076,-0.007,0.0,0.0,0.0,0.0,0.0,0.0,0.0,0.0,0.0,0.0,0.0,0.0,-0.2913,-0.4511,-0.4729,-0.7632,-0.8357,-0.6978,-0.6108,-0.4438,-0.2256,-0.1457,-0.0656,0.0,0.0,0.0,0.0,0.0,0.0,0.0,0.0,0.0,0.0,0.0,0.0,0.0,0.0,0.0,0.0,0.0,0.0,0.0,0.0,0.0,0.0,0.0,0.0,0.0,0.0,0.028,0.0563,0.0,0.0862,0.1215,0.1665,0.1669,0.1598,0.1238,0.1383,0.1528,0.1384,0.2187,0.3074,0.3625,0.4379,0.4794,0.4903,0.4917,0.492,0.4927,0.4978,0.4306,0.2585,0.2509,0.1805,0.0079,0.0314,0.055,0.055,0.055,0.055,0.055,0.055,0.055,0.055,0.0943,0.0943,0.055,0.0943,0.0707,0.0,0.0,0.0,0.0,0.038,0.03,-0.0223,-0.2851,-0.4216,-0.4875,-0.6398,-0.7989,-0.9256,-0.4308,-0.4308,-0.4308,-0.4308,-0.4308,-0.4308,-0.4308,-0.3701,-0.2966,-0.2306,-0.1562,-0.0817,-0.0068,0.0,0.0,0.0,0.0,0.0,0.0,0.0,0.0,0.0,0.0,0.0,0.0,-0.3058,-0.4944,-0.5373,-0.8494,-0.9441,-0.828,-0.7044,-0.5523,-0.3639,-0.2404,-0.1385,-0.0729,-0.0729,-0.0438,0.0,0.0,0.0,0.0,0.0,0.0,0.0,0.0,0.0,0.0,0.0,0.0,0.0,0.0,0.0,0.0,0.0,0.0,0.0,0.0,0.0,0.0069,0.0283,0.0284,0.0427,0.1152,0.1222,0.1364,0.1963,0.175,0.1532,0.1823,0.124,0.1094,0.2041,0.2041,0.2416,0.378,0.4036,0.431,0.485,0.4965,0.4985,0.4985,0.5007,0.4314,0.2589,0.2511,0.1884,0.0393,0.0471,0.0707,0.1021,0.1257,0.1257,0.1021,0.1257,0.1257,0.1021,0.1178,0.1178,0.1021,0.1178,0.0943,0.0314,0.0314,0.0235,0.0,0.0458,0.0528,0.015,-0.1686,-0.3198,-0.4647,-0.728,-0.8629,-0.9182,-0.4308,-0.4308,-0.4308,-0.4308,-0.4308,-0.4308,-0.4308,-0.3835,-0.3229,-0.2558,-0.1818,-0.1077,-0.0135,0.0,0.0,0.0,0.0,0.0,0.0,0.0,-0.0073,-0.0292,-0.0365,-0.0656,-0.1239,-0.3928,-0.5594,-0.6165,-0.885,-0.9438,-0.7986,-0.7119,-0.5742,-0.4004,-0.3061,-0.2187,-0.153,-0.153,-0.1021,-0.0365,-0.0365,-0.0219,0.0,0.0,0.0,0.0,0.0,0.0,0.0,0.0,0.0,0.0,0.0,0.0,0.0,0.0,0.0,0.0,0.0,0.007,0.021,0.0499,0.0574,0.0719,0.1439,0.1583,0.1586,0.1892,0.1751,0.1605,0.1823,0.1167,0.0948,0.1969,0.175,0.1979,0.3203,0.3536,0.3959,0.4488,0.484,0.5021,0.5021,0.5021,0.4314,0.2746,0.259,0.1962,0.0864,0.0786,0.1021,0.1414,0.1728,0.1728,0.1492,0.1728,0.1728,0.1492,0.1571,0.1571,0.1492,0.1335,0.1021,0.0628,0.0628,0.0393,0.0078,0.0535,0.0681,0.0529,-0.0588,-0.2036,-0.3843,-0.7063,-0.8603,-0.9111,-0.4308,-0.4308,-0.4308,-0.4308,-0.4308,-0.4308,-0.4308,-0.4308,-0.3971,-0.3295,-0.2558,-0.1616,-0.0135,0.0,0.0,0.0,0.0,0.0,0.0,0.0,-0.036,-0.1165,-0.1166,-0.2184,-0.4432,-0.6099,-0.697,-0.6968,-0.8564,-0.777,-0.4875,-0.5533,-0.4588,-0.2405,-0.3136,-0.299,-0.226,-0.226,-0.1822,-0.1166,-0.1166,-0.0729,0.0,0.0,0.0,0.0,0.0,0.0,0.0,0.0,0.0,0.0,0.0,0.0,0.0,0.0,0.0,0.0,0.0,0.0272,0.0554,0.0569,0.1155,0.1676,0.1313,0.175,0.204,0.1386,0.1751,0.1969,0.0876,0.1532,0.175,0.0292,0.1313,0.2059,0.1508,0.2724,0.3742,0.3834,0.4549,0.5021,0.5021,0.5021,0.4472,0.3217,0.2746,0.2119,0.1335,0.1257,0.1492,0.1886,0.1886,0.1886,0.1886,0.1886,0.1886,0.1886,0.2278,0.2278,0.1886,0.1492,0.1021,0.0628,0.0628,0.0393,0.0078,0.0841,0.0984,0.0529,-0.0294,-0.1091,-0.2103,-0.5008,-0.74,-0.9101,-0.4308,-0.4308,-0.4308,-0.4308,-0.4308,-0.4308,-0.4308,-0.4308,-0.4038,-0.3295,-0.2221,0.0,0.0,0.0,0.0,0.0,0.0,0.0,0.0,-0.0495,-0.0932,-0.1224,-0.1669,-0.2766,-0.4577,-0.6172,-0.7761,-0.9272,-1.0868,-1.0296,-0.777,-0.7991,-0.6616,-0.3935,-0.4154,-0.3864,-0.3063,-0.3063,-0.2333,-0.1166,-0.1166,-0.0725,0.0,0.0,0.0,0.0,0.0,0.0,0.0,0.0,0.0,0.0,0.0,0.0,0.0,0.0,0.0,0.0067,0.0344,0.0489,0.0709,0.1298,0.1381,0.1459,0.1824,0.1969,0.1895,0.1677,0.1727,0.1777,0.1422,0.1209,0.1137,0.1137,0.1154,0.1251,0.1585,0.212,0.275,0.3679,0.4003,0.4238,0.4238,0.4238,0.3767,0.2746,0.2355,0.1885,0.1335,0.1571,0.1886,0.2278,0.2278,0.2278,0.2278,0.2278,0.2278,0.2278,0.2436,0.2435,0.2278,0.2121,0.1728,0.11,0.11,0.0628,0.0078,0.0841,0.1136,0.1057,0.1251,0.0364,-0.1234,-0.342,-0.5465,-0.7303,0.0,-0.4308,-0.4308,-0.4308,-0.4308,0.0,0.0,0.0,0.0,0.0,0.0,0.0,0.0,0.0,0.0,0.0,0.0,-0.0409,-0.0341,-0.1115,-0.1693,-0.1904,-0.2356,-0.3519,-0.5374,-0.6872,-0.8365,-0.9856,-1.1484,-1.1229,-0.9226,-0.9269,-0.7919,-0.5533,-0.5533,-0.4953,-0.3935,-0.3898,-0.31,-0.1953,-0.1648,-0.1069,-0.0355,-0.0071,0.0,0.0,0.0,0.0,0.0,0.0,0.0,0.0,0.0,0.0,0.0,0.0,0.0,0.0068,0.0487,0.0706,0.0999,0.1669,0.1677,0.1678,0.2041,0.1968,0.175,0.1458,0.1429,0.1403,0.1122,0.0912,0.0839,0.1039,0.0781,0.073,0.1118,0.1425,0.1977,0.2817,0.3139,0.3375,0.3532,0.3297,0.2983,0.2512,0.2278,0.1964,0.1728,0.1807,0.2121,0.2515,0.2357,0.2357,0.2515,0.2357,0.2278,0.2278,0.2121,0.1964,0.1807,0.1964,0.1649,0.0864,0.1021,0.0628,0.0078,0.0841,0.1211,0.1284,0.1988,0.1457,0.0073,-0.1648,-0.3207,-0.4966,0.0,0.0,-0.4308,0.0,0.0,0.0,0.0,0.0,0.0,0.0,0.0,0.0,0.0,0.0,0.0,0.0,0.0,0.0,-0.1076,-0.1836,-0.2535,-0.3155,-0.3267,-0.4407,-0.6776,-0.8092,-0.8855,-0.8924,-1.0445,-1.037,-0.8886,-0.9074,-0.8335,-0.6894,-0.6894,-0.6025,-0.4643,-0.453,-0.4019,-0.3273,-0.2499,-0.1731,-0.0979,-0.0276,0.0,0.0,0.0,0.0,0.0,0.0,0.0,0.0,0.0,0.0,0.0,0.0,0.0,0.0068,0.0488,0.0913,0.1273,0.1739,0.2041,0.2187,0.1895,0.1822,0.1603,0.0801,0.0927,0.0979,0.014,0.0629,0.0902,0.0203,0.0349,0.0432,0.0073,0.0738,0.1282,0.133,0.1963,0.259,0.2983,0.2356,0.2043,0.2435,0.0,0.2436,0.2436,0.2121,0.2043,0.2435,0.2121,0.2043,0.2436,0.2043,0.1886,0.1886,0.1492,0.11,0.0628,0.11,0.0864,0.0079,0.0471,0.0393,0.0078,0.0841,0.1211,0.1284,0.1988,0.2114,0.1674,0.0144,-0.0928,-0.2281,0.0,0.0,0.0,0.0,0.0,0.0,0.0,0.0,0.0,0.0,0.0,0.0,0.0,0.0,0.0,0.0,0.0,0.0,-0.1789,-0.2459,-0.2942,-0.3176,-0.3771,-0.4991,-0.6774,-0.7122,-0.7886,-0.9065,-0.9446,-0.8903,-0.7368,-0.7395,-0.6635,-0.5163,-0.5163,-0.4926,-0.4467,-0.4477,-0.3747,-0.2465,-0.2288,-0.1449,-0.0272,-0.0069,0.0,0.0,0.0,0.0,0.0,0.0,0.0,0.0,0.0,0.0,0.0,0.0,0.0,0.0139,0.0851,0.1147,0.1375,0.2038,0.226,0.2187,0.1895,0.1968,0.1885,0.0783,0.111,0.1352,0.053,0.0537,0.0679,0.0809,0.0703,0.0585,0.0449,0.0602,0.0914,0.1253,0.1492,0.1728,0.2199,0.2278,0.2121,0.1649,0.1571,0.1571,0.1571,0.1807,0.1807,0.1649,0.1807,0.1807,0.1571,0.1492,0.1414,0.1414,0.1335,0.1257,0.11,0.1257,0.1021,0.0471,0.055,0.0393,0.0078,0.0841,0.1211,0.1284,0.1988,0.226,0.1894,-0.0218,-0.1159,-0.1737,0.0,0.0,0.0,0.0,0.0,0.0,0.0,0.0,0.0,0.0,0.0,0.0,0.0,0.0,0.0,0.0,0.0,0.0,0.0,-0.3246,-0.366,-0.3665,-0.4122,-0.4781,-0.5704,-0.6318,-0.7069,-0.7886,-0.8618,-0.8502,-0.7679,-0.7795,-0.6985,-0.5526,-0.5526,-0.509,-0.4432,-0.4386,-0.3868,0.0,0.0,-0.1614,-0.0868,-0.0203,0.0,0.0,0.0,0.0,0.0,0.0,0.0,0.0,0.0,0.0,0.0,0.0,0.0,0.0142,0.1007,0.1234,0.1386,0.2115,0.2333,0.2184,0.1665,0.1656,0.1568,0.0559,0.0677,0.079,0.0389,0.0264,0.0335,0.0596,0.0627,0.051,0.0372,0.0524,0.0608,0.0704,0.0707,0.0864,0.1257,0.1571,0.1571,0.1335,0.1492,0.1492,0.1335,0.1492,0.1571,0.1335,0.1335,0.1257,0.1021,0.1021,0.1021,0.1021,0.0786,0.0707,0.0707,0.0707,0.055,0.0314,0.0,0.0313,0.0311,0.0916,0.1283,0.1499,0.2057,0.2333,0.2114,0.0655,0.0,-0.0437,0.0,0.0,0.0,0.0,0.0,0.0,0.0,0.0,0.0,0.0,-0.2028,-0.1553,-0.0135,0.0,0.0,0.0,0.0,0.0,0.0,0.0,-0.4263,-0.4218,-0.4267,-0.4298,-0.4308,-0.551,-0.6109,-0.6109,-0.7528,-0.8178,-0.8181,-0.8349,-0.7776,-0.6466,-0.6466,-0.5698,-0.4437,-0.429,-0.4183,-0.4008,-0.2617,-0.2024,-0.1848,0.0,0.0,0.0,0.0,0.0,0.0,0.0,0.0,0.0,0.0,0.0,0.0,0.0,0.0,0.0144,0.0946,0.1168,0.1386,0.2042,0.226,0.2107,0.1364,0.1275,0.1047,0.0206,0.0066,0.0129,0.0,0.0,0.0,0.0065,0.0343,0.0431,0.0146,0.037,0.0378,0.0078,0.0,0.0157,0.055,0.0628,0.0786,0.1178,0.1492,0.1571,0.1257,0.1178,0.1178,0.1178,0.0786,0.055,0.055,0.055,0.055,0.055,0.0157,0.0,0.0,0.0,0.0,0.0,0.0,0.0,0.0616,0.1065,0.1428,0.1855,0.2198,0.226,0.2187,0.1822,0.1459,0.0876,0.0,0.0,0.0,0.0,0.0,0.0,0.0,0.0,0.0,0.0,-0.1311,-0.0959,0.0,0.0,0.0,0.0,0.0,0.0,0.0,0.0,0.0,-0.4215,-0.4226,-0.4256,-0.4307,-0.4508,-0.4641,-0.4641,-0.492,-0.506,-0.506,-0.514,-0.5011,-0.4742,-0.4742,-0.4578,-0.4264,-0.4283,-0.3909,-0.3256,-0.2455,-0.1794,-0.1188,-0.0335,0.0,0.0,0.0,0.0,0.0,0.0,0.0,0.0,0.0,0.0,0.0,0.0,0.0,0.0073,0.0583,0.0949,0.1313,0.175,0.2114,0.2107,0.1364,0.1629,0.1666,0.0268,0.0458,0.0704,0.0125,0.0,0.0131,0.0466,0.0275,0.0214,0.0443,0.03,0.0076,0.0,0.0,0.0157,0.055,0.0628,0.0628,0.0707,0.0786,0.0786,0.0707,0.0707,0.0707,0.0707,0.0314,0.0079,0.0079,0.0079,0.0079,0.0079,0.0,0.0,0.0,0.0,0.0,0.0,0.0,0.0,0.0616,0.1065,0.1428,0.1855,0.2198,0.2114,0.1822,0.1459,0.1022,0.0584,0.0,0.0,0.0,0.0,0.0,0.0,-0.2809,-0.2349,-0.1744,-0.0637,-0.056,-0.0417,-0.0069,0.0,-0.0272,0.0,0.0,0.0,0.0,0.0,0.0,-0.4263,-0.4233,-0.423,-0.4259,-0.4229,-0.4213,-0.4213,0.0,-0.426,-0.426,-0.4293,-0.4308,-0.4308,-0.4308,-0.4292,-0.4263,-0.4262,-0.3831,-0.3069,-0.2384,-0.1716,-0.0979,0.0,0.0,0.0,0.0,0.0,0.0,0.0,0.0,0.0,0.0,0.0,0.0,0.0,0.0,0.0072,0.0506,0.0726,0.1022,0.1677,0.1895,0.1955,0.1552,0.1595,0.1425,0.0455,0.0382,0.044,0.0062,0.0,0.0065,0.0263,0.0273,0.0283,0.0291,0.0297,0.0227,0.0,0.0,0.0078,0.0235,0.0314,0.0314,0.0314,0.0314,0.0314,0.0314,0.0314,0.0314,0.0314,0.0079,0.0,0.0,0.0,0.0,0.0,0.0,0.0,0.0,0.0,0.0,0.0,0.0234,0.0,0.0916,0.1357,0.1711,0.2058,0.2046,0.1968,0.175,0.1095,0.073,0.0511,0.0,0.0,0.0,0.0,0.0,0.0,-0.2329,-0.1598,-0.0845,-0.0071,0.0,0.0,0.0,0.0,-0.0206,0.0,0.0,0.0,0.0,0.0,0.0,0.0,0.0,0.0,-0.4196,0.0,0.0,-0.4125,-0.4174,0.0,0.0,0.0,0.0,0.0,-0.4301,-0.4308,-0.4303,-0.4043,-0.3622,0.0,0.0,-0.1563,-0.0968,0.0,0.0,0.0,0.0,0.0,0.0,0.0,0.0,0.0,0.0,0.0,0.0,0.0,0.0,0.0071,0.0356,0.0503,0.0724,0.1374,0.1663,0.1719,0.1518,0.1354,0.1127,0.051,0.025,0.0062,0.0,0.0,0.0,0.0,0.0335,0.0417,0.0071,0.0364,0.0447,0.0077,0.0,0.0,0.0,0.0,0.0,0.0,0.0,0.0,0.0,0.0,0.0,0.0,0.0,0.0,0.0,0.0,0.0,0.0,0.0,0.0,0.0,0.0,0.0,0.0,0.0388,0.0,0.0,0.1643,0.1991,0.226,0.1895,0.175,0.1604,0.0876,0.0511,0.0438,0.0,0.0,0.0,0.0,0.0,0.0,-0.2329,-0.1598,-0.0842,-0.007,0.0,0.0,0.0,0.0,0.0,0.0,0.0,0.0,0.0,0.0,0.0,0.0,0.0,0.0,0.0,0.0,0.0,-0.4125,-0.4131,0.0,0.0,0.0,0.0,0.0,0.0,-0.4308,-0.4235,-0.3578,0.0,0.0,0.0,0.0,0.0,0.0,0.0,0.0,0.0,0.0,0.0,0.0,0.0,0.0,0.0,0.0,0.0,0.0,0.0,0.0,0.007,0.0352,0.0634,0.0704,0.1197,0.1537,0.0882,0.1134,0.1244,0.0254,0.025,0.037,0.0062,0.0,0.0,0.0,0.0259,0.0398,0.007,0.0285,0.0364,0.0076,0.0,0.0,0.0,0.0,0.0,0.0,0.0,0.0,0.0,0.0,0.0,0.0,0.0,0.0,0.0,0.0,0.0,0.0,0.0,0.0,0.0,0.0,0.0,0.0,0.0388,0.0,0.0,0.1643,0.1991,0.226,0.1895,0.1604,0.1167,0.073,0.0365,0.0073,0.0,0.0,0.0,0.0,0.0,0.0,-0.1594,-0.0908,-0.0353,-0.0072,0.0,0.0,0.0,0.0,0.0,0.0,-0.1321,0.0,0.0,0.0,0.0,0.0,0.0,0.0,0.0,0.0,-0.3958,-0.3958,-0.3991,0.0,0.0,0.0,0.0,0.0,0.0,-0.3937,-0.3543,-0.326,0.0,0.0,0.0,0.0,0.0,0.0,0.0,0.0,0.0,0.0,0.0,0.0,0.0,0.0,0.0,0.0,0.0,0.0,0.0,0.0,0.0,0.0139,0.0281,0.0561,0.097,0.1223,0.1189,0.1168,0.1083,0.0618,0.037,0.0185,0.0,0.0123,0.0184,0.0,0.0253,0.0322,0.0066,0.0138,0.0143,0.0,0.0,0.0,0.0,0.0,0.0,0.0,0.0,0.0,0.0,0.0,0.0,0.0,0.0,0.0,0.0,0.0,0.0,0.0,0.0,0.0,0.0,0.0,0.0156,0.0388,0.0767,0.0,0.0,0.192,0.2051,0.1968,0.1604,0.1167,0.0803,0.0365,0.0146,0.0,0.0,0.0,0.0,0.0,0.0,-0.1086,-0.1112,-0.049,0.0,0.0,0.0,0.0,0.0,0.0,0.0,0.0,-0.1333,0.0,0.0,0.0,0.0,0.0,0.0,0.0,0.0,0.0,-0.3889,-0.3889,-0.3928,-0.3947,0.0,0.0,-0.3972,-0.3781,0.0,0.0,0.0,0.0,0.0,0.0,0.0,0.0,0.0,0.0,0.0,0.0,0.0,0.0,0.0,0.0,0.0,0.0,0.0,0.0,0.0,0.0,0.0,0.0,0.0,0.0,0.0069,0.0347,0.0747,0.1057,0.116,0.1137,0.1052,0.0904,0.0544,0.0244,0.0244,0.0423,0.0482,0.0184,0.0371,0.044,0.0064,0.0067,0.0138,0.0,0.0,0.0,0.0,0.0,0.0,0.0,0.0,0.0,0.0,0.0,0.0,0.0,0.0,0.0,0.0,0.0,0.0,0.0,0.0,0.0078,0.0156,0.0156,0.0388,0.0767,0.0,0.0,0.0,0.1979,0.1968,0.1604,0.1167,0.0876,0.0584,0.0146,0.0,0.0,0.0,0.0,0.0,0.0,0.0,-0.1082,-0.1098,-0.0487,0.0,0.0,0.0,0.0,0.0,0.0,0.0,0.0,-0.1352,0.0,0.0,0.0,0.0,0.0,0.0,0.0,-0.3889,-0.3889,-0.3889,-0.3889,-0.3889,-0.3889,-0.3891,-0.3947,-0.3659,-0.3095,0.0,0.0,0.0,0.0,0.0,0.0,0.0,0.0,0.0,0.0,0.0,0.0,0.0,0.0,0.0,0.0,0.0,0.0,0.0,0.0,0.0,0.0,0.0,0.0,0.0,0.0,0.0,0.0,0.0527,0.09,0.0507,0.0926,0.1322,0.0946,0.0884,0.0884,0.0884,0.0884,0.077,0.0421,0.0664,0.0675,0.0064,0.0258,0.0394,0.0068,0.0,0.0,0.0,0.0,0.0,0.0,0.0,0.0,0.0,0.0,0.0,0.0,0.0,0.0,0.0,0.0,0.0,0.0,0.0,0.0234,0.0617,0.0617,0.0843,0.0,0.0,0.0,0.0,0.1612,0.1604,0.1168,0.073,0.0584,0.0584,0.0146,0.0,0.0,0.0,0.0,0.0,0.0,0.0,0.0,-0.1043,-0.0916,-0.0785,-0.0792,-0.0799,-0.0726,-0.043,-0.0434,-0.0291,0.0,-0.1345,0.0,0.0,0.0,0.0,0.0,0.0,0.0,-0.3889,-0.3889,-0.3889,-0.3889,-0.3889,-0.3889,-0.3889,-0.3907,-0.3605,-0.3045,-0.306,-0.2441,0.0,-0.1121,0.0,0.0,0.0,0.0,0.0,0.0,0.0,0.0,0.0,0.0,0.0,0.0,0.0,0.0,0.0,0.0,0.0,0.0,0.0,0.0064,0.0253,0.0127,0.0129,0.0509,0.0745,0.097,0.1025,0.1186,0.1283,0.1218,0.1052,0.0884,0.0884,0.1051,0.1107,0.077,0.0831,0.0779,0.0307,0.0193,0.0134,0.0,0.0,0.0,0.0,0.0,0.0,0.0,0.0,0.0,0.0,0.0,0.0,0.0,0.0,0.0,0.0,0.0,0.0,0.0,0.0312,0.0465,0.0617,0.0917,0.0,0.0,0.0,0.0,0.0,0.1315,0.1167,0.0803,0.0657,0.0438,0.0146,0.0073,0.0,0.0,0.0,0.0,0.0,0.0,0.0,0.0,-0.105,-0.1135,-0.1222,-0.1166,-0.1168,-0.1017,-0.0645,-0.0577,-0.0432,0.0,-0.1122,0.0,0.0,0.0,0.0,0.0,0.0,0.0,-0.3889,-0.3889,-0.3879,-0.3917,-0.3917,-0.3793,-0.3548,-0.3548,-0.3069,-0.2221,-0.2221,-0.1666,0.0,-0.0617,0.0,0.0,0.0,0.0,0.0,0.0,0.0,0.0,0.0,0.0,0.0,0.0,0.0,0.0,0.0,0.0,0.0,0.0,0.0,0.0062,0.0184,0.0186,0.025,0.0619,0.0905,0.1119,0.1237,0.139,0.1481,0.1481,0.1378,0.1215,0.1215,0.1377,0.1374,0.1106,0.0939,0.0773,0.0428,0.0193,0.0,0.0,0.0,0.0,0.0,0.0,0.0077,0.0232,0.0,0.0,0.0465,0.0465,0.0465,0.0465,0.0156,0.0078,0.0234,0.0234,0.0311,0.0465,0.0692,0.084,0.0836,0.1056,0.0,0.0,0.0,0.0,0.0,0.0949,0.073,0.0365,0.0365,0.0219,0.0,0.0,0.0073,0.0217,0.0,0.0,0.0,0.0,0.0,0.0,0.0,-0.1208,-0.1296,-0.1311,-0.1313,-0.1089,-0.0717,-0.0645,-0.0499,-0.007,-0.0624,0.0,0.0,0.0,0.0,0.0,0.0,-0.3889,-0.3889,-0.3889,-0.3922,-0.3927,-0.3862,-0.35,-0.2898,-0.2835,-0.2188,-0.0988,-0.0988,-0.0617,0.0,0.0,0.0,0.0,0.0,0.0,0.0,0.0,0.0,0.0,0.0,0.0,0.0,0.0,0.0,0.0,0.0,0.0,0.0,0.0,0.0,0.0,0.0,0.0182,0.043,0.043,0.09,0.1292,0.135,0.1548,0.0,0.1795,0.1795,0.1795,0.1795,0.1795,0.1692,0.1374,0.099,0.0659,0.0313,0.0,-0.0132,-0.0137,-0.007,-0.0072,-0.0146,-0.0075,0.0151,0.0,0.0,0.0,0.1136,0.1211,0.1211,0.1136,0.0465,0.0234,0.0616,0.0616,0.0842,0.1136,0.121,0.1203,0.1189,0.1188,0.0,0.0,0.0,0.0,0.0,0.0584,0.0365,0.0,0.0,0.0,0.0,0.0,0.0217,0.0501,0.0,0.0,0.0,0.0,0.0,0.0,0.0,0.0,0.0,0.0,-0.2042,-0.1814,-0.1147,-0.1083,-0.0792,0.0,0.0,0.0,0.0,0.0,0.0,0.0,-0.3912,-0.3889,-0.3889,-0.3889,-0.3883,-0.3929,-0.3458,-0.3154,-0.2944,-0.2424,-0.1762,-0.0988,-0.0988,-0.0617,0.0,0.0,0.0,0.0,0.0,0.0,0.0,0.0,0.0,0.0,0.0,0.0,0.0,0.0,0.0,0.0,0.0,0.0,0.0,0.0,0.0,0.0,0.0,0.0,0.0525,0.0979,0.1199,0.1362,0.0,0.1749,0.1795,0.1795,0.1795,0.1795,0.1795,0.1795,0.1797,0.1692,0.0404,-0.0715,-0.0924,-0.1448,-0.1724,-0.1533,-0.0643,-0.0434,-0.1438,-0.0589,0.0075,0.0,0.0,0.0606,0.0757,0.106,0.106,0.0757,0.0533,0.0686,0.1065,0.1065,0.0987,0.0757,0.105,0.1044,0.0743,0.1031,0.0,0.0,0.0,0.0,0.0146,0.0146,0.0073,0.0,0.0,0.0,0.0,0.0,0.0217,0.0572,0.0,0.0,0.0,0.0,0.0,0.0,0.0,0.0,0.0,0.0,-0.2333,-0.2104,-0.1505,-0.1297,-0.093,0.0,0.0,0.0,0.0,0.0,0.0,-0.3029,-0.3047,-0.3146,-0.3455,-0.3517,-0.3444,-0.3418,-0.3086,-0.2664,-0.2015,-0.1695,-0.1155,-0.0556,-0.0556,-0.037,0.0,0.0,0.0,0.0,0.0,0.0,0.0,0.0,0.0,0.0,0.0,0.0,0.0,0.0,0.0,0.0,0.0,0.0,0.0,0.0,0.0,0.0,0.0,0.0169,0.051,0.1012,0.1234,0.1402,0.1739,0.1795,0.1795,0.1795,0.1795,0.1795,0.1795,0.1818,0.1656,0.1068,-0.0236,-0.1364,-0.1725,-0.2537,-0.2554,-0.126,-0.0994,-0.0933,0.0,-0.0439,0.0,0.0,0.0,0.067,0.0894,0.1117,0.1117,0.0894,0.0894,0.0896,0.0901,0.0901,0.0899,0.0894,0.1109,0.0958,0.059,0.0805,0.073,0.0,0.0,0.0,0.0,0.0,0.0,0.0,0.0,0.0,0.0,0.0145,0.043,0.0849,0.0,0.0,0.0,0.0,0.0,0.0,0.0,0.0,0.0,0.0,0.0,0.0,0.0,0.0,0.0,0.0,0.0,0.0,0.0,0.0,0.0,-0.1647,-0.1867,-0.2281,-0.2837,-0.2837,-0.2819,-0.2782,-0.2648,-0.2047,-0.0908,-0.0783,-0.0486,0.0,0.0,0.0,0.0,0.0,0.0,0.0,0.0,0.0,0.0,0.0,0.0,0.0,0.0,0.0,0.0,0.0,0.0,0.0,0.0,0.0,0.0,0.0,0.0,0.0,0.0,0.0169,0.0451,0.0786,0.1121,0.1402,0.1739,0.1795,0.1795,0.1795,0.1795,0.1797,0.1807,0.1728,0.1277,0.017,-0.1096,-0.2019,-0.2223,-0.3258,-0.3084,-0.0629,-0.1126,0.0,-0.0362,0.0,0.0,0.0,0.0,0.073,0.1095,0.1168,0.1168,0.1095,0.1095,0.088,0.0519,0.0593,0.0812,0.1095,0.1095,0.0876,0.0511,0.0511,0.0292,0.0,0.0,0.0,0.0,0.0,0.0,0.0,0.0073,0.0073,0.0145,0.043,0.0849,0.1256,0.0,0.0,0.0,0.0,0.0,0.0,0.0,0.0,0.0,0.0,0.0,0.0,0.0,0.0,0.0,0.0,0.0,0.0,0.0,0.0,0.0,-0.0322,-0.1377,-0.2035,-0.2158,-0.2158,-0.2155,-0.2151,-0.1557,-0.1199,-0.0984,-0.0419,-0.006,0.0,0.0,0.0,0.0,0.0,0.0,0.0,0.0,0.0,0.0,0.0,0.0,0.0,0.0,0.0,0.0,0.0,0.0,0.0,0.0,0.0,0.0,0.0,0.0,0.0,0.0,0.0057,0.0174,0.0734,0.1121,0.1402,0.1739,0.1795,0.1795,0.1795,0.1795,0.181,0.1862,0.1033,0.0228,0.0116,-0.2715,-0.426,-0.235,-0.3476,-0.3858,-0.1896,0.0,-0.0648,0.0,0.0,0.0,0.0,0.0,0.0657,0.0657,0.1022,0.1022,0.073,0.0657,0.0511,0.0073,0.0732,0.0951,0.0657,0.0657,0.0511,0.0073,0.0073,0.0073,0.0,0.0,0.0,0.0,0.0,0.0,0.0,0.0288,0.0431,0.0502,0.0849,0.1256,0.1583,0.0,0.0,0.0,0.0,0.0,0.0,0.0,0.0,0.0,0.0,0.0,0.0,0.0,0.0,0.0,0.0,0.0,0.0,0.0,0.0,0.0,0.0,-0.0564,-0.1111,-0.1481,-0.1481,-0.1475,-0.1462,-0.1152,-0.0785,-0.0482,-0.012,0.0,0.0,0.0,0.0,0.0,0.0,0.0,0.0,0.0,0.0,0.0,0.0,0.0,0.0,0.0,0.0,0.0,0.0,0.0,0.0,0.0,0.0,0.0,0.0,0.0,0.0,0.0,0.0,0.0115,0.0518,0.07,0.0887,0.1242,0.1301,0.1354,0.1504,0.1555,0.1621,0.1881,0.1476,0.0725,-0.0449,-0.2581,-0.3609,-0.2362,-0.3353,-0.3422,0.0,0.0,0.0,0.0,0.0,0.0,0.0,0.0,0.0,0.0292,0.0438,0.0438,0.0292,0.0729,0.0802,0.0656,0.1021,0.0875,0.0292,0.0292,0.0146,0.0,0.0,0.0,0.0,0.0,0.0,0.0,0.0,0.0073,0.0289,0.043,0.0641,0.0848,0.1255,0.1582,0.1969,0.0,0.0,0.0,0.0,0.0,0.0,0.0,0.0,0.0,0.0,0.0,0.0,0.0,0.0,0.0,0.0,0.0,0.0,0.0,0.0,0.0,0.0,0.0,-0.0247,-0.0741,-0.0741,-0.0737,-0.0789,-0.0795,-0.0485,0.0,0.0,0.0,0.0,0.0,0.0,0.0,0.0,0.0,0.0,0.0,0.0,0.0,0.0,0.0,0.0,0.0,0.0,0.0,0.0,0.0,0.0,0.0,0.0,0.0,0.0,0.0,0.0,0.0,0.0,0.0057,0.0234,0.0418,0.0607,0.0862,0.0921,0.1034,0.1196,0.1251,0.131,0.137,0.1275,0.0695,-0.0744,-0.2059,-0.2583,-0.1746,-0.2701,-0.2624,-0.0282,-0.092,0.0,0.0,0.0,0.0,0.0,0.0,0.0,0.0,0.0,0.0,0.0,0.0802,0.1166,0.1166,0.1385,0.1094,0.0292,0.0073,0.0,0.0,0.0,0.0,0.0,0.0,0.0073,0.0145,0.0145,0.0288,0.0641,0.071,0.0985,0.1388,0.1648,0.1903,0.2222,0.0,0.0,0.0,0.0,0.0,0.0,0.0,0.0,0.0,0.0,0.0,0.0,0.0,0.0,0.0,0.0,0.0,0.0,0.0,0.0,0.0,0.0,0.0,0.0,-0.0062,-0.0062,-0.0062,-0.0062,-0.0061,-0.006,0.0,0.0,0.0,0.0,0.0,0.0,0.0,0.0,0.0,0.0,0.0,0.0,0.0,0.0,0.0,0.0,0.0,0.0,0.0,0.0,0.0,0.0,0.0,0.0,0.0,0.0,0.0,0.0,0.0,0.0,0.0,0.0,0.0462,0.0861,0.0914,0.1087,0.1192,0.0979,0.1169,0.1046,-0.0061,-0.0861,-0.1178,-0.057,-0.1963,-0.2311,0.0,0.0,-0.1812,-0.0218,0.0,0.0,0.0,0.0,0.0,0.0,0.0,0.0,0.0,0.0,0.0,0.0,0.0802,0.1166,0.1166,0.1895,0.1822,0.1093,0.0365,0.0,0.0,0.0,0.0,0.0,0.0,0.0145,0.043,0.043,0.0711,0.1122,0.1386,0.1777,0.2093,0.2159,0.2157,0.2222,0.0,0.0,0.0,0.0,0.0,0.0,0.0,0.0,0.0,0.0,0.0,0.0,0.0,0.0,0.0,0.0,0.0,0.0,0.0,0.0,0.0,0.0,0.0,0.0,0.0,0.0,0.0,0.0,0.0,0.0,0.0,0.0,0.0,0.0,0.0,0.0,0.0,0.0,0.0,0.0,0.0,0.0,0.0,0.0,0.0,0.0,0.0,0.0,0.0,0.0,0.0,0.0,0.0,0.0,0.0,0.0,0.0,0.0,0.0,0.0,0.0,0.0,0.0292,0.0529,0.0376,0.0441,0.05,0.0563,0.0694,0.0568,-0.0247,0.0254,0.052,-0.0195,-0.04,-0.0276,0.0427,-0.0287,-0.065,0.0,0.0,0.0,0.0,0.0,0.0,0.0,0.0,0.0,0.0,0.0,0.0,0.0729,0.1458,0.2114,0.2625,0.2893,0.2809,0.2593,0.1816,0.1167,0.0729,0.0729,0.0581,0.0288,0.0288,0.0501,0.0848,0.0848,0.1052,0.1453,0.1842,0.2097,0.2222,0.2222,0.2222,0.2222,0.0,0.0,0.0,0.0,0.0,0.0,0.0,0.0,0.0,0.0,0.0,0.0,0.0,0.0,0.0,0.0,0.0,0.0,0.0,0.0,0.0,0.0,0.0,0.0,0.0,0.0,0.0,0.0,0.0,0.0,0.0,0.0,0.0,0.0,0.0,0.0,0.0,0.0,0.0,0.0,0.0,0.0,0.0,0.0,0.0,0.0,0.0,0.0,0.0,0.0,0.0,0.0,0.0,0.0,0.0,0.0,0.0,0.0,0.0,0.0,0.0,0.0,0.0119,0.024,0.0064,0.0064,0.0128,0.0257,-0.0258,-0.0513,-0.0063,0.0452,0.0662,0.0328,0.074,0.1038,0.0705,0.0355,0.0,0.0,0.0,0.0,0.0,0.0,0.0,0.0,0.0,0.0,0.0,0.0,0.0,0.0,0.1872,0.2664,0.3458,0.3499,0.3554,0.3554,0.294,0.216,0.1152,0.1296,0.1004,0.0498,0.064,0.0918,0.1255,0.1255,0.1452,0.1842,0.2095,0.2222,0.2222,0.2222,0.2222,0.2222,0.0,0.0,0.0,0.0,0.0,0.0,0.0,0.0,-0.23,-0.2329,-0.2333,0.0,0.0,0.0,0.0,0.0,0.0,0.0,0.0,0.0,0.0,0.0,0.0,0.0,0.0,0.0,0.0,0.0,0.0,0.0,0.0,0.0,0.0,0.0,0.0,0.0,0.0,0.0,0.0,0.0,0.0,0.0,0.0,0.0,0.0,0.0,0.0,0.0,0.0,0.0,0.0,0.0,0.0,0.0,0.0,0.0,0.0,0.0,0.0,0.0,0.0,0.0,0.0,0.0,0.0,0.0189,0.0314,0.0067,-0.1578,-0.2126,0.0516,-0.0838,-0.1546,0.1031,0.1271,0.11,0.11,0.0,0.0,0.0,0.0,0.0,0.0,0.0,0.0,0.0,0.0,0.0,0.0,0.0,0.0,0.0,0.1822,0.2593,0.3294,0.3715,0.3926,0.3926,0.3574,0.2594,0.1122,0.1473,0.1192,0.0561,0.0912,0.1322,0.1581,0.1581,0.1841,0.2222,0.2222,0.2222,0.2222,0.2222,0.2222,0.2222,0.0,0.0,0.0,0.0,0.0,0.0,0.0,0.0,-0.2277,-0.2326,-0.2315,0.0,0.0,0.0,0.0,0.0,0.0,0.0,0.0,0.0,0.0,0.0,0.0,0.0,0.0,0.0,0.0,0.0,0.0,0.0,0.0,0.0,0.0,0.0,0.0,0.0,0.0,0.0,0.0,0.0,0.0,0.0,0.0,0.0,0.0,0.0,0.0,0.0,0.0,0.0,0.0,0.0,0.0,0.0,0.0,0.0,0.0,0.0,0.0,0.0,0.0,0.0,0.0,0.0,0.0,0.0064,0.0064,0.0,-0.0265,-0.0522,-0.0581,-0.0262,0.0,-0.0129,0.0332,0.068,0.0686,0.0,0.0,0.0,0.0,0.0,0.0,0.0,0.0,0.0,0.0,0.0,0.0,0.0,0.0,0.0,0.2102,0.2802,0.4133,0.4236,0.4218,0.4217,0.4107,0.344,0.2243,0.1612,0.1465,0.166,0.0968,0.1167,0.2033,0.2033,0.2095,0.2222,0.2222,0.2222,0.2222,0.2222,0.2222,0.2222,0.0,0.0,0.0,0.0,0.0,0.0,0.0,0.0,-0.2245,-0.222,-0.214,-0.1994,0.0,0.0,0.0,0.0,0.0,0.0,0.0,0.0,0.0,0.0,0.0,0.0,0.0,0.0,0.0,0.0,0.0,0.0,0.0,0.0,0.0,0.0,0.0,0.0,0.0,0.0,0.0,0.0,0.0,0.0,0.0,0.0,0.0,0.0,0.0,0.0,0.0,0.0,0.0,0.0,0.0,0.0,0.0,0.0,0.0,0.0,0.0,0.0,0.0,0.0,0.0,0.0,0.0,0.0,0.0,0.0,-0.0201,-0.0397,-0.0723,-0.0333,-0.0067,-0.0263,0.0133,0.0472,0.0476,0.0,0.0,0.0,0.0,0.0,0.0,0.0,0.0,0.0,0.0,0.0,0.0,0.0,0.0,0.0,0.1862,0.2551,0.4205,0.4036,0.402,0.4157,0.3852,0.3394,0.2965,0.2137,0.1922,0.2182,0.15,0.1561,0.2222,0.2222,0.2222,0.2222,0.2222,0.2222,0.2222,0.2222,0.2087,0.1953,0.0,0.0,-0.2223,-0.2225,0.0,0.0,0.0,0.0,-0.2208,-0.2171,-0.1962,-0.1752,0.0,0.0,0.0,0.0,0.0,0.0,0.0,0.0,0.0,0.0,0.0,0.0,0.0,0.0,0.0,0.0,0.0,0.0,0.0,0.0,0.0,0.0,0.0,0.0,0.0,0.0,0.0,0.0,0.0,0.0,0.0,0.0,0.0,0.0,0.0,0.0,0.0,0.0,0.0,0.0,0.0,0.0,0.0,0.0,0.0,0.0,0.0,0.0,0.0,0.0,0.0,0.0,0.0,0.0,0.0,0.0,-0.0807,-0.1143,-0.0202,-0.0807,-0.1009,0.0269,0.0471,0.0471,0.0471,0.0,0.0,0.0,0.0,0.0,0.0,0.0,0.0,0.0,0.0,0.0,0.0,0.0,0.0,0.1548,0.1279,0.1951,0.3701,0.3363,0.3363,0.0,0.3097,0.2894,0.3161,0.2758,0.2422,0.2155,0.2155,0.2222,0.2222,0.2222,0.2222,0.2222,0.2222,0.2155,0.2155,0.2155,0.1885,0.1548,0.0,0.0,-0.223,-0.2186,0.0,0.0,0.0,0.0,0.0,-0.2169,-0.2155,0.0,0.0,0.0,0.0,0.0,0.0,0.0,0.0,0.0,0.0,0.0,0.0,0.0,0.0,0.0,0.0,0.0,0.0,0.0,0.0,0.0,0.0,0.0,0.0,0.0,0.0,0.0,0.0,0.0,0.0,0.0,0.0,0.0,0.0,0.0,0.0,0.0,0.0,0.0,0.0,0.0,0.0,0.0,0.0,0.0,0.0,0.0,0.0,0.0,0.0,0.0,0.0,0.0,0.0,0.0,0.0,0.0,-0.0202,-0.0269,-0.0067,-0.0202,-0.0269,0.0067,0.0135,0.0135,0.0135,0.0,0.0,0.0,0.0,0.0,0.0,0.0,0.0,0.0,0.0,0.0,0.0,0.0,0.0,0.1548,0.1279,0.1817,0.3295,0.3228,0.3228,0.0,0.3162,0.3162,0.3161,0.2221,0.1818,0.175,0.2087,0.2222,0.2222,0.2222,0.2222,0.2222,0.2222,0.202,0.175,0.175,0.1481,0.1212,0.0,0.0,0.0,0.0,0.0,0.0,0.0,0.0,0.0,0.0,0.0,0.0,0.0,0.0,0.0,0.0,0.0,0.0,0.0,0.0,0.0,0.0,0.0,0.0,0.0,0.0,0.0,0.0,0.0,0.0,0.0,0.0,0.0,0.0,0.0,0.0,0.0,0.0,0.0,0.0,0.0,0.0,0.0,0.0,0.0,0.0,0.0,0.0,0.0,0.0,0.0,0.0,0.0,0.0,0.0,0.0,0.0,0.0,0.0,0.0,0.0,0.0,0.0,0.0,0.0,0.0,0.0,0.0,0.0,0.0,0.0,0.0,0.0,0.0,0.0,0.0,0.0,0.0,0.0,0.0,0.0,0.0,0.0,0.0,0.0,0.0,0.0,0.0,0.0,-0.0135,0.0269,0.1346,0.1212,0.1682,0.2961,0.2961,0.3027,0.3228,0.3027,0.2961,0.2961,0.2019,0.1481,0.1346,0.1346,0.1481,0.1683,0.1683,0.1683,0.1683,0.1683,0.1548,0.1346,0.1346,0.1144,0.0808,0.0,0.0,0.0,0.0,0.0,0.0,0.0,0.0,0.0,0.0,0.0,0.0,0.0,0.0,0.0,0.0,0.0,0.0,0.0,0.0,0.0,0.0,0.0,0.0,0.0,0.0,0.0,0.0,0.0,0.0,0.0,0.0,0.0,0.0,0.0,0.0,0.0,0.0,0.0,0.0,0.0,0.0,0.0,0.0,0.0,0.0,0.0,0.0,0.0,0.0,0.0,0.0,0.0,0.0,0.0,0.0,0.0,0.0,0.0,0.0,0.0,0.0,0.0,0.0,0.0,0.0,0.0,0.0,0.0,0.0,0.0,0.0,0.0,0.0,0.0,0.0,0.0,0.0,0.0,0.0,0.0,0.0,0.0,0.0,0.0,0.0,0.0,0.0,0.0,0.0,0.0337,0.1077,0.1077,0.1616,0.2627,0.2627,0.276,0.3027,0.276,0.2627,0.2559,0.1818,0.1414,0.1279,0.074,0.074,0.1077,0.1077,0.1077,0.1077,0.1077,0.1077,0.101,0.101,0.074,0.0404,0.0,0.0,0.0,0.0,0.0,0.0,0.0,0.0,0.0,0.0,-0.0267,-0.0471,0.0,0.0,-0.0727,-0.0066,0.0,0.0,0.0,0.0,0.0,0.0,0.0,0.0,0.0,0.0,0.0,0.0,0.0,0.0,0.0,0.0,0.0,0.0,0.0,0.0,0.0,0.0,0.0,0.0,0.0,0.0,0.0,0.0,0.0,0.0,0.0,0.0,0.0,0.0,0.0,0.0,0.0,0.0,0.0,0.0,0.0,0.0,0.0,0.0,0.0,0.0,0.0,0.0,0.0,0.0,0.0,0.0,0.0,0.0,0.0,0.0,0.0,0.0,0.0,0.0,0.0,0.0,0.0,0.0,0.0,0.0,0.0,0.0,0.0,0.0,0.0,0.0,0.0,0.0,0.0337,0.1077,0.1077,0.1481,0.2289,0.2289,0.2289,0.2357,0.2289,0.2289,0.2222,0.1481,0.1481,0.202,0.0942,0.074,0.1077,0.1077,0.1077,0.1077,0.1077,0.0875,0.0606,0.0606,0.0337,0.0067,0.0,0.0,0.0,0.0,0.0,0.0,0.0,0.0,0.0,0.0,0.0,0.0067,0.0133,-0.0595,-0.0788,-0.0065,0.0,0.0,0.0,0.0,0.0,0.0,0.0,0.0,0.0,0.0,0.0,0.0,0.0,0.0,0.0,0.0,0.0,0.0,0.0,0.0,0.0,0.0,0.0,0.0,0.0,0.0,0.0,0.0,0.0,0.0,0.0,0.0,0.0,0.0,0.0,0.0,0.0,0.0,0.0,0.0,0.0,0.0,0.0,0.0,0.0,0.0,0.0,0.0,0.0,0.0,0.0,0.0,0.0,0.0,0.0,0.0,0.0,0.0,0.0,0.0,0.0,0.0,0.0,0.0,0.0,0.0,0.0,0.0,0.0,0.0,0.0,0.0,0.0,0.0404,0.074,0.1077,0.1481,0.1885,0.2222,0.2222,0.2222,0.2222,0.2222,0.2222,0.2155,0.1414,0.1279,0.1548,0.0606,0.0337,0.0471,0.0471,0.0471,0.0471,0.0471,0.0404,0.0202,0.0202,0.0135,0.0,0.0,0.0,0.0,0.0,0.0,0.0,0.0,0.0,0.0,0.0,0.0,0.1198,0.1516,0.0,0.0,0.0,0.0191,0.0,0.0,0.0,0.0,0.0,0.0,0.0,0.0,0.0,0.0,0.0,0.0,0.0,0.0,0.0,0.0,0.0,0.0,0.0,0.0,0.0,0.0,0.0,0.0,0.0,0.0,0.0,0.0,0.0,0.0,0.0,0.0,0.0,0.0,0.0,0.0,0.0,0.0,0.0,0.0,0.0,0.0,0.0,0.0,0.0,0.0,0.0,0.0,0.0,0.0,0.0,0.0,0.0,0.0,0.0,0.0,0.0,0.0,0.0,0.0,0.0,0.0,0.0,0.0,0.0,0.0,0.0,0.0,0.0,0.0,0.0,0.0,0.0673,0.1077,0.1077,0.1818,0.2222,0.2222,0.2222,0.2222,0.2222,0.2222,0.2222,0.2155,0.1616,0.1212,0.0942,0.0269,0.0,0.0,0.0,0.0,0.0,0.0,0.0,0.0,0.0,0.0,0.0,0.0,0.0,0.0,0.0,0.0,0.0,0.0,0.0,0.0,0.0,0.0,0.3686,0.2958,0.1755,0.1219,0.1831,0.0738,0.0,0.0,0.0,0.0,0.0,0.0,0.0,0.0,0.0,0.0,0.0,0.0,0.0,0.0,0.0,0.0,0.0,0.0,0.0,0.0,0.0,0.0,0.0,0.0,0.0,0.0,0.0,0.0,0.0,0.0,0.0,0.0,0.0,0.0,0.0,0.0,0.0,0.0,0.0,0.0,0.0,0.0,0.0,0.0,0.0,0.0,0.0,0.0,0.0,0.0,0.0,0.0,0.0,0.0,0.0,0.0,0.0,0.0,0.0,0.0,0.0,0.0,0.0,0.0,0.0,0.0,0.0,0.0,0.0,0.0,0.0,0.0,0.0673,0.1077,0.1077,0.1818,0.2222,0.2222,0.2222,0.2222,0.2222,0.2222,0.2222,0.2222,0.2155,0.1548,0.0538,0.0135,0.0,0.0,0.0,0.0,0.0,0.0,0.0,0.0,0.0,0.0,0.0,0.0,0.0,0.0,0.0,0.0,0.0,0.0,0.0,0.0,0.0,0.0,0.0,0.0,0.2993,0.2399,0.286,0.1933,0.1238,0.116,0.0457,0.0,0.0,0.0,0.0,0.0,0.0,0.0,0.0,0.0,0.0,0.0,0.0,0.0,0.0,0.0,0.0,0.0,0.0168,0.028,0.0281,0.0756,0.0656,0.0303,0.0601,0.043,0.0,0.0,0.0,0.0,0.0,0.0,0.0,0.0,0.0,0.0,0.0,0.0,0.0,0.0,0.0,0.0,0.0,0.0,0.0,0.0,0.0,0.0,0.0,0.0,0.0,0.0,0.0,0.0,0.0,0.0,0.0,0.0,0.0,0.0,0.0,0.0,0.0,0.0,0.0,0.0,0.0,0.0,0.0,0.0,0.0673,0.1077,0.1077,0.1818,0.2222,0.2222,0.2222,0.2222,0.2222,0.2222,0.2222,0.2222,0.2222,0.1548,0.0538,0.0673,0.0337,-0.0337,-0.0067,0.0,0.0,0.0,0.0,0.0,0.0,0.0,0.0,0.0,0.0,0.0,0.0,0.0,0.7917,0.76,0.7504,0.7277,0.6746,0.0,0.0,0.0,0.0,0.367,0.3318,0.2833,0.2491,0.2393,0.1296,0.0616,0.0616,0.0224,0.0,0.0,0.0,0.0,0.0,0.0,0.0,0.0,0.0,0.0,0.0,0.0112,0.0112,0.0168,0.0336,0.0449,0.0619,0.1118,0.1024,0.0608,0.1033,0.0743,0.0127,0.0243,0.0181,0.0,0.0,0.0,0.0,0.0,0.0,0.0,0.0,0.0,0.0,0.0,0.0,0.0,0.0,0.0,0.0,0.0,0.0,0.0,0.0,0.0,0.0,0.0,0.0,0.0,0.0,0.0,0.0,0.0,0.0,0.0,0.0,0.0,0.0,0.0,0.0,0.0,0.0,0.0,0.0,-0.0135,0.0606,0.1212,0.1481,0.1953,0.2222,0.2222,0.2222,0.2222,0.2222,0.2222,0.2222,0.2222,0.2222,0.1548,0.0337,0.0875,0.0471,-0.0471,-0.0135,0.0,0.0,0.0,0.0,0.0,0.0,0.0,0.0,0.0,0.0,0.8161,0.8167,0.813,0.8049,0.8051,0.7948,0.7913,0.7965,0.0,0.0,0.0,0.0,0.0,0.34,0.3497,0.3644,0.364,0.2519,0.1847,0.1847,0.0672,0.0056,0.0056,0.0,0.0,0.0,0.0,0.0,0.0,0.0,0.0,0.0,0.028,0.0393,0.0393,0.0449,0.0617,0.0902,0.1023,0.097,0.095,0.1325,0.1014,0.0495,0.0804,0.0562,0.0063,0.0063,0.0,0.0,0.0,0.0,0.0,0.0,0.0,0.0,0.0,0.0,0.0,0.0,0.0,0.0,0.0,0.0,0.0,0.0,0.0,0.0,0.0,0.0,0.0,0.0,0.0,0.0,0.0,0.0,0.0,0.0,0.0,0.0,0.0,0.0,0.0,0.0,0.0,-0.0135,-0.0471,0.0538,0.1414,0.2155,0.2222,0.2222,0.2222,0.2222,0.2222,0.2222,0.2222,0.2222,0.2222,0.2222,0.1414,0.0067,0.0808,0.0471,-0.0471,-0.0135,0.0,0.0,0.0,0.0,0.0,0.0,0.0,0.0,0.0,0.8756,0.8839,0.9542,0.9499,0.918,0.8845,0.8629,0.834,0.0,0.0,0.0,0.7782,0.744,0.7156,0.6834,0.5902,0.5293,0.5202,0.3858,0.3078,0.3078,0.1959,0.1288,0.1288,0.0448,0.0,0.0,0.0,0.0,0.0,0.0,0.0,0.0,0.028,0.0561,0.0785,0.0953,0.1121,0.1241,0.1865,0.178,0.1286,0.178,0.169,0.1312,0.1348,0.1396,0.1392,0.097,0.0762,0.0554,0.0124,0.0,0.0,0.0,0.0,0.0,0.0,0.0,0.0,0.0,0.0,0.0,0.0,0.0,0.0,0.0,0.0,0.0,0.0,0.0,0.0,0.0,0.0,0.0,0.0,0.0,0.0,0.0,0.0,0.0,0.0,0.0,0.0,0.0,0.0,-0.0067,-0.0135,0.0673,0.1414,0.2155,0.2222,0.2222,0.2222,0.2222,0.2222,0.2222,0.2222,0.2222,0.2222,0.2222,0.1683,0.0808,0.101,0.0606,-0.0135,-0.0067,0.0,0.0,0.0,0.0,0.0,0.0,0.0,0.0,0.9424,0.9325,0.9374,0.992,0.9852,0.962,0.9277,0.9153,0.8894,0.0,0.0,0.0,0.7877,0.8157,0.8199,0.7957,0.726,0.6776,0.6707,0.5363,0.4305,0.3802,0.2518,0.1567,0.1064,0.0336,0.0,0.0,0.0,0.0,0.0,0.0,0.0056,0.0168,0.0449,0.0785,0.1065,0.1402,0.1514,0.1579,0.2107,0.2022,0.1643,0.2159,0.2006,0.1559,0.1744,0.1604,0.1344,0.1317,0.1157,0.0862,0.0186,0.0,0.0,0.0,0.0,0.0,0.0,0.0,0.0,0.0,0.0,0.0,0.0,0.0,0.0,0.0,0.0,0.0,0.0,0.0,0.0,0.0,0.0,0.0,0.0,0.0,0.0,0.0,0.0,0.0,0.0,0.0,0.0,0.0,0.0,0.0,0.0,0.0538,0.1144,0.175,0.202,0.2222,0.2222,0.2222,0.2222,0.2222,0.2222,0.2222,0.2222,0.2222,0.1818,0.1077,0.1077,0.0673,0.0,0.0,0.0,0.0,0.0,0.0,0.0,0.0,0.0,0.0,0.0,0.9771,0.9734,0.9605,0.9585,0.9537,0.9401,0.9381,0.9374,0.0,0.9459,0.9248,0.8588,0.8752,0.8603,0.7868,0.7943,0.8051,0.8066,0.6821,0.5586,0.4522,0.3075,0.1679,0.0504,0.028,0.0112,0.0,0.0,0.0,0.0,0.0056,0.0168,0.0393,0.0785,0.1065,0.1346,0.1683,0.1799,0.1814,0.1923,0.1938,0.1967,0.2337,0.21,0.169,0.1991,0.1553,0.0907,0.1526,0.1502,0.1077,0.0379,0.0123,0.0119,0.0,0.0,0.0,0.0,0.0,0.0,0.0,0.0,0.0,0.0,0.0,0.0,0.0,0.0,0.0,0.0,0.0,0.0,0.0,0.0,0.0,0.0,0.0,0.0,0.0,0.0,0.0,0.0,0.0,0.0,0.0,0.0,0.0,0.0,0.0337,0.074,0.1077,0.1818,0.2222,0.2222,0.2222,0.2222,0.2222,0.2222,0.2222,0.2222,0.2222,0.1818,0.1077,0.1077,0.0673,0.0,0.0,0.0,0.0,0.0,0.0,0.0,0.0,0.0,0.0,0.9466,0.9466,0.9459,0.9432,0.9425,0.9415,0.9388,0.9381,0.9337,0.9272,0.9123,0.9003,0.8857,0.8857,0.8881,0.8881,0.8608,0.8425,0.8539,0.7935,0.7595,0.7645,0.5975,0.458,0.3628,0.2181,0.0953,0.0,0.0,0.0,0.0,0.0224,0.0336,0.0449,0.0953,0.1234,0.1346,0.1683,0.1823,0.187,0.1894,0.1926,0.1967,0.21,0.2283,0.2453,0.2533,0.2567,0.2579,0.237,0.2195,0.1884,0.1129,0.0877,0.0753,0.0179,0.0,0.0,0.0,0.0,0.0,0.0,0.0,0.0,0.0,0.0,0.0,0.0,0.0,0.0,0.0,0.0,0.0,0.0,0.0,0.0,0.0,0.0,0.0,0.0,0.0,0.0,0.0,0.0,0.0,0.0,0.0,0.0,0.0,0.0606,0.101,0.1077,0.1818,0.2222,0.2222,0.2222,0.2222,0.2222,0.2222,0.2222,0.2222,0.2222,0.1818,0.1077,0.1077,0.0673,0.0,0.0,0.0,0.0,0.0,0.0,0.0,0.0,0.0,0.0,0.9381,0.9381,0.9357,0.934,0.9323,0.9245,0.9171,0.9161,0.9133,0.9055,0.9045,0.9045,0.9045,0.9113,0.9157,0.921,0.897,0.8818,0.8821,0.8471,0.8039,0.7648,0.6589,0.5639,0.4741,0.3798,0.3129,0.2624,0.2515,0.2459,0.2403,0.1847,0.2033,0.2864,0.175,0.2149,0.3495,0.2932,0.2715,0.2707,0.2144,0.1967,0.2026,0.2152,0.2261,0.2425,0.2425,0.2669,0.2832,0.2223,0.2185,0.2208,0.1767,0.1553,0.1397,0.0712,0.0536,0.0479,0.0116,0.0,0.0,0.0,0.0,0.0,0.0,0.0,0.0,0.0,0.0,0.0,0.0,0.0,0.0,0.0,0.0,0.0,0.0,0.0,0.0,0.0,0.0,0.0,0.0,0.0,0.0,0.0,0.0,-0.0135,-0.0538,0.0471,0.0942,0.0538,0.1616,0.2222,0.2222,0.2222,0.2222,0.2222,0.2222,0.2222,0.2222,0.2222,0.202,0.1616,0.1279,0.0875,0.0538,0.0135,0.0,0.0,0.0,0.0,0.0,0.0,0.0,0.0,0.9296,0.9296,0.9259,0.9133,0.9169,0.9072,0.8902,0.8885,0.8895,0.8977,0.9106,0.9265,0.9296,0.9374,0.9429,0.9391,0.9357,0.9222,0.902,0.8808,0.8283,0.7326,0.6945,0.6323,0.5462,0.5262,0.5188,0.5129,0.491,0.4801,0.4801,0.3631,0.391,0.5226,0.3079,0.3486,0.5633,0.4498,0.4024,0.3952,0.3081,0.2495,0.21,0.2163,0.2194,0.2205,0.2218,0.2424,0.2624,0.2007,0.212,0.2515,0.2265,0.2085,0.194,0.1286,0.1178,0.112,0.051,0.028,0.0168,0.0168,0.0112,0.0,0.0,0.0,0.0,0.0,0.0,0.0,0.0,0.0,0.0,0.0,0.0,0.0,0.0,0.0,0.0,0.0,0.0,0.0,0.0,0.0,0.0,0.0,0.0,-0.0335,-0.1076,0.0269,0.074,0.0,0.1414,0.2222,0.2222,0.2222,0.2222,0.2222,0.2222,0.2222,0.2222,0.2222,0.2155,0.1953,0.1346,0.1077,0.1077,0.0471,0.0199,0.0194,0.0065,0.0,0.0,0.0,0.0,0.0,0.8932,0.8932,0.8929,0.8908,0.8908,0.8902,0.8885,0.8885,0.8984,0.9169,0.9262,0.9408,0.9544,0.9686,0.9819,1.0002,0.9822,0.9686,0.9544,0.9405,0.9327,0.9439,0.8673,0.7977,0.733,0.6512,0.5639,0.4582,0.4582,0.4526,0.4526,0.4634,0.4754,0.4946,0.5194,0.5352,0.5456,0.5545,0.5576,0.5657,0.5515,0.4065,0.1913,0.1974,0.2029,0.2146,0.2202,0.2424,0.2684,0.2551,0.2709,0.2922,0.2239,0.2274,0.2384,0.1504,0.1586,0.1878,0.1654,0.1177,0.0785,0.0785,0.0393,0.0,0.0,0.0,0.0,0.0,0.0,0.0,0.0,0.0,0.0,0.0,0.0,0.0,0.0,0.0,0.0,0.0,0.0,0.0,0.0,0.0,0.0,0.0,0.0,-0.0328,-0.1075,0.0269,0.074,0.0,0.1414,0.2222,0.2222,0.2222,0.2222,0.2222,0.2222,0.2222,0.2222,0.2222,0.1818,0.1212,0.1144,0.1077,0.1077,0.101,0.1,0.0919,0.0259,0.0,0.0,0.0,0.0,0.0,0.8885,0.8885,0.8885,0.8885,0.8885,0.8885,0.8885,0.9011,0.9086,0.9204,0.9364,0.9596,0.9839,0.9854,0.9907,1.0217,0.9981,0.9724,0.9493,0.9415,0.9361,0.9299,0.8946,0.8709,0.8655,0.8261,0.7922,0.7584,0.7421,0.7365,0.731,0.6533,0.6656,0.747,0.6297,0.6589,0.7917,0.7308,0.703,0.6889,0.7072,0.5912,0.4204,0.4427,0.4568,0.4622,0.4612,0.4231,0.3758,0.4835,0.4045,0.28,0.3674,0.342,0.2591,0.1965,0.185,0.1904,0.1591,0.1366,0.1264,0.1409,0.1024,0.0632,0.0563,0.0224,0.0,0.0,0.0,0.0,0.0,0.0,0.0,0.0,0.0,0.0,0.0,0.0,0.0,0.0,0.0,0.0,0.0,0.0,0.0,0.0,0.0,-0.0332,-0.1076,0.0269,0.074,0.0,0.1414,0.2222,0.2222,0.2222,0.2222,0.2222,0.2222,0.2222,0.2222,0.2222,0.202,0.1683,0.1279,0.1346,0.1683,0.1279,0.1068,0.1054,0.0786,0.0385,0.0,0.0,0.0,0.0,0.8885,0.8885,0.8885,0.8885,0.8885,0.8895,0.8991,0.9086,0.9224,0.9268,0.9597,0.9905,1.0144,1.0114,1.0249,1.05,1.0229,0.9944,0.9649,0.9547,0.9445,0.9313,0.9016,0.9071,0.9514,0.9356,0.9379,0.9541,0.9379,0.9268,0.9213,0.81,0.8205,0.9205,0.7536,0.7839,0.9643,0.8809,0.8406,0.8381,0.8567,0.8019,0.7116,0.6554,0.639,0.6433,0.6433,0.5767,0.5096,0.6382,0.5317,0.0,0.5175,0.4826,0.3873,0.3484,0.3112,0.2814,0.2412,0.0,0.1637,0.1754,0.0,0.0,0.0,0.0,0.0,0.028,0.0224,0.0,0.0,0.0,0.0,0.0,0.0,0.0,0.0,0.0,0.0,0.0,0.0,0.0,0.0,0.0,0.0,0.0,0.0,0.0,-0.1076,0.0269,0.074,0.0,0.1414,0.2222,0.2222,0.2222,0.2222,0.2222,0.2222,0.2222,0.2222,0.2222,0.2222,0.2155,0.1616,0.1818,0.2423,0.1817,0.1605,0.1657,0.1326,0.0849,0.0255,0.0064,0.0,0.0,0.8885,0.8885,0.8885,0.8885,0.8885,0.8984,0.918,0.9207,0.9262,0.9354,0.9926,1.0297,1.0297,1.071,1.0987,1.0987,1.0802,1.0568,1.0273,0.9971,0.9937,1.0226,0.9401,0.9151,0.9781,0.9232,0.894,0.8937,0.894,0.894,0.894,0.8881,0.8888,0.8908,0.9195,0.9326,0.9415,0.964,0.9926,1.0189,1.0196,1.0368,1.0251,0.7406,0.6349,0.6433,0.6433,0.0,0.0,0.6302,0.6234,0.0,0.0,0.0,0.0,0.0,0.0,0.0,0.0,0.0,0.0,0.181,0.0,0.0,0.0,0.0,0.157,0.0,0.0897,0.0673,0.0112,0.0,0.0,0.0,0.0,0.0,0.0,0.0,0.0,0.0,0.0,0.0,0.0,0.0,0.0,0.0,0.0,0.0,-0.1075,0.0269,0.074,0.0,0.1414,0.2222,0.2222,0.2222,0.2222,0.2222,0.2222,0.2222,0.2222,0.2222,0.2222,0.2222,0.2155,0.2558,0.3161,0.2824,0.2824,0.3025,0.2017,0.14,0.0986,0.0259,0.0,0.0,0.8885,0.8885,0.8885,0.8885,0.8885,0.8898,0.9001,0.9093,0.9303,0.95,0.976,1.0141,1.06,1.0577,1.0645,1.1002,1.0733,1.0487,1.0293,1.0177,1.0049,0.9971,0.9483,0.9349,0.9523,0.914,0.8885,0.8885,0.8885,0.8885,0.8885,0.8885,0.8885,0.8895,0.9249,0.949,0.9693,0.9995,1.0185,1.028,1.028,1.0341,1.0375,0.0,0.9234,0.9244,0.9244,0.864,0.0,0.8878,0.7896,0.6503,0.7532,0.7216,0.65,0.6441,0.6164,0.0,0.0,0.0,0.3769,0.3811,0.0,0.0,0.0,0.0,0.0,0.0,0.0,0.0,0.0617,0.028,0.0,0.0,0.0,0.0,0.0,0.0,0.0,0.0,0.0,0.0,0.0,0.0,0.0,0.0,0.0,0.0,0.0,0.0269,0.074,0.0,0.1414,0.2222,0.2222,0.2222,0.2222,0.2222,0.2222,0.2222,0.2222,0.2222,0.2222,0.2155,0.1953,0.2222,0.2828,0.249,0.2423,0.2558,0.2354,0.1677,0.0667,0.0197,0.0,0.0,0.8823,0.8826,0.8885,0.8885,0.8885,0.8902,0.9008,0.9093,0.932,0.9568,0.9794,1.0162,1.0611,1.0608,1.0649,1.1002,1.0737,1.0555,1.0421,1.0343,1.0232,1.0105,0.9866,0.9798,0.9873,0.9476,0.9265,0.9265,0.8991,0.8885,0.8885,0.8885,0.8885,0.8892,0.914,0.9445,0.9832,1.0032,1.0243,1.0436,1.0565,1.0629,1.065,0.0,1.0854,1.0578,0.0,1.0117,0.9513,1.0386,0.9467,0.8047,0.9059,0.8691,0.7891,0.785,0.753,0.7149,0.7329,0.6339,0.0,0.5382,0.4547,0.0,0.2885,0.0,0.2395,0.0,0.0,0.0,0.0,0.0684,0.0338,0.0399,0.017,0.0,0.0,0.0,0.0,0.0,0.0,0.0,0.0,0.0,0.0,0.0,0.0,0.0,0.0,0.0,0.074,0.0,0.1414,0.2222,0.2222,0.2222,0.2222,0.2222,0.2222,0.2222,0.2222,0.2222,0.2222,0.2222,0.202,0.2289,0.2694,0.2492,0.2424,0.2558,0.2557,0.2018,0.121,0.0599,0.0198,0.0,0.8706,0.8768,0.8937,0.8885,0.8885,0.8984,0.9176,0.921,0.933,0.9581,0.9988,1.0332,1.0498,1.0778,1.102,1.102,1.0833,1.0733,1.07,1.0477,1.0414,1.0679,1.0486,1.0519,1.0781,1.0229,0.9903,0.9903,0.9251,0.8937,0.8937,0.8937,0.8937,0.8937,0.8937,0.9266,0.9819,0.9822,1.0231,1.0787,1.1115,1.124,1.1226,1.1641,1.1189,1.0384,1.0681,1.0721,1.0721,1.0721,1.0721,1.0721,1.0721,1.0721,1.0721,1.0721,0.9779,0.8726,0.8626,0.7535,0.6396,0.6392,0.0,0.0,0.0,0.0,0.4359,0.0,0.0,0.0,0.0,0.1231,0.0965,0.1111,0.0515,0.0056,0.0,0.0,0.0,0.0,0.0,0.0,0.0,0.0,0.0,0.0,0.0,0.0,0.0,0.0,0.074,0.0,0.1414,0.2222,0.2222,0.2222,0.2222,0.2222,0.2222,0.2222,0.2222,0.2222,0.2222,0.2222,0.2559,0.2694,0.2694,0.2694,0.2894,0.3094,0.2491,0.2422,0.2555,0.1481,0.0606,0.0,0.9254,0.9368,0.943,0.8992,0.8885,0.8895,0.8988,0.9181,0.9429,0.9727,1.0057,1.0386,1.0651,1.0747,1.0792,1.0792,1.0697,1.0687,1.0678,1.0659,1.0631,1.0726,1.0475,1.0457,1.0781,1.0165,0.9957,1.0189,0.9752,0.9596,0.9596,0.9596,0.9596,0.9596,0.9596,0.9778,1.0183,1.0425,1.0922,1.1516,1.1582,1.1504,1.1316,0.0,1.1514,1.1082,1.1399,1.1516,1.1516,1.1516,1.1516,1.1516,1.1516,1.1516,1.1516,1.1516,1.1045,1.0561,1.0488,0.9276,0.8031,0.7928,0.7175,0.6307,0.0,0.0,0.0,0.0,0.0,0.0,0.0,0.0,0.1331,0.1595,0.1071,0.0505,0.0056,0.0,0.0,0.0,0.0,0.0,0.0,0.0,0.0,0.0,0.0,0.0,0.0,0.0,0.0,0.0,0.1414,0.2222,0.2222,0.2222,0.2222,0.2222,0.2222,0.2222,0.2222,0.2222,0.2222,0.2222,0.2289,0.2357,0.2357,0.2357,0.2357,0.2491,0.2558,0.2625,0.2555,0.1481,0.0606,0.0,0.9482,0.9592,0.9706,0.9379,0.9545,0.9638,0.919,0.9164,0.9364,0.9795,1.0012,1.0219,1.0582,1.0812,1.092,1.092,1.1052,1.1194,1.1185,1.1203,1.12,1.1174,1.1153,1.1247,1.1436,1.1001,1.0722,1.0749,1.0246,0.9954,0.9816,0.9816,0.9816,0.9816,0.9816,0.9986,1.0357,1.0764,1.1162,1.1579,1.1918,1.193,0.0,1.2103,1.2126,1.1983,1.2173,1.2045,1.178,1.178,1.178,1.178,1.178,1.178,1.178,1.178,1.1648,1.1446,1.1247,1.0512,0.9672,0.9521,0.883,0.8054,0.7378,0.6765,0.6141,0.0,0.0,0.0,0.0,0.0,0.2562,0.1917,0.1514,0.1065,0.0505,0.0395,0.0285,0.0058,0.0,0.0,0.0,0.0,0.0,0.0,0.0,0.0,0.0,0.0,0.0,0.0467,0.161,0.2222,0.2222,0.2222,0.2222,0.2222,0.2222,0.2222,0.2222,0.2222,0.2222,0.2222,0.2222,0.2222,0.2222,0.2222,0.2222,0.2222,0.2559,0.2626,0.2422,0.1818,0.1346,0.0942,0.9655,0.9706,0.9871,0.9816,1.0428,1.0609,0.9782,0.9481,0.9582,1.0266,1.0211,1.0249,1.0664,1.1028,1.1175,1.1175,1.1511,1.1713,1.1731,1.1784,1.1741,1.1817,1.2088,1.2243,1.2309,1.2042,1.1693,1.1398,1.0754,1.025,0.9923,0.9923,0.9923,0.9923,0.9923,1.0134,1.0526,1.1089,1.1314,1.1442,1.2123,1.2375,1.2375,1.2704,1.277,1.277,1.277,1.2441,1.1912,1.1912,1.1912,1.1912,1.1912,1.1912,1.1912,1.1912,1.1912,1.178,1.1449,1.1247,1.1115,1.0853,1.0721,1.0383,0.9086,0.8645,0.8132,0.685,0.665,0.6755,0.0,0.0,0.4213,0.2156,0.204,0.1875,0.108,0.1035,0.0875,0.0355,0.0,0.0,0.0,0.0,0.0,0.0,0.0,0.0,0.0,0.0,0.0,0.0991,0.1806,0.0,0.2222,0.0,0.2222,0.2222,0.2222,0.2222,0.2222,0.2222,0.2222,0.2222,0.2222,0.2222,0.2222,0.2222,0.2289,0.249,0.2827,0.2894,0.2826,0.2893,0.2893,0.2759,1.0202,1.0363,1.0363,0.9871,1.0428,1.0922,1.0961,1.1435,1.1872,1.2179,1.185,1.1684,1.1976,1.1546,1.1221,1.1221,1.1289,1.1353,1.1513,1.1553,1.1632,1.1768,1.1882,1.2045,1.2309,1.1974,1.176,1.1712,1.1286,1.0871,1.0527,1.0527,1.0527,1.0527,1.0527,1.0887,1.1527,1.1627,1.2026,1.255,1.268,1.2704,1.2704,1.277,1.277,1.277,1.277,1.2704,1.2638,1.2638,1.2638,1.2638,1.2638,1.2638,1.2638,1.2638,1.2441,1.2177,1.2111,1.1648,1.1181,1.1115,1.092,1.0641,1.0386,0.9441,0.8511,0.8246,0.7287,0.6513,0.6819,0.0,0.0,0.0,0.0,0.0,0.0,0.1764,0.1891,0.1774,0.1736,0.1683,0.0,0.0,0.0,0.0,0.0,0.0,0.0,0.0,0.0,0.0,0.0,0.0,0.0,0.0,0.0,0.2222,0.2222,0.2222,0.2222,0.2222,0.2222,0.2222,0.2222,0.2222,0.2222,0.2222,0.2893,0.3966,0.4298,0.5168,0.6172,0.6441,0.6577,0.6109,1.0527,1.0637,1.0749,1.0823,1.152,1.2191,1.2747,1.3525,1.3731,1.2906,1.232,1.2022,1.2187,1.1732,1.1438,1.1438,1.1645,1.175,1.1884,1.188,1.1943,1.2119,1.2178,1.2269,1.2576,1.2409,1.2127,1.1776,1.1598,1.1228,1.0692,1.0692,1.0692,1.07,1.0883,1.1163,1.1524,1.1887,1.2278,1.258,1.2763,1.277,1.277,1.277,1.277,1.277,1.277,1.277,1.277,1.277,1.277,1.277,1.277,1.277,1.277,1.277,1.2704,1.2507,1.2375,1.2045,1.171,1.1314,1.1049,1.092,1.0721,1.0183,0.9712,0.9712,0.9108,0.85,0.8009,0.7341,0.0,0.0,0.0,0.0,0.0,0.0,0.3923,0.2803,0.2696,0.2388,0.0,0.0,0.0,0.0,0.0,0.0,0.0,0.0,0.0,0.0,0.0,0.0,0.0,0.0,0.0,0.2222,0.2222,0.2222,0.2222,0.2222,0.2222,0.2222,0.2222,0.2222,0.2222,0.2222,0.3027,0.4301,0.45,0.5434,0.6702,0.6838,0.704,0.6909,1.0962,1.1003,1.1259,1.2033,1.2847,1.3564,1.4199,1.5091,1.5163,1.3699,1.2936,1.2534,1.2698,1.2218,1.1952,1.1952,1.2022,1.2077,1.2109,1.2109,1.2246,1.2425,1.2454,1.257,1.2698,1.279,1.2523,1.189,1.1813,1.1464,1.0863,1.0745,1.0733,1.0818,0.0,0.0,0.0,0.0,1.2353,1.2446,1.2657,1.277,1.277,1.277,1.277,1.277,1.277,1.277,1.277,1.277,1.277,1.277,1.277,1.277,1.277,1.277,1.277,1.277,1.2507,1.2375,1.2177,1.1578,1.1314,1.1115,1.0853,1.0721,1.0721,1.0721,1.0721,1.0297,0.9038,0.8108,0.0,0.0,0.0,0.0,0.0,0.0,0.5922,0.4318,0.4063,0.3617,0.2471,0.0,0.0,0.0,0.0,0.1333,0.1804,0.1479,0.0,0.0,0.0,0.2202,0.2202,0.0,0.2222,0.0,0.2222,0.2222,0.2222,0.2222,0.2222,0.2222,0.2222,0.2222,0.2222,0.2222,0.3027,0.43,0.43,0.5369,0.69,0.69,0.7236,0.7774,1.1832,1.2086,1.2376,1.3128,1.3852,1.4405,1.4441,1.5297,1.5815,1.5639,1.4943,1.4531,1.4713,1.3476,1.2708,1.2708,1.2073,1.1731,1.1938,1.1931,1.1999,1.225,1.2376,1.2494,1.2546,1.2722,1.2645,1.2259,1.1935,1.1654,1.1411,1.0923,1.0863,0.0,0.0,0.0,0.0,1.2276,1.2495,1.2791,1.2758,1.277,1.277,1.277,1.277,1.277,1.277,1.277,1.277,1.277,1.277,1.277,1.277,1.277,1.277,1.277,1.277,1.277,1.277,1.2507,1.2309,1.2243,1.171,1.1181,1.1181,1.092,1.0721,1.0721,1.0721,1.0231,0.8785,0.9494,0.9428,0.0,0.0,0.0,0.0,0.0,0.7301,0.701,0.6999,0.6897,0.0,0.0,0.0,0.0,0.2584,0.1777,0.2449,0.2102,0.1973,0.2067,0.0,0.2137,0.2137,0.2194,0.0,0.2222,0.2222,0.2222,0.2222,0.2222,0.2222,0.2222,0.2222,0.2222,0.2222,0.2222,0.3027,0.43,0.43,0.5969,0.8374,0.8374,0.9244,1.0319,1.2441,1.2649,0.0,0.0,0.0,0.0,0.0,1.5741,1.6056,1.6056,1.5414,1.4943,1.5017,1.3678,1.2824,1.2824,1.2043,1.1664,1.1745,1.1742,1.1811,1.2003,1.2077,1.2162,1.2169,1.2298,1.2181,0.0,0.0,0.0,1.133,1.111,0.0,0.0,0.0,1.2036,1.232,1.2532,1.2706,1.277,1.277,1.277,1.277,1.277,1.277,1.277,1.277,1.277,1.277,1.277,1.277,1.277,1.277,1.277,1.277,1.277,1.277,1.277,1.277,1.2704,1.2572,1.2375,1.2111,1.171,1.1314,1.1115,1.0916,1.0721,1.0721,1.0551,0.9904,0.9574,0.929,0.0,0.0,0.0,0.0,0.0,0.0,0.8246,0.8112,0.7727,0.0,0.0,0.0,0.0,0.0,0.2163,0.2264,0.2114,0.0,0.2128,0.0,0.2581,0.3438,0.261,0.2625,0.343,0.2625,0.2222,0.2222,0.2222,0.2222,0.2222,0.2222,0.2222,0.2222,0.2222,0.3496,0.5566,0.5566,0.7305,0.9779,0.8909,0.8975,0.9443,1.3024,0.0,1.3505,0.0,1.4742,1.5064,1.5696,1.5939,1.6037,1.6183,1.5678,1.5319,1.5319,1.4177,1.3464,1.3464,1.2757,1.2191,1.1975,1.1975,1.1926,1.1818,1.1836,0.0,1.1974,1.2011,1.1929,1.1835,1.1444,0.0,0.0,0.0,0.0,0.0,1.2194,1.2365,1.2479,1.2731,1.277,1.277,1.277,1.277,1.277,1.277,1.277,1.277,1.277,1.277,1.277,1.277,1.277,1.277,1.277,1.277,1.277,1.277,1.277,1.277,1.277,1.277,1.277,1.2507,1.2375,1.2111,1.1512,1.1251,1.1115,1.0787,1.0721,1.0721,1.0721,0.982,0.9488,1.0551,0.0,0.0,0.0,1.0721,0.0,0.9207,0.9051,0.8669,0.7634,0.6208,0.0,0.0,0.0,0.0,0.0,0.0,0.0,0.0,0.0,0.0,0.0,0.3948,0.3964,0.49,0.3897,0.3427,0.3427,0.3427,0.3228,0.2826,0.3227,0.3427,0.3429,0.296,0.4231,0.6366,0.5967,0.7572,0.9981,0.8975,0.8842,0.9244,1.3553,1.3781,1.4095,1.4827,1.4968,1.5106,1.5532,1.5603,1.5749,1.6183,1.6183,1.6183,1.6183,1.5461,1.4959,1.4959,1.4324,1.3543,1.2824,1.2824,1.2398,0.0,0.0,1.1882,1.1878,1.1989,1.2026,1.2022,0.0,0.0,1.1504,0.0,1.181,1.23,1.2304,1.2503,1.2766,1.277,1.277,1.277,1.277,1.277,1.277,1.277,1.277,1.277,1.277,1.277,1.277,1.277,1.277,1.277,1.277,1.277,1.277,1.277,1.277,1.277,1.277,1.277,1.277,1.277,1.2572,1.2243,1.1846,1.1516,1.1115,1.0787,1.0721,1.0721,1.0721,1.0717,1.0651,1.0721,0.0,0.0,0.0,0.0,0.0,1.0321,1.0283,0.0,1.022,0.8927,0.0,0.0,0.0,0.0,0.0,0.0,0.0,0.6236,0.6238,0.0,0.6302,0.6345,0.6366,0.6364,0.6366,0.6366,0.6366,0.6366,0.5566,0.4367,0.5767,0.6366,0.6233,0.4833,0.5101,0.6233,0.4902,0.6103,0.864,0.8573,0.9513,1.0654,1.4117,1.4259,1.448,1.4888,1.4977,1.5048,1.5186,1.519,1.5328,1.5749,1.582,1.5895,1.6178,1.5461,1.5026,0.0,1.4324,1.3829,0.0,1.3111,1.2681,1.2398,1.1926,1.164,1.1533,1.1577,1.1634,1.1628,0.0,0.0,0.0,1.1322,1.155,1.195,1.195,1.2011,1.2111,1.2375,1.2309,1.2177,1.2638,1.2507,1.2111,1.2375,1.2309,1.2111,1.2111,1.2111,1.2111,1.2111,1.2111,1.2111,1.2111,1.2309,1.2441,1.2177,1.2111,1.2111,1.2111,1.2111,1.2177,1.2375,1.2243,1.1912,1.1846,1.1317,1.085,1.0721,1.0721,1.0721,1.0721,1.0721,1.0721,1.0721,1.0721,0.0,0.0,0.0,1.0683,1.0592,1.0578,0.0,0.0,0.9255,0.0,0.0,0.0,0.0,0.0,0.0,0.0,0.0,0.6351,0.0,0.7868,0.6869,0.69,0.7902,0.69,0.6433,0.6433,0.6433,0.6166,0.5767,0.6233,0.6433,0.6364,0.59,0.6569,0.7838,0.7438,0.8376,0.9915,0.8975,0.8909,0.9244,1.4261,1.4261,1.4332,1.4546,1.4621,1.4692,1.4977,1.4977,1.519,1.5749,1.582,1.5895,1.6178,1.5749,0.0,1.5461,1.5039,1.4613,1.4324,1.3896,1.3468,1.3253,1.247,1.1998,1.1899,0.0,0.0,1.1461,1.1076,1.0978,1.1217,1.1217,1.1388,1.178,1.178,1.178,1.178,1.2045,1.1978,1.1846,1.2243,1.2177,1.1846,1.2045,1.1978,1.178,1.178,1.178,1.178,1.178,1.178,1.178,1.1648,1.1714,1.1912,1.1846,1.178,1.178,1.178,1.178,1.1846,1.2045,1.1978,1.178,1.1582,1.1118,1.0721,1.0721,1.0721,1.0721,1.0721,1.0721,1.0721,1.0721,1.0721,1.0721,1.0721,0.0,0.0,0.0,0.0,0.0,0.0,0.9761,0.0,0.0,0.0,0.0,0.0,0.0,0.0,0.7964,0.7967,0.0,0.9377,0.8507,0.8507,0.9377,0.844,0.7769,0.7234,0.7769,0.7702,0.7234,0.7769,0.8038,0.7969,0.7434,0.8105,0.931,0.8776,0.9443,1.0585,0.9712,0.9377,0.9377,1.39,1.39,0.0,0.0,1.39,0.0,1.4835,1.4977,1.5261,1.6042,1.6112,1.6183,1.6183,1.6183,1.6183,1.6183,0.0,0.0,0.0,1.5026,1.4675,1.4043,1.3253,1.2824,1.2824,1.197,1.1473,1.1392,1.1094,1.1008,1.1199,1.1188,1.138,1.1714,1.1714,1.1714,1.1714,1.178,1.1714,1.1714,1.178,1.178,1.1714,1.178,1.1714,1.1714,1.1714,1.1714,1.1714,1.1714,1.1714,1.1648,1.1251,1.1185,1.1247,1.1582,1.1714,1.1714,1.1714,1.1714,1.1714,1.178,1.178,1.1648,1.1247,1.092,1.0721,1.0721,1.0721,1.0721,1.0721,1.0721,1.0721,1.0721,1.0721,1.0721,1.0721,0.0,0.0,0.0,0.0,0.0,0.0,1.031,1.0415,0.0,0.0,0.0,0.0,0.0,0.898,1.0644,1.0721,1.0721,1.0721,1.0721,1.0721,1.0721,1.0721,0.9981,0.8773,1.0117,0.9981,0.8842,1.0114,1.0721,1.0585,0.931,0.951,1.0585,0.9244,0.9579,1.0721,1.0721,1.0721,1.0721,0.0,0.0,1.39,1.39,1.39,1.3971,1.4118,1.4403,1.4763,1.5261,1.5541,1.5895,1.6183,1.6183,1.6183,1.6183,1.6183,1.6108,1.5895,1.5314,1.4888,1.4746,1.4039,1.34,1.2824,1.2573,1.2141,1.1392,1.1094,1.0931,1.0958,1.0842,1.0853,1.0986,1.0986,1.0986,1.0986,1.1251,1.1185,1.0986,1.1582,1.1449,1.0986,1.1251,1.1185,1.0986,1.0986,1.0986,1.0986,1.0986,1.0986,1.092,1.0853,1.0853,1.0853,1.092,1.0986,1.0986,1.0986,1.0986,1.1052,1.1251,1.1317,1.1247,1.092,1.0787,1.0721,1.0721,1.0721,1.0721,1.0721,1.0721,1.0721,1.0721,1.0721,1.0721,1.0721,1.0721,0.0,0.0,1.0616,1.0616,1.0616,1.0616,1.0551,0.0,0.0,0.0,0.0,0.0,1.0087,1.0711,1.0721,1.0721,1.0721,1.0721,1.0721,1.0721,1.0721,1.0518,1.0183,1.0518,1.0518,1.025,1.0585,1.0721,1.0654,1.0316,1.0386,1.0654,1.0316,1.0386,1.0721,1.0721,1.0721,1.0721,1.39,1.39,1.39,1.39,1.39,1.3971,1.4118,1.4479,1.4835,1.5257,1.5612,1.5966,1.6183,1.6183,1.6183,1.6183,1.6183,1.6183,1.6183,1.582,1.5532,1.5532,1.4822,1.4252,1.3821,1.3468,1.2817,1.1885,1.1715,1.1458,1.1043,1.0894,1.0756,1.0822,1.0751,1.0721,1.0721,1.0916,1.0853,1.0721,1.1118,1.1052,1.0721,1.092,1.0853,1.0721,1.0721,1.0721,1.0721,1.1118,1.0986,1.0787,1.1118,1.0986,1.0721,1.0721,1.0721,1.0721,1.0721,1.0721,1.0721,1.0916,1.0986,1.092,1.0721,1.0721,1.0721,1.0721,1.0721,1.0721,1.0721,1.0721,1.0721,1.0721,1.0609,1.0565,1.07,1.0605,0.0,1.0704,1.0721,1.0721,1.0721,1.0721,1.0653,1.0493,0.0,0.0,1.048,1.048,1.0555,1.0714,1.0721,1.0721,1.0721,1.0721,1.0721,1.0721,1.0721,1.0721,1.0721,1.0721,1.0721,1.0721,1.0721,1.0721,1.0721,1.0721,1.0721,1.0721,1.0721,1.0721,1.0721,1.0721,1.0721,1.0721,1.3908,1.39,1.39,1.39,1.39,1.4047,1.4332,1.4692,1.5048,1.5394,1.5824,1.6112,1.6112,1.6183,1.6183,1.6183,1.6183,1.6183,1.6183,1.6183,1.6183,1.6183,1.5532,1.5101,1.5026,1.4252,1.3543,1.2692,1.26,1.2094,1.1403,1.1118,1.09,1.0877,1.0812,1.0741,1.0721,1.0721,1.0721,1.0721,1.0721,1.0721,1.0721,1.0721,1.0721,1.0721,1.0721,1.0721,1.0787,1.1449,1.1317,1.0986,1.1582,1.1383,1.0853,1.0853,1.0787,1.0721,1.0721,1.0721,1.0721,1.0721,1.0721,1.0721,1.0721,1.0721,1.0721,1.0721,1.0721,1.0721,1.0721,1.0721,1.0714,1.069,1.0493,1.0426,1.0653,0.0,1.0439,1.069,1.0721,1.0721,1.0721,1.0721,1.0721,1.0721,1.0721,1.0721,0.0,1.0721,1.0721,1.0721,1.0721,1.0721,1.0721,1.0721,1.0721,1.0721,1.0721,1.0721,1.0721,1.0721,1.0721,1.0721,1.0721,1.0721,1.0721,1.0721,1.0721,1.0721,1.0721,1.0721,1.0721,1.0721,1.0721,1.0721,1.3932,1.39,1.39,1.39,1.39,1.39,1.3975,1.4332,1.4621,1.4692,1.5257,1.5678,1.5678,1.5966,1.6183,1.6183,1.6183,1.6183,1.6183,1.6183,1.6183,1.6183,1.6108,1.5678,1.503,1.4252,1.3817,1.3646,1.2868,1.2433,1.2263,1.1476,1.1063,1.088,1.0857,1.0843,1.0721,1.0721,1.0721,1.0721,1.0721,1.0721,1.0721,1.0721,1.0721,1.0721,1.0721,1.0721,1.0721,1.0853,1.1185,1.1648,1.178,1.1714,1.1648,1.1648,1.1185,1.0721,1.0721,1.0721,1.0721,1.0721,1.0721,1.0721,1.0721,1.0721,1.0721,1.0721,1.0721,1.0721,1.0721,1.0721,1.0677,1.0548,1.0599,1.0622,1.0538,0.0,1.067,1.0714,1.0721,1.0721,1.0721,1.0721,1.0721,1.0721,1.0721,1.0721,1.0721,1.0721,1.0721,1.0721,1.0721,1.0721,1.0721,1.0721,1.0721,1.0721,1.0721,1.0721,1.0721,1.0721,1.0721,1.0721,1.0721,1.0721,1.0721,1.0721,1.0721,1.0721,1.0721,1.0721,1.0721,1.0721,1.0721,1.0721,1.4205,1.4188,1.4188,1.4188,1.4111,1.405,1.405,1.4327,1.4479,1.4479,1.4972,1.5328,1.5607,1.5749,1.5966,1.6183,1.6183,1.6183,1.6183,1.6183,1.6183,1.6183,1.6183,1.6037,1.5678,1.5323,1.4897,1.4466,1.4023,1.3633,1.3208,1.2753,1.2493,1.2417,1.1852,1.1589,1.1439,1.1439,1.1122,1.0721,1.1118,1.1052,1.0721,1.0721,1.0721,1.0721,1.0721,1.0721,1.0787,1.1185,1.1251,1.1251,1.1648,1.1516,1.1185,1.1185,1.0986,1.0721,1.0721,1.0721,1.0721,1.0721,1.0721,1.0721,1.0721,1.0721,1.0721,1.0721,1.0721,1.0721,1.0721,1.0721,1.0697,1.0626,1.0541,0.0,0.0,1.0538,1.0541,1.07,1.0721,1.0721,1.0721,1.0721,1.0721,1.0721,1.0721,1.0721,1.0721,1.0721,1.0721,1.0721,1.0721,1.0721,1.0721,1.0721,1.0721,1.0721,1.0721,1.0721,1.0721,1.0721,1.0721,1.0721,1.0721,1.0721,1.0721,1.0721,1.0721,1.0721,1.0721,1.0721,1.0721,1.0721,1.0721,1.0721,1.444,1.4432,1.4432,1.4432,1.4322,1.4237,1.4237,1.4409,1.4462,1.4462,1.4749,1.5108,1.5458,1.5601,1.5887,1.6182,1.6254,1.6306,1.6254,1.6254,1.623,1.6183,1.6183,1.6183,1.6183,1.6183,1.5895,1.5314,1.5097,1.4675,1.4181,1.3895,1.3739,1.3694,1.2932,1.257,1.2409,1.2338,1.191,1.1301,1.1703,1.1482,1.092,1.0787,1.0721,1.0721,1.0721,1.0721,1.0787,1.1383,1.1251,1.1052,1.1648,1.1383,1.0986,1.0986,1.0853,1.0721,1.0721,1.0721,1.0721,1.0721,1.0721,1.0721,1.0721,1.0721,1.0721,1.0721,1.0721,1.0721,1.0721,1.0721,1.0707,1.0673,0.0,0.0,0.0,1.05,1.0466,1.0694,1.0721,1.0721,1.0721,1.0721,1.0721,1.0721,1.0721,1.0721,1.0721,1.0721,1.0721,1.0721,1.0721,1.0721,1.0721,1.0721,1.0721,1.0721,1.0721,1.0721,1.0721,1.0721,1.0721,1.0721,1.0721,1.0721,1.0721,1.0721,1.0721,1.0721,1.0721,1.0721,1.0721,1.0721,1.0721,1.0721,1.4464,1.4432,1.4432,1.4432,1.442,1.4412,1.4412,1.4399,1.4391,1.4391,1.4765,1.4986,1.506,1.5722,1.6159,1.6237,1.6535,1.6675,1.6471,1.6457,1.6377,1.6188,1.6183,1.6183,1.6183,1.6183,1.6178,1.6108,1.539,1.4959,1.4884,1.424,1.379,1.3698,1.3616,1.3506,1.3331,1.3331,1.3166,1.2874,1.2337,1.1911,1.1648,1.0986,1.0721,1.0721,1.0721,1.0721,1.0721,1.0787,1.1185,1.1714,1.178,1.178,1.1714,1.1714,1.1251,1.0721,1.0721,1.0721,1.0721,1.0721,1.0721,1.0721,1.0721,1.0721,1.0721,1.0721,1.0721,1.0721,1.0721,1.0721,1.0673,1.0531,0.0,0.0,1.0524,1.0612,1.0697,1.0717,1.0721,1.0721,1.0721,1.0721,1.0721,1.0721,1.0721,1.0721,1.0721,1.0721,1.0721,1.0721,1.0721,1.0721,1.0721,1.0721,1.0721,1.0721,1.0721,1.0721,1.0721,1.0721,1.0721,1.0721,1.0721,1.0721,1.0721,1.0721,1.0721,1.0721,1.0721,1.0721,1.0721,1.0721,1.0721,1.0721,1.4777,1.4761,1.4761,1.4761,1.4676,1.4603,1.4603,1.4505,1.4432,1.4432,1.4506,1.4732,1.4954,1.5471,1.5914,1.6204,1.6582,1.6769,1.6689,1.6684,1.6533,1.6197,1.6183,1.6183,1.6183,1.6183,1.6183,1.6183,1.5895,1.5749,1.5749,1.5465,1.5283,1.5211,1.4709,1.4395,1.4289,1.422,1.3834,1.3322,1.3526,1.3282,1.2668,1.1896,1.1591,1.1513,1.0884,1.0721,1.0721,1.0721,1.092,1.1118,1.1118,1.1118,1.1118,1.1118,1.092,1.0721,1.0721,1.0721,1.0721,1.0721,1.0721,1.0721,1.0721,1.0721,1.0721,1.0721,1.0721,1.0721,1.0721,1.0721,1.07,1.0643,0.0,1.07,1.0639,1.0683,1.0721,1.0721,1.0721,1.0721,1.0721,1.0721,1.0721,1.0721,1.0721,1.0721,1.0721,1.0721,1.0721,1.0721,1.0721,1.0721,1.0721,1.0721,1.0721,1.0721,1.0721,1.0721,1.0721,1.0721,1.0721,1.0721,1.0721,1.0721,1.0721,1.0721,1.0721,1.0721,1.0721,1.0721,1.0721,1.0721,1.0721,1.0721,1.4956,1.4964,1.4964,1.4964,1.4866,1.4789,1.4789,1.468,1.4598,1.4598,1.4598,1.4673,1.4977,1.5355,1.5729,1.6172,1.6549,1.6819,1.6901,1.684,1.6646,1.6292,1.6216,1.6183,1.6183,1.6183,1.6183,1.6183,1.6183,1.6183,1.6183,1.6183,1.6183,1.6183,1.5607,1.5318,1.5266,1.5192,1.4792,1.4195,1.4478,1.4233,1.3682,1.2811,1.2361,1.2082,1.1432,1.103,1.0792,1.0792,1.0761,1.0721,1.0721,1.0721,1.0721,1.0721,1.0721,1.0721,1.0721,1.0721,1.0721,1.0721,1.0721,1.0721,1.0721,1.0721,1.0721,1.0721,1.0721,1.0721,1.0721,1.0721,1.0721,1.0721,1.0721,1.0721,1.0721,1.0721,1.0721,1.0721,1.0721,1.0721,1.0721,1.0721,1.0721,1.0721,1.0721,1.0721,1.0721,1.0721,1.0721,1.0721,1.0721,1.0721,1.0721,1.0721,1.0721,1.0721,1.0721,1.0721,1.0721,1.0721,1.0721,1.0721,1.0721,1.0721,1.0721,1.0721,1.0721,1.0721,1.0721,1.0721,1.0721,1.0721,1.0721,1.0721,1.4927,1.4964,1.4964,1.4964,1.4964,1.4964,1.4964,1.4964,1.4964,1.4964,1.4964,1.4964,1.4964,1.5352,1.5739,1.6131,1.6582,1.6871,1.7044,1.692,1.6708,1.6495,1.6292,1.6183,1.6183,1.6183,1.6183,1.6183,1.6183,1.6183,1.6183,1.6183,1.6183,1.6183,1.6183,1.6183,1.6183,1.6183,1.606,1.5862,1.5102,1.4709,1.4459,1.3698,1.2948,1.2337,1.2268,1.1686,1.0884,1.0884,1.0782,1.0724,1.0721,1.0721,1.0721,1.0721,1.0721,1.0721,1.0721,1.0721,1.0721,1.0721,1.0721,1.0721,1.0721,1.0721,1.0721,1.0721,1.0721,1.0721,1.0721,1.0721,1.0721,1.0721,1.0721,1.0721,1.0721,1.0721,1.0721,1.0721,1.0721,1.0721,1.0721,1.0721,1.0721,1.0721,1.0721,1.0721,1.0721,1.0721,1.0721,1.0721,1.0721,1.0721,1.0721,1.0721,1.0721,1.0721,1.0721,1.0721,1.0721,1.0721,1.0721,1.0721,1.0721,1.0721,1.0721,1.0721,1.0721,1.0721,1.0721,1.0721,1.0721,1.0721,1.0721,1.0721,1.4582,1.4696,1.4785,1.4785,1.4883,1.4964,1.4964,1.4964,1.4964,1.4964,1.4964,1.4964,1.4964,1.5352,1.5663,1.5739,1.6127,1.6555,1.6871,1.6978,1.6986,1.692,1.658,1.6325,1.6183,1.6183,1.6183,1.6183,1.6183,1.6183,1.6183,1.6183,1.6183,1.6183,1.6183,1.6183,1.6183,1.6183,1.6145,1.6089,1.5877,1.577,1.5626,1.4714,1.425,1.3886,1.2724,1.2098,1.1787,1.1303,1.107,1.1012,1.0911,1.0806,1.0721,1.0721,1.0721,1.0721,1.0721,1.0721,1.0721,1.0721,1.0721,1.0721,1.0721,1.0721,1.0721,1.0721,1.0721,1.0721,1.0721,1.0721,1.0721,1.0721,1.0721,1.0721,1.0721,1.0721,1.0721,1.0721,1.0721,1.0721,1.0721,1.0721,1.0721,1.0721,1.0721,1.0721,1.0721,1.0721,1.0721,1.0721,1.0721,1.0721,1.0721,1.0721,1.0721,1.0721,1.0721,1.0721,1.0721,1.0721,1.0721,1.0721,1.0721,1.0721,1.0721,1.0721,1.0721,1.0721,1.0721,1.0721,1.0721,1.0721,1.0721,1.0721,1.442,1.4521,1.4623,1.4696,1.4793,1.4887,1.4956,1.4964,1.4964,1.4964,1.4964,1.4964,1.4964,1.5198,1.5433,1.5586,1.5974,1.6357,1.6806,1.692,1.7039,1.7109,1.6864,1.6594,1.6306,1.6301,1.6264,1.6183,1.6183,1.6183,1.6183,1.6183,1.6183,1.6183,1.6183,1.6183,1.6183,1.6183,1.6183,1.6183,1.6183,1.6183,1.6169,1.555,1.5149,1.4776,1.3751,1.2974,1.2296,1.1879,1.149,1.1148,1.106,1.0931,1.0809,1.0809,1.0768,1.0721,1.0721,1.0721,1.0721,1.0721,1.0721,1.0721,1.0721,1.0721,1.0721,1.0721,1.0721,1.0721,1.0721,1.0721,1.0721,1.0721,1.0721,1.0721,1.0721,1.0721,1.0721,1.0721,1.0721,1.0721,1.0721,1.0721,1.0721,1.0721,1.0721,1.0721,1.0721,1.0721,1.0721,1.0721,1.0721,1.0721,1.0721,1.0721,1.0721,1.0721,1.0721,1.0721,1.0721,1.0721,1.0721,1.0721,1.0721,1.0721,1.0721,1.0721,1.0721,1.0721,1.0721,1.0721,1.0721,1.0721,1.0721,1.0721,1.4355,1.4395,1.446,1.4631,1.4688,1.4761,1.4919,1.4956,1.4964,1.4964,1.4964,1.4964,1.4964,1.4964,1.5122,1.5505,1.5897,1.6357,1.673,1.6806,1.6876,1.7138,1.7133,1.6949,1.6547,1.65,1.6391,1.6212,1.6193,1.6183,1.6183,1.6183,1.6183,1.6183,1.6183,1.6183,1.6183,1.6183,1.6183,1.6183,1.6183,1.6183,1.6183,1.6183,1.5749,1.5101,1.503,1.4003,1.2677,1.254,1.2006,1.132,1.1251,1.1084,1.09,1.09,1.086,1.0741,1.0741,1.0731,1.0721,1.0721,1.0721,1.0721,1.0721,1.0721,1.0721,1.0721,1.0721,1.0721,1.0721,1.0721,1.0721,1.0721,1.0721,1.0721,1.0721,1.0721,1.0721,1.0721,1.0721,1.0721,1.0721,1.0721,1.0721,1.0721,1.0721,1.0721,1.0721,1.0721,1.0721,1.0721,1.0721,1.0721,1.0721,1.0721,1.0721,1.0721,1.0721,1.0721,1.0721,1.0721,1.0721,1.0721,1.0721,1.0721,1.0721,1.0721,1.0721,1.0721,1.0721,1.0721,1.0721,1.0721,1.0721,1.0721,1.401,1.4131,1.4245,1.4286,1.4525,1.472,1.4757,1.4879,1.4964,1.4964,1.4964,1.4964,1.4964,1.4964,1.5041,1.5122,1.5509,1.5893,1.628,1.6658,1.694,1.7284,1.7355,1.7237,1.6972,1.6646,1.6457,1.6415,1.6259,1.6183,1.6183,1.6183,1.6183,1.6183,1.6183,1.6183,1.6183,1.6183,1.6183,1.6183,1.6183,1.6183,1.6183,1.6183,1.6108,1.5895,1.5243,1.4787,1.4261,1.3128,1.2522,1.2112,1.1552,1.1236,1.1118,1.1118,1.1012,1.0833,1.0833,1.0812,1.0721,1.0721,1.0721,1.0721,1.0721,1.0721,1.0721,1.0721,1.0721,1.0721,1.0721,1.0721,1.0721,1.0721,1.0721,1.0721,1.0721,1.0721,1.0721,1.0721,1.0721,1.0721,1.0721,1.0721,1.0721,1.0721,1.0721,1.0721,1.0721,1.0721,1.0721,1.0721,1.0721,1.0721,1.0721,1.0721,1.0721,1.0721,1.0721,1.0721,1.0721,1.0721,1.0721,1.0721,1.0721,1.0721,1.0721,1.0721,1.0721,1.0721,1.0721,1.0721,1.0721,1.0721,1.0721,1.0721,1.39,1.3981,1.4075,1.4164,1.4399,1.4607,1.4696,1.4854,1.4964,1.4964,1.4964,1.4964,1.4964,1.4964,1.4964,1.4964,1.5198,1.5509,1.5897,1.6123,1.6429,1.6815,1.704,1.706,1.6954,1.6865,1.6679,1.6481,1.6377,1.6278,1.6183,1.6183,1.6183,1.6183,1.6183,1.6183,1.6183,1.6183,1.6183,1.6183,1.6183,1.6183,1.6183,1.6183,1.6183,1.6112,1.5749,1.5319,1.4817,1.3682,1.327,1.3055,1.2275,1.1956,1.1761,1.141,1.1168,1.1036,1.0897,1.0823,1.0812,1.0738,1.0721,1.0721,1.0721,1.0721,1.0721,1.0721,1.0721,1.0721,1.0721,1.0721,1.0721,1.0721,1.0721,1.0721,1.0721,1.0721,1.0721,1.0721,1.0721,1.0721,1.0721,1.0721,1.0721,1.0721,1.0721,1.0721,1.0721,1.0721,1.0721,1.0721,1.0721,1.0721,1.0721,1.0721,1.0721,1.0721,1.0721,1.0721,1.0721,1.0721,1.0721,1.0721,1.0721,1.0721,1.0721,1.0721,1.0721,1.0721,1.085,1.0916,1.0986,1.1118,1.1115,1.0916,1.39,1.39,1.3949,1.4103,1.4298,1.4481,1.4639,1.4834,1.4964,1.4964,1.4964,1.4964,1.4964,1.4964,1.4964,1.4964,1.4964,1.5198,1.5586,1.5586,1.5816,1.6203,1.6582,1.6806,1.6806,1.702,1.6972,1.659,1.6514,1.6396,1.623,1.6197,1.6183,1.6183,1.6183,1.6183,1.6183,1.6183,1.6183,1.6183,1.6183,1.6183,1.6183,1.6183,1.6183,1.6183,1.6183,1.5749,1.5101,1.4324,1.4114,1.3967,1.3253,1.2806,1.2418,1.185,1.1461,1.1175,1.1056,1.0938,1.0948,1.0799,1.0758,1.0751,1.0724,1.0721,1.0721,1.0721,1.0721,1.0721,1.0721,1.0721,1.0721,1.0721,1.0721,1.0721,1.0721,1.0721,1.0721,1.0721,1.0721,1.0721,1.0721,1.0721,1.0721,1.0721,1.0721,1.0721,1.0721,1.0721,1.0721,1.0721,1.0721,1.0721,1.0721,1.0721,1.0721,1.0721,1.0721,1.0721,1.0721,1.0721,1.0721,1.0721,1.0721,1.0721,1.0721,1.0721,1.0721,1.0721,1.0986,1.1115,1.1181,1.1516,1.1383,1.1118,1.39,1.39,1.3908,1.3937,1.4213,1.444,1.4464,1.4753,1.4964,1.4964,1.4964,1.4964,1.4964,1.4964,1.4964,1.4964,1.4964,1.5198,1.5586,1.5586,1.5816,1.6203,1.6582,1.6806,1.6806,1.7164,1.7261,1.702,1.666,1.6467,1.6438,1.6264,1.6183,1.6183,1.6183,1.6183,1.6183,1.6183,1.6183,1.6183,1.6183,1.6183,1.6183,1.6183,1.6183,1.6183,1.6183,1.6108,1.5895,1.5101,1.4817,1.4746,1.3971,1.3309,1.2719,1.2648,1.2041,1.1355,1.1335,1.1233,1.1097,1.0887,1.085,1.0816,1.0751,1.0721,1.0721,1.0721,1.0721,1.0721,1.0721,1.0721,1.0721,1.0721,1.0721,1.0721,1.0721,1.0721,1.0721,1.0721,1.0721,1.0721,1.0721,1.0721,1.0721,1.0721,1.0721,1.0721,1.0721,1.0721,1.0721,1.0721,1.0721,1.0721,1.0721,1.0721,1.0721,1.0721,1.0721,1.0721,1.0721,1.0721,1.0721,1.0721,1.0721,1.0721,1.0721,1.0721,1.0721,1.0721,1.0721,1.0787,1.0787,1.0853,1.0787,1.0787,1.39,1.39,1.39,1.39,1.4196,1.4432,1.4432,1.4737,1.4964,1.4964,1.4964,1.4964,1.4964,1.4964,1.4964,1.4964,1.4964,1.5045,1.5275,1.5275,1.5352,1.5509,1.6123,1.6429,1.6429,1.7044,1.7379,1.7284,1.6977,1.6712,1.6481,1.6391,1.6292,1.6183,1.6183,1.6183,1.6183,1.6183,1.6183,1.6183,1.6183,1.6183,1.6183,1.6183,1.6183,1.6183,1.6183,1.6183,1.6183,1.582,1.5678,1.5536,1.475,1.4039,1.3325,1.2896,1.2209,1.1501,1.1413,1.1341,1.1253,1.1104,1.1067,1.1029,1.0884,1.0782,1.0756,1.0738,1.0721,1.0721,1.0721,1.0721,1.0721,1.0721,1.0721,1.0721,1.0721,1.0721,1.0721,1.0721,1.0721,1.0721,1.0721,1.0721,1.0721,1.0721,1.0721,1.0721,1.0721,1.0721,1.0721,1.0721,1.0721,1.0721,1.0721,1.0721,1.0721,1.0721,1.0721,1.0721,1.0721,1.0721,1.0721,1.0721,1.0721,1.0721,1.0721,1.0721,1.0721,1.0721,1.092,1.1118,1.1317,1.1317,1.1185,1.0982]}]]